[[{"header":{"parameterUnit":"m.s-1","parameterCategory":1,"la1":30.6,"la2":29.2853,"lo1":-89.7004,"lo2":-87.6739,"dy":0.0162,"dx":0.0183,"nx":112,"ny":82,"refTime":"2025-08-04T12:00:00:Z","depth":0,"parameterNumber":2,"parameterNumberName":"U-component_of_WINDS"},"data":[0.0,0.0,0.0,0.0,0.0,0.0,0.0,0.0,0.0,0.0,0.0,0.0,0.0,0.0,0.0,0.0,0.0,0.0,0.0,0.0,0.0,0.0,0.0,0.0,0.0,0.0,0.0,0.0,0.0,0.0,0.0,0.0,0.0,0.0,0.0,0.0,0.0,0.0,0.0,0.0,0.0,0.0,0.0,0.0,0.0,0.0,0.0,0.0,0.0,0.0,0.0,0.0,0.0,0.0,0.0,0.0,0.0,0.0,0.0,0.0,0.0,0.0,0.0,0.0,0.0,0.0,0.0,0.0,0.0,0.0,0.0,0.0,0.0,0.0,0.0,0.0,0.0,0.0,0.0,0.0,0.0,0.0,0.0,0.0,0.0,0.0,0.0,0.0,0.0,0.0,1.5037,1.6157,1.8718,2.0636,2.1295,2.0534,1.8836,1.6103,0.0,0.0,0.0,0.0,0.0,0.0,0.0,0.0,0.0,0.0,0.0,0.0,0.0,0.0,0.0,0.0,0.0,0.0,0.0,0.0,0.0,0.0,0.0,0.0,0.0,0.0,0.0,0.0,0.0,0.0,0.0,0.0,0.0,0.0,0.0,0.0,0.0,0.0,0.0,0.0,0.0,0.0,0.0,0.0,0.0,0.0,0.0,0.0,0.0,0.0,0.0,0.0,0.0,0.0,0.0,0.0,0.0,0.0,0.0,0.0,0.0,0.0,0.0,0.0,0.0,0.0,0.0,0.0,0.0,0.0,0.0,0.0,0.0,0.0,0.0,0.0,0.0,0.0,0.0,0.0,0.0,0.0,0.0,0.0,0.0,0.0,0.0,0.0,0.0,0.0,0.0,0.0,0.0,0.0,0.0,0.0,0.0,0.0,0.0,0.0,0.0,0.0,0.0,0.0,1.5278,1.8927,2.088,2.2006,2.2124,2.0812,1.9275,1.7552,0.0,0.0,0.0,0.0,0.0,0.0,0.0,0.0,0.0,0.0,0.0,0.0,0.0,0.0,0.0,0.0,0.0,0.0,0.0,0.0,0.0,0.0,0.0,0.0,0.0,0.0,0.0,0.0,0.0,0.0,0.0,0.0,0.0,0.0,0.0,0.0,0.0,0.0,0.0,0.0,0.0,0.0,0.0,0.0,0.0,0.0,0.0,0.0,0.0,0.0,0.0,0.0,0.0,0.0,0.0,0.0,0.0,0.0,0.0,0.0,0.0,0.0,0.0,0.0,0.0,0.0,0.0,0.0,0.0,0.0,0.0,0.0,0.0,0.0,0.0,0.0,0.0,0.0,0.0,0.0,0.0,0.0,0.0,0.0,0.0,0.0,0.0,0.0,0.0,0.0,0.0,0.0,0.0,0.0,0.0,0.0,0.0,0.0,0.0,0.0,0.0,0.0,0.0,1.5106,1.6667,1.9867,2.1477,2.231,2.231,2.088,1.936,1.7873,1.5283,0.0,0.0,0.0,0.0,0.0,0.0,0.0,0.0,0.0,0.0,0.0,0.0,0.0,0.0,0.0,0.0,0.0,0.0,0.0,0.0,0.0,0.0,0.0,0.0,0.0,0.0,0.0,0.0,0.0,0.0,0.0,0.0,0.0,0.0,0.0,0.0,0.0,0.0,0.0,0.0,0.0,0.0,0.0,0.0,0.0,0.0,0.0,0.0,0.0,0.0,0.0,0.0,0.0,0.0,0.0,0.0,0.0,0.0,0.0,0.0,0.0,0.0,0.0,0.0,0.0,0.0,0.0,0.0,0.0,0.0,0.0,0.0,0.0,0.0,0.0,0.0,0.0,0.0,0.0,0.0,0.0,0.0,0.0,0.0,0.0,0.0,0.0,0.0,0.0,0.0,0.0,0.0,0.0,0.0,0.0,0.0,0.0,0.0,0.0,0.0,0.0,0.0,1.7006,1.8487,2.0222,2.1609,2.2366,2.231,2.0711,1.9174,1.7873,1.4868,0.0,0.0,0.0,0.0,0.0,0.0,0.0,0.0,0.0,0.0,0.0,0.0,0.0,0.0,0.0,0.0,0.0,0.0,0.0,0.0,0.0,0.0,0.0,0.0,0.0,0.0,0.0,0.0,0.0,0.0,0.0,0.0,0.0,0.0,0.0,0.0,0.0,0.0,0.0,0.0,0.0,0.0,0.0,0.0,0.0,0.0,0.0,0.0,0.0,0.0,0.0,0.0,0.0,0.0,0.0,0.0,0.0,0.0,0.0,0.0,0.0,0.0,0.0,0.0,0.0,0.0,0.0,0.0,0.0,0.0,0.0,0.0,0.0,0.0,0.0,0.0,0.0,0.0,0.0,0.0,0.0,0.0,0.0,0.0,0.0,0.0,0.0,0.0,0.0,0.0,0.0,0.0,0.0,0.0,0.0,0.0,0.0,0.0,0.0,0.0,0.0,0.0,1.7874,2.0481,2.0401,2.1772,2.2569,2.231,2.0264,1.864,1.7862,1.4394,0.0,0.0,0.0,0.0,0.0,0.0,0.0,0.0,0.0,0.0,0.0,0.0,0.0,0.0,0.0,0.0,0.0,0.0,0.0,0.0,0.0,0.0,0.0,0.0,0.0,0.0,0.0,0.0,0.0,0.0,0.0,0.0,0.0,0.0,0.0,0.0,0.0,0.0,0.0,0.0,0.0,0.0,0.0,0.0,0.0,0.0,0.0,0.0,0.0,0.0,0.0,0.0,0.0,0.0,0.0,0.0,0.0,0.0,0.0,0.0,0.0,0.0,0.0,0.0,0.0,0.0,0.0,0.0,0.0,0.0,0.0,0.0,0.0,0.0,0.0,0.0,0.0,0.0,0.0,0.0,0.0,0.0,0.0,0.0,0.0,0.0,0.0,0.0,0.0,0.0,0.0,0.0,0.0,0.0,0.0,0.0,0.0,0.0,0.0,0.0,0.0,0.0,1.7629,2.0035,2.1436,2.225,2.2659,2.2569,2.0739,1.9096,1.7896,0.0,0.0,0.0,0.0,0.0,0.0,0.0,0.0,0.0,0.0,0.0,0.0,0.0,0.0,0.0,0.0,0.0,0.0,0.0,0.0,0.0,0.0,0.0,0.0,0.0,0.0,0.0,0.0,0.0,0.0,0.0,0.0,0.0,0.0,0.0,0.0,0.0,0.0,0.0,0.0,0.0,0.0,0.0,0.0,0.0,0.0,0.0,0.0,0.0,0.0,0.0,0.0,0.0,0.0,0.0,0.0,0.0,0.0,0.0,0.0,0.0,0.0,0.0,0.0,0.0,0.0,0.0,0.0,0.0,0.0,0.0,0.0,0.0,0.0,0.0,0.0,0.0,0.0,0.0,0.0,0.0,0.0,0.0,0.0,0.0,0.0,0.0,0.0,0.0,0.0,0.0,0.0,0.0,0.0,0.0,0.0,0.0,0.0,0.0,0.0,0.0,0.0,1.5353,1.7952,2.0311,2.2103,2.2693,2.2927,2.2825,2.0958,1.9154,1.7654,0.0,0.0,0.0,0.0,0.0,0.0,0.0,0.0,0.0,0.0,0.0,0.0,0.0,0.0,0.0,0.0,0.0,0.0,0.0,0.0,0.0,0.0,0.0,0.0,0.0,0.0,0.0,0.0,0.0,0.0,0.0,0.0,0.0,0.0,0.0,0.0,0.0,0.0,0.0,0.0,0.0,0.0,0.0,0.0,0.0,0.0,0.0,0.0,0.0,0.0,0.0,0.0,0.0,0.0,0.0,0.0,0.0,0.0,0.0,0.0,0.0,0.0,0.0,0.0,0.0,0.0,0.0,0.0,0.0,0.0,0.0,0.0,0.0,0.0,0.0,0.0,0.0,0.0,0.0,0.0,0.0,0.0,0.0,0.0,0.0,0.0,0.0,0.0,0.0,0.0,0.0,0.0,0.0,0.0,0.0,0.0,0.0,0.0,0.0,0.0,0.0,0.0,1.553,1.9125,2.1788,2.2271,2.3017,2.3394,2.3133,2.0784,1.8693,0.0,0.0,0.0,0.0,0.0,0.0,0.0,0.0,0.0,0.0,0.0,0.0,0.0,0.0,0.0,0.0,0.0,0.0,0.0,0.0,0.0,0.0,0.0,0.0,0.0,0.0,0.0,0.0,0.0,0.0,0.0,0.0,0.0,0.0,0.0,0.0,0.0,0.0,0.0,0.0,0.0,0.0,0.0,0.0,0.0,0.0,0.0,0.0,0.0,0.0,0.0,0.0,0.0,0.0,0.0,0.0,0.0,0.0,0.0,0.0,0.0,0.0,0.0,0.0,0.0,0.0,0.0,0.0,0.0,0.0,0.0,0.0,0.0,0.0,0.0,0.0,0.0,0.0,0.0,0.0,0.0,0.0,0.0,0.0,0.0,0.0,0.0,0.0,0.0,0.0,0.0,0.0,0.0,0.0,0.0,0.0,0.0,0.0,0.0,0.0,0.0,0.0,0.0,1.6473,1.9549,2.21,2.3424,2.3516,2.3481,2.3394,2.152,1.9664,1.8049,0.0,0.0,0.0,0.0,0.0,0.0,0.0,0.0,0.0,0.0,0.0,0.0,0.0,0.0,0.0,0.0,0.0,0.0,0.0,0.0,0.0,0.0,0.0,0.0,0.0,0.0,0.0,0.0,0.0,0.0,0.0,0.0,0.0,0.0,0.0,0.0,0.0,0.0,0.0,0.0,0.0,0.0,0.0,0.0,0.0,0.0,0.0,0.0,0.0,0.0,0.0,0.0,0.0,0.0,0.0,0.0,0.0,0.0,0.0,0.0,0.0,0.0,0.0,0.0,0.0,0.0,0.0,0.0,0.0,0.0,0.0,0.0,0.0,0.0,0.0,0.0,0.0,0.0,0.0,0.0,0.0,0.0,0.0,0.0,0.0,0.0,0.0,0.0,0.0,0.0,0.0,0.0,0.0,0.0,0.0,0.0,0.0,0.0,0.0,0.0,0.0,0.0,1.7331,2.0025,2.2354,2.3891,2.3831,2.3642,2.362,2.1931,2.0082,1.8177,0.0,0.0,0.0,0.0,0.0,0.0,0.0,0.0,0.0,0.0,0.0,0.0,0.0,0.0,0.0,0.0,0.0,0.0,0.0,0.0,0.0,0.0,0.0,0.0,0.0,0.0,0.0,0.0,0.0,0.0,0.0,0.0,0.0,0.0,0.0,0.0,0.0,0.0,0.0,0.0,0.0,0.0,0.0,0.0,0.0,0.0,0.0,0.0,0.0,0.0,0.0,0.0,0.0,0.0,0.0,0.0,0.0,0.0,0.0,0.0,0.0,0.0,0.0,0.0,0.0,0.0,0.0,0.0,0.0,0.0,0.0,0.0,0.0,0.0,0.0,0.0,0.0,0.0,0.0,0.0,0.0,0.0,0.0,0.0,0.0,0.0,0.0,0.0,0.0,0.0,0.0,0.0,0.0,0.0,0.0,0.0,0.0,0.0,0.0,0.0,0.0,0.0,1.8016,2.0478,2.2528,2.3891,2.3937,2.3876,2.3795,2.2153,2.0212,1.8052,0.0,0.0,0.0,0.0,0.0,0.0,0.0,0.0,0.0,0.0,0.0,0.0,0.0,0.0,0.0,0.0,0.0,0.0,0.0,0.0,0.0,0.0,0.0,0.0,0.0,0.0,0.0,0.0,0.0,0.0,0.0,0.0,0.0,0.0,0.0,0.0,0.0,0.0,0.0,0.0,0.0,0.0,0.0,0.0,0.0,0.0,0.0,0.0,0.0,0.0,0.0,0.0,0.0,0.0,0.0,0.0,0.0,0.0,0.0,0.0,1.6495,1.5326,0.0,0.0,0.0,0.0,0.0,0.0,0.0,0.0,0.0,0.0,0.0,0.0,0.0,0.0,0.0,0.0,0.0,0.0,0.0,0.0,0.0,0.0,0.0,0.0,0.0,0.0,0.0,0.0,0.0,0.0,0.0,0.0,0.0,0.0,0.0,0.0,0.0,0.0,0.0,0.0,1.8136,2.047,2.2527,2.4155,2.4018,2.3816,2.3795,2.2715,2.1301,1.9612,1.7185,0.0,0.0,0.0,0.0,0.0,0.0,0.0,0.0,0.0,0.0,0.0,0.0,0.0,0.0,0.0,0.0,0.0,0.0,0.0,0.0,0.0,0.0,0.0,0.0,0.0,0.0,0.0,0.0,0.0,0.0,0.0,0.0,0.0,0.0,0.0,0.0,0.0,0.0,0.0,0.0,0.0,0.0,0.0,0.0,0.0,0.0,0.0,0.0,0.0,0.0,0.0,0.0,0.0,0.0,0.0,0.0,0.0,0.0,0.0,1.8986,1.8045,0.0,0.0,0.0,0.0,0.0,0.0,0.0,0.0,0.0,0.0,0.0,0.0,0.0,0.0,0.0,0.0,0.0,0.0,0.0,0.0,0.0,0.0,0.0,0.0,0.0,0.0,0.0,0.0,0.0,0.0,0.0,0.0,0.0,0.0,0.0,0.0,0.0,0.0,0.0,0.0,1.8808,2.1152,2.3084,2.4262,2.4192,2.3998,2.3858,2.2944,2.1667,2.0057,1.811,0.0,0.0,0.0,0.0,0.0,0.0,0.0,0.0,0.0,0.0,0.0,0.0,0.0,0.0,0.0,0.0,0.0,0.0,0.0,0.0,0.0,0.0,0.0,0.0,0.0,0.0,0.0,0.0,0.0,0.0,0.0,0.0,0.0,0.0,0.0,0.0,0.0,0.0,0.0,0.0,0.0,0.0,0.0,0.0,0.0,0.0,0.0,0.0,0.0,0.0,0.0,0.0,0.0,2.0664,2.1152,2.1833,2.1833,2.2634,2.3861,2.1711,2.1301,2.1983,1.972,0.0,0.0,0.0,0.0,0.0,0.0,0.0,0.0,0.0,0.0,0.0,0.0,0.0,0.0,0.0,0.0,0.0,0.0,0.0,0.0,0.0,0.0,2.1011,2.0922,2.1528,2.1308,1.8388,0.0,0.0,0.0,0.0,0.0,0.0,0.0,0.0,0.0,0.0,0.0,1.9745,2.1981,2.3662,2.4366,2.4338,2.4173,2.3978,2.3157,2.2003,2.0492,1.8986,1.7461,0.0,0.0,0.0,0.0,0.0,0.0,0.0,0.0,0.0,0.0,0.0,0.0,0.0,0.0,0.0,0.0,0.0,0.0,0.0,0.0,0.0,0.0,0.0,0.0,0.0,0.0,0.0,0.0,0.0,0.0,0.0,0.0,1.2789,1.3648,0.0,0.0,0.0,0.0,0.0,0.0,0.0,0.0,0.0,0.0,0.0,0.0,0.0,1.9732,2.1372,2.2935,2.4108,2.4869,2.6374,2.7124,2.7187,2.7187,2.7304,2.7508,2.7153,0.0,2.3867,2.277,0.0,0.0,0.0,0.0,0.0,0.0,0.0,0.0,0.0,0.0,0.0,0.0,0.0,0.0,0.0,0.0,0.0,0.0,0.0,0.0,0.0,0.0,2.4598,2.3844,2.4328,2.4637,2.3427,2.085,1.8632,1.8306,1.7135,1.6144,0.0,0.0,0.0,0.0,0.0,0.0,2.0696,2.2365,2.3699,2.4489,2.4356,2.4192,2.4173,2.3828,2.3275,2.2483,2.0807,1.9503,1.8699,1.6304,0.0,0.0,0.0,0.0,0.0,0.0,0.0,0.0,0.0,0.0,0.0,0.0,0.0,0.0,0.0,0.0,0.0,0.0,0.0,0.0,0.0,0.0,0.0,0.0,0.0,0.0,0.0,0.0,0.0,1.3182,1.4588,1.5469,1.5996,1.5955,0.0,0.0,0.0,0.0,0.0,0.0,0.0,0.0,0.0,2.2094,2.2642,2.3735,2.5473,2.6234,2.678,2.7171,2.7932,2.8288,2.8255,2.8255,2.8512,2.8964,2.8437,2.7829,2.7121,2.5752,2.4674,2.3755,0.0,0.0,0.0,0.0,2.2333,2.2177,2.4069,2.4108,2.317,2.2305,0.0,0.0,0.0,0.0,0.0,0.0,0.0,2.2366,2.2959,2.3932,2.4795,2.4892,2.5221,2.5395,2.5008,2.3721,2.2184,2.0757,2.0215,1.9545,1.8107,1.7907,0.0,0.0,0.0,2.1073,2.1839,2.3347,2.4463,2.4741,2.4636,2.4472,2.4284,2.4154,2.371,2.2849,2.2118,2.1098,1.9758,1.8324,1.6856,0.0,0.0,0.0,0.0,0.0,0.0,0.0,0.0,0.0,0.0,0.0,0.0,0.0,0.0,0.0,0.0,0.0,0.0,0.0,0.0,0.0,0.0,0.0,0.0,0.0,0.0,0.0,0.0,1.4824,1.6387,1.7263,1.8336,1.8569,0.0,0.0,0.0,0.0,0.0,0.0,2.0513,2.1432,2.2971,2.5303,2.6008,2.6942,2.8239,2.8454,2.8551,2.8551,2.8785,2.8883,2.8883,2.8883,2.924,2.9838,2.9148,2.9214,2.9705,2.7946,2.6856,2.6136,2.489,2.3979,2.3513,2.4817,2.4895,2.4681,2.7245,2.7303,2.6155,2.5513,2.4719,2.3766,2.252,0.0,0.0,0.0,0.0,2.3648,2.4897,2.5214,2.5391,2.6041,2.6196,2.6196,2.6196,2.6022,2.5229,2.31,2.2929,2.2559,2.066,2.0627,0.0,2.0027,2.1646,2.2948,2.2959,2.42,2.5049,2.4949,2.485,2.4704,2.4454,2.4391,2.4044,2.3327,2.3087,2.2245,2.0535,1.9861,1.8565,1.6588,0.0,0.0,0.0,0.0,0.0,0.0,0.0,0.0,0.0,0.0,0.0,0.0,0.0,0.0,0.0,0.0,0.0,0.0,0.0,0.0,0.0,0.0,0.0,0.0,0.0,0.0,0.0,0.0,0.0,1.9062,2.0678,0.0,0.0,0.0,0.0,1.9225,2.0708,2.2367,2.4046,2.4965,2.622,2.7955,2.8052,2.8087,2.81,2.8864,2.9253,2.9253,3.0095,3.049,3.049,3.049,3.0541,3.0633,3.0598,3.0641,3.0591,2.8846,2.8114,2.8053,2.7975,2.7917,2.7878,2.7973,2.7973,2.7956,2.8149,2.8149,2.8051,2.8012,2.7409,2.6687,2.6607,2.6585,0.0,0.0,2.7238,2.7896,2.797,2.8003,2.8016,2.8055,2.8055,2.8055,2.8055,2.74,2.6533,2.5511,2.4679,2.4099,2.3964,0.0,2.2681,2.2692,2.3352,2.3858,2.3919,2.4615,2.5103,2.5084,2.4917,2.479,2.4776,2.4654,2.458,2.461,2.3717,2.2679,2.157,2.0572,1.9165,1.7273,1.5729,0.0,0.0,0.0,0.0,0.0,0.0,0.0,0.0,0.0,0.0,0.0,0.0,0.0,0.0,0.0,0.0,0.0,0.0,0.0,0.0,0.0,0.0,0.0,0.0,0.0,0.0,0.0,0.0,2.1575,2.2799,0.0,2.1862,2.2525,2.315,2.3404,2.4516,2.5679,2.6786,2.7137,2.7799,2.887,2.8909,2.9169,2.9693,2.9984,3.0146,3.0146,3.0457,3.0593,3.0593,3.0593,3.0607,3.0633,3.0633,3.0667,3.0696,3.0072,3.0152,3.0604,2.9471,2.937,2.9871,2.9871,2.9519,2.9205,3.0318,2.9986,2.8932,2.8387,2.7996,2.7743,2.7743,2.7743,2.7741,2.7739,2.7967,2.8207,2.8209,2.8199,2.8207,2.8193,2.8193,2.8193,2.8193,2.796,2.7468,2.6568,2.5699,2.4931,2.4355,2.4416,2.4358,2.3828,2.4419,2.4945,2.4951,2.5185,2.5313,2.5243,2.5171,2.5049,2.4883,2.4818,2.4764,2.4711,2.3846,2.288,2.185,2.0937,1.9788,1.8287,1.7291,1.5958,0.0,0.0,0.0,0.0,0.0,0.0,0.0,0.0,0.0,0.0,0.0,0.0,0.0,0.0,0.0,0.0,0.0,0.0,0.0,0.0,0.0,0.0,0.0,0.0,0.0,2.0135,2.1913,2.3361,2.4542,2.5021,2.4442,2.5152,2.5886,2.6474,2.7039,2.7729,2.8529,2.8563,2.8929,2.9668,2.9707,2.997,3.0527,3.0527,3.0527,3.0527,3.0527,3.0527,3.0527,3.0527,3.0543,3.0576,3.0576,3.06,3.0661,3.0661,3.1211,3.1897,3.0482,3.0292,3.08,3.08,3.0429,3.0155,3.16,3.1151,2.9882,2.9609,2.9316,2.9081,2.9081,2.9081,2.9081,2.9081,2.9081,2.9119,2.9113,2.9103,2.911,2.9116,2.9116,2.9116,2.9116,2.8886,2.8497,2.7909,2.684,2.5764,2.4898,2.5154,2.5298,2.4737,2.5124,2.5511,2.5511,2.5511,2.5468,2.5388,2.5332,2.5233,2.5056,2.4955,2.4861,2.4779,2.4182,2.3273,2.1948,2.1377,2.0358,1.8824,1.7839,1.6637,1.5187,0.0,0.0,0.0,0.0,0.0,0.0,0.0,0.0,0.0,0.0,0.0,0.0,0.0,0.0,0.0,0.0,0.0,0.0,0.0,0.0,0.0,0.0,0.0,1.9414,2.1591,2.3491,2.4366,2.5921,2.6933,2.6933,2.7665,2.8152,2.8152,2.8171,2.854,2.9336,2.9375,2.9745,3.0559,3.055,3.05,3.0448,3.0398,3.0398,3.0398,3.0398,3.0398,3.0398,3.0398,3.0428,3.0492,3.0492,3.0535,3.0593,3.0593,3.1098,3.1799,3.1067,3.0819,3.0838,3.0838,3.0838,3.0958,3.1777,3.1504,3.0938,3.1777,3.1504,3.0841,3.0801,3.0821,3.0841,3.0801,3.086,3.0899,3.0899,3.0894,3.0898,3.0898,3.0898,3.0898,3.0898,3.024,2.9636,2.9616,2.8189,2.67,2.58,2.5595,2.5538,2.5511,2.5511,0.0,2.5511,2.5511,2.5511,2.5511,2.5369,2.5313,2.5303,2.5068,2.4915,2.4915,2.4749,2.3849,2.203,2.1861,2.0873,1.8878,1.7389,1.6309,1.5673,0.0,0.0,0.0,0.0,0.0,0.0,0.0,0.0,0.0,0.0,0.0,0.0,0.0,0.0,0.0,0.0,0.0,0.0,0.0,0.0,0.0,2.0428,2.1973,2.1971,2.3621,2.5148,2.5974,2.7032,2.7725,2.777,2.8495,2.8967,2.8967,2.9557,3.0253,3.1079,3.1109,3.1458,3.2208,3.1669,3.1368,3.1352,3.0717,3.0398,3.0398,3.0398,3.0398,3.0398,3.0398,3.0402,3.0436,3.0436,3.0462,3.0518,3.0518,3.0696,3.095,3.0736,3.1067,3.1664,3.1664,3.1698,3.1699,3.1289,3.0997,3.0841,3.1075,3.1426,3.1621,3.0997,3.1231,3.1602,3.0977,3.0801,3.0843,3.0889,3.0894,3.0896,3.0909,3.0907,3.0909,3.0896,3.0703,3.0351,2.9726,2.9197,2.8355,2.6812,2.652,2.6279,2.5604,2.5511,2.5511,2.5511,2.5511,2.5511,2.5511,2.5468,2.5406,2.5313,2.5233,2.5149,2.5049,2.4333,2.3676,2.3159,2.2406,2.1405,2.0134,1.9581,1.8674,0.0,0.0,0.0,0.0,0.0,0.0,0.0,0.0,0.0,0.0,0.0,0.0,0.0,0.0,0.0,0.0,0.0,0.0,0.0,0.0,0.0,0.0,2.2533,2.4103,2.4425,2.5356,2.6456,2.7651,2.8214,2.8662,2.9071,2.9502,2.991,3.0278,3.0771,3.14,3.2227,3.2265,3.2463,3.2891,3.2449,3.2199,3.2199,3.1698,3.1275,3.0948,3.1295,3.1275,3.0968,3.1295,3.1256,3.0948,3.0948,3.0964,3.0972,3.0606,3.0675,3.0984,0.0,0.0,0.0,0.0,3.1496,3.1543,3.1387,3.1114,3.086,3.1231,3.1446,3.1465,3.0958,3.1153,3.1524,3.1387,3.1094,3.094,3.1317,3.1146,3.0894,3.0907,3.0903,3.0901,3.0907,3.0909,3.0753,3.0245,3.0131,0.0,2.8281,2.7403,2.6705,2.6161,2.5743,2.5511,2.5511,2.5511,2.5511,2.5511,2.5511,2.5468,2.5397,2.5332,0.0,0.0,0.0,2.4043,2.3625,2.2576,0.0,0.0,0.0,0.0,0.0,1.9979,0.0,0.0,1.8031,1.8127,0.0,0.0,0.0,0.0,0.0,0.0,0.0,0.0,0.0,0.0,0.0,0.0,0.0,0.0,0.0,0.0,2.4466,2.582,2.6649,2.6863,2.7522,2.9076,2.9303,2.9621,3.0405,3.0524,3.0859,3.1628,3.1763,3.2186,3.2994,3.3019,0.0,0.0,0.0,3.2974,3.2974,3.2878,3.2474,3.177,3.2493,3.2455,3.177,3.248,3.2436,3.1776,3.1776,3.1808,3.1775,3.1006,3.1039,3.1532,3.0856,3.0598,3.0605,3.0661,3.0724,3.0888,3.1652,0.0,0.0,3.1672,3.1474,3.0908,3.0816,3.0855,3.1109,3.1875,3.1582,3.1192,3.1914,3.1571,3.1011,3.0913,3.0907,3.0899,3.0899,3.0899,3.0899,3.0899,3.0899,3.0652,2.9882,2.8325,2.7118,2.6931,2.6177,2.5608,2.5511,2.5511,2.5511,2.5511,2.5511,0.0,2.5511,2.5397,2.5322,2.5322,2.5192,2.4724,2.3815,2.2768,2.2271,2.237,2.2281,2.2216,2.2264,2.2873,2.2842,2.2138,1.9767,1.9747,0.0,0.0,0.0,0.0,0.0,0.0,0.0,0.0,0.0,0.0,0.0,0.0,0.0,0.0,0.0,2.4523,2.563,2.6792,2.8218,2.846,2.8624,2.9021,2.967,3.0163,3.0394,3.0994,3.1437,3.161,3.2217,3.2952,3.3829,3.3658,3.3884,3.4571,3.3804,3.3372,3.3372,3.2724,3.2307,3.212,3.2307,0.0,3.2031,3.2236,3.2338,3.2348,3.2348,3.2474,3.2641,3.2487,3.209,3.1539,3.079,3.0511,3.053,3.0579,3.0626,3.0652,3.0833,3.0775,3.0671,3.0833,3.1261,3.1579,3.0925,3.1207,0.0,3.2046,3.1992,3.1895,3.2051,3.1975,3.1704,3.1058,3.0901,3.0899,3.0841,3.0821,3.0821,3.0821,3.086,3.0841,3.0689,2.9724,2.8513,2.7113,2.6695,2.63,2.5588,2.5511,2.5511,2.5511,2.5511,2.5511,2.5511,2.5476,2.5468,2.5468,2.5332,2.5135,2.4832,2.4498,2.4039,2.3409,2.39,2.383,2.3154,2.3929,2.4197,2.3977,2.3144,2.2683,0.0,0.0,0.0,0.0,0.0,0.0,0.0,0.0,0.0,0.0,0.0,2.1297,2.2612,0.0,2.5063,2.6304,2.7175,2.7975,2.879,2.9273,2.9549,2.9602,2.9979,3.0446,3.0963,3.1367,3.1949,3.2801,3.3111,3.3627,3.4503,3.4317,3.4396,3.4851,3.4357,3.4091,3.4091,3.3753,3.3318,3.2864,3.3355,3.3337,3.2864,3.3337,3.3373,3.3045,3.3045,3.3113,3.3264,3.331,3.2642,3.1552,3.1623,3.1438,3.11,3.1185,3.1507,3.1907,3.1907,3.1907,3.1907,3.1907,3.1907,3.1902,3.1929,3.1942,3.2129,3.3014,3.2961,3.2742,3.3156,3.2649,3.1945,3.1554,3.1139,3.0841,3.0801,3.0801,3.0801,3.0801,3.0841,3.086,3.0899,3.0504,2.9758,2.8389,2.7807,2.7324,2.687,2.6796,2.6621,2.6149,2.6102,2.5936,2.553,2.5511,2.5511,2.5511,2.536,2.5264,2.5192,2.508,2.4791,2.4314,2.4601,2.4516,2.4064,2.446,2.4599,2.4495,2.4355,2.4063,0.0,0.0,0.0,0.0,0.0,0.0,0.0,0.0,2.0617,2.2361,2.3263,2.4177,2.5523,2.629,2.6995,2.781,2.8458,2.8921,2.906,2.9675,3.0094,3.0071,3.0133,3.0499,3.1443,3.1623,3.232,3.3838,3.3891,3.4149,3.4869,3.4714,3.4591,3.4591,3.4569,3.4548,3.4548,3.4612,3.4292,3.3594,3.4372,3.4334,3.3653,3.4391,3.4336,3.3733,3.381,3.3923,3.4018,3.3843,3.3048,3.1996,3.2579,3.2551,3.2158,3.2055,3.2484,3.314,3.314,3.314,3.314,3.314,3.2665,3.2227,3.2934,3.2671,3.2435,3.3976,3.3938,3.3588,3.4237,3.3446,3.2375,3.2063,3.1495,3.098,3.081,3.0774,3.0774,3.0799,3.0801,3.0821,3.088,3.0899,3.0599,2.9656,2.8909,2.8369,2.8144,2.812,2.7821,2.705,2.6973,2.6633,2.5801,2.5724,2.5666,2.5511,2.5397,2.5341,2.5341,2.5203,2.5091,2.4981,2.4891,2.4814,2.4745,2.4745,2.4754,2.4771,2.4874,2.4767,1.6834,1.7668,1.8782,2.0432,2.0919,2.1751,0.0,0.0,2.4988,2.6743,2.7129,2.7228,2.7473,2.7543,2.7828,2.8637,2.8746,2.8962,2.9674,2.9712,2.9681,2.9681,2.9815,3.0285,3.1172,3.1727,3.2411,3.3335,3.4028,3.4438,3.4553,3.4371,3.4269,3.4269,3.408,3.3998,3.3998,3.4074,3.4018,3.385,3.4018,3.3993,3.3773,3.3943,3.408,3.4248,3.4542,3.5056,3.5524,3.4263,3.3614,3.3403,3.2974,3.3216,3.3747,3.3044,3.2833,3.2928,3.2928,3.2928,3.2928,3.2928,3.287,3.2817,3.2975,3.2948,3.3084,3.4115,3.4334,3.4295,3.4373,3.4264,3.3767,3.2271,3.1831,3.1586,3.0862,3.0715,3.0728,3.0796,3.0801,3.0801,3.0801,3.086,3.0595,2.9726,2.9461,2.9074,2.8299,2.8189,2.8122,2.7969,2.7929,2.7569,2.6644,2.6566,2.6257,2.555,2.5484,2.5476,2.5476,2.5341,2.5264,2.5253,2.5138,2.5,2.4874,2.4874,2.5171,2.5752,2.5699,2.5256,1.9958,2.0304,2.0842,2.307,2.3968,2.4683,2.6078,2.6536,2.6854,2.7592,2.8115,2.8434,2.8338,2.8725,2.9122,2.9383,2.9342,2.9389,2.9731,2.9681,2.9608,2.9608,2.957,3.0114,3.158,3.1939,3.2633,3.3951,3.4211,3.4344,3.4344,3.4105,3.3972,3.3972,3.3895,3.3842,3.3842,3.3895,3.3921,3.3895,3.3972,3.3972,3.3921,3.3998,3.4358,3.4965,3.5062,3.5301,3.5614,3.5011,3.4617,3.4376,3.4125,3.452,3.5141,3.4012,3.3942,3.441,3.441,3.441,3.441,3.441,3.4064,3.3769,3.4301,3.4101,3.3882,3.4778,3.504,3.504,3.504,3.4679,3.4168,3.3471,3.2585,3.1805,3.1463,3.1008,3.0645,3.0691,3.0672,3.0701,3.0732,3.0774,3.0687,3.0401,3.0332,3.0165,2.9764,2.9713,2.9492,2.8925,2.8403,2.7939,2.7544,2.7475,2.731,2.6981,2.6942,2.6942,2.6942,2.6908,2.6612,2.6073,2.6455,2.6378,2.5768,2.6244,2.6624,2.6887,2.677,2.6486,2.2067,2.2555,2.3231,2.5077,2.6307,2.709,2.709,2.7719,2.8303,2.8335,2.8793,2.915,2.9026,2.9516,2.9918,2.9825,2.9699,2.9626,2.9626,2.9513,2.9435,2.9435,2.9312,2.9943,3.1717,3.1902,3.2593,3.4244,3.4203,3.4099,3.4099,3.3895,3.3697,3.3476,3.3678,3.3697,3.3476,3.375,3.3868,3.3868,3.3921,3.3947,3.3947,3.4023,3.4504,3.5272,3.5024,3.5206,3.5725,3.5541,3.5423,3.5371,3.5433,3.5814,3.6234,3.5259,3.5388,3.5998,3.5633,3.5661,3.5795,3.557,3.5064,3.468,3.5315,3.5064,3.468,3.5334,3.5493,3.5493,3.5493,3.5059,3.4573,3.4322,3.3383,3.2404,3.1964,3.1371,3.0874,3.0651,3.0593,3.062,3.0682,3.0711,3.0743,3.0875,3.0891,3.0878,3.082,3.0808,3.0544,2.9868,2.9198,2.8725,2.8472,2.8403,2.8277,2.8014,2.7995,2.7995,2.7995,2.7995,2.767,2.7007,2.7566,2.7497,2.678,2.7366,2.7764,2.7969,2.7832,2.7858,2.2577,2.4277,2.6282,2.6345,2.7606,2.8815,2.8815,2.9349,2.9864,2.9931,2.9801,2.9697,2.977,2.9803,2.9784,2.9789,2.957,2.9398,2.9394,2.9181,2.9017,2.9017,2.8998,2.9641,3.1244,3.1409,3.2089,3.3705,3.3834,3.3815,3.3815,3.3788,3.344,3.2669,3.3385,3.344,3.2651,3.3403,3.3788,3.3788,3.3807,3.3807,3.3807,3.3868,3.4328,3.4981,3.4255,3.4843,3.6221,3.5655,3.585,3.6582,3.675,3.6892,3.6975,3.6919,3.7139,3.7239,3.5955,3.6007,3.6546,3.5757,3.5488,3.5468,3.5474,3.5488,3.5468,3.5474,3.5493,3.5493,3.5493,3.5488,3.5257,3.4404,3.4173,3.3711,3.2144,3.1777,3.1535,3.0754,3.0593,3.062,3.0682,3.0711,3.0743,3.0875,3.0899,3.0907,3.0898,3.084,3.0781,3.0761,3.0674,3.0289,2.9428,2.9352,2.8974,2.8064,2.7995,2.7995,2.7995,2.7995,2.7987,2.7967,2.7987,2.7923,2.7766,2.7785,2.8153,2.8855,2.8782,2.9174,2.4268,2.5503,2.6632,2.7623,2.8278,2.8833,2.9271,2.9526,2.9716,2.9787,2.9281,2.8816,2.882,2.8367,2.8143,2.8538,2.8532,2.8635,2.9129,2.955,2.9604,2.9049,2.9475,3.0228,3.1292,3.1384,3.1843,3.2926,3.3495,3.3568,3.3036,3.3513,3.3678,3.3403,3.366,3.3935,3.4183,3.444,3.489,3.5459,3.5459,3.5193,3.4724,3.4642,3.4789,3.5092,3.5386,3.5799,3.6321,3.6656,3.7063,3.7411,3.6912,3.7385,3.8301,3.7333,3.7667,3.839,3.7088,3.6806,3.6938,3.6296,3.6096,3.6017,3.5619,3.5493,3.5493,3.5493,3.5493,3.5493,3.5493,3.5493,3.543,3.5141,3.4622,3.4039,3.3511,3.2509,3.1653,3.1388,3.0848,3.0482,3.056,3.0576,3.0614,3.0752,3.0847,3.0892,3.0897,3.0879,3.0879,3.0877,3.0819,3.064,3.0355,3.0296,3.0114,2.9747,2.9727,2.9727,2.9727,2.9727,2.9457,2.8876,2.9437,2.9428,2.8801,2.9371,2.9786,3.0015,2.9867,2.9941,2.6035,2.6852,2.7376,2.8631,2.8957,2.9072,2.9494,2.9533,2.9438,2.9251,2.8689,2.8129,2.783,2.7326,2.7214,2.789,2.7975,2.8319,2.9365,2.9926,3.0008,2.9494,2.9898,3.0522,3.1311,3.1384,3.1733,3.254,3.3348,3.3458,3.2651,3.3642,3.3972,3.3385,3.3642,3.4045,3.4578,3.4844,3.5459,3.6303,3.6303,3.6056,3.557,3.5165,3.5018,3.5092,3.5605,3.6009,3.6358,3.7165,3.7761,3.8118,3.7553,3.8025,3.8849,3.7947,3.8162,3.8804,3.7619,3.7397,3.7553,3.692,3.652,3.6231,3.5917,3.5618,3.5417,3.5479,3.5493,3.5493,3.5493,3.5493,3.5493,3.5493,3.5064,3.4584,3.4257,3.3353,3.2506,3.2199,3.1679,3.1214,3.1004,3.0722,3.0579,3.0677,3.0777,3.0843,3.0889,3.0894,3.0896,3.0895,3.0857,3.082,3.0796,3.075,3.071,3.0602,3.0602,3.0604,3.0598,3.0598,3.0346,2.9785,3.0308,3.0327,2.9766,3.0327,3.0598,3.0598,3.0471,3.0409,2.764,2.8222,2.8557,2.9383,2.9589,2.9589,2.957,2.9398,2.9035,2.8371,2.7951,2.749,0.0,0.0,2.687,2.7719,2.7862,2.8408,3.0065,3.0294,3.0265,0.0,0.0,0.0,0.0,3.1359,3.1708,3.2515,3.3358,3.3505,3.2708,3.4156,3.4303,3.2753,3.3513,3.3935,3.3935,3.478,3.5605,3.6413,3.6413,3.6395,3.6321,3.5514,3.51,3.5064,3.51,3.5605,3.6413,3.7221,3.801,3.8707,3.8707,3.8707,3.8707,3.8707,3.8707,3.8541,3.7614,3.7829,3.8398,3.7591,3.6799,3.6178,3.6347,3.5825,3.5242,3.5432,3.5493,3.5493,3.5493,3.5493,3.5493,3.5493,3.5493,3.5276,3.4449,3.4218,3.3949,3.3122,3.2929,3.2678,3.1979,3.123,3.075,3.0808,3.0784,3.0802,3.0875,3.0899,3.0903,3.0894,3.0905,3.0873,3.0816,3.0814,3.0755,3.0613,3.0601,3.0618,3.0607,3.0598,3.0598,3.0598,3.0598,3.0598,3.0598,3.0598,3.0598,3.0598,3.0598,3.0598,2.7807,2.867,2.9289,2.9359,2.9375,2.9334,2.9203,2.8655,2.7991,2.7259,2.6053,2.4908,2.4174,2.3989,2.4432,2.5829,2.6583,0.0,2.9921,3.0748,0.0,3.1091,0.0,3.0961,3.1366,3.0957,3.107,3.2081,3.3488,3.4105,3.358,3.4798,3.506,3.4032,3.5078,3.5661,3.5661,3.7055,3.7881,3.8083,3.8083,3.7771,3.7184,3.6945,3.6541,3.6009,3.6597,3.6982,3.7239,3.8065,3.8505,3.8707,3.8707,3.8707,3.8707,3.8707,3.8707,3.8664,3.845,3.8572,3.8691,3.8091,3.7385,3.6704,3.629,3.5719,3.5209,3.5258,3.5369,3.5493,3.5493,3.5493,3.5493,3.5493,3.5493,3.5449,3.5218,3.4661,3.4122,3.391,3.3333,3.2846,3.2639,3.2491,3.2396,3.2404,3.1981,3.146,3.0894,3.088,3.088,3.0825,3.0862,3.0884,3.0871,3.0871,3.0839,3.0747,3.0759,3.0703,3.0607,3.0598,3.0598,3.0598,3.0598,3.0598,3.0598,3.0598,3.0598,3.0598,3.0598,3.0598,2.8276,2.8915,2.9312,2.9185,2.9181,2.8953,2.8121,2.7519,2.6728,2.5252,2.4205,2.3306,2.2539,2.2739,2.3419,0.0,0.0,0.0,2.9223,3.0184,3.0651,0.0,3.0351,0.0,3.0458,3.074,3.1395,3.2531,3.3942,3.4515,3.3926,3.5214,3.5681,3.5033,3.5666,3.6285,3.6817,3.8065,3.8627,3.8451,3.8451,3.8196,3.7739,3.7393,3.7101,3.6835,3.7323,3.7507,3.7551,3.8377,3.8707,3.8707,3.8707,3.8707,3.8707,3.8707,3.8707,3.8707,3.875,3.8792,3.8818,3.8571,3.7746,3.6801,3.655,3.5757,3.4963,3.5141,3.5226,3.5273,3.5446,3.5432,3.5403,3.5479,3.5493,3.5493,3.5493,3.5122,3.4776,3.4776,3.4064,3.3468,3.3468,3.3184,3.2971,3.2995,3.2726,3.2375,3.1945,3.1613,3.1563,3.1895,3.1973,3.1836,3.1465,3.1426,3.1246,3.0825,3.0804,3.0755,3.0646,3.0622,3.0591,3.0591,3.0606,3.0598,3.0598,3.0598,3.0598,3.0598,3.0598,3.0598,2.8815,2.8994,2.8994,2.8994,2.892,2.8462,2.7028,2.6334,2.5336,2.297,2.2404,2.2058,2.1152,2.1881,2.2942,2.384,0.0,2.6798,2.839,2.9174,2.9548,2.9479,2.9412,2.9447,2.9583,3.0907,3.2272,3.3458,3.4624,3.4925,3.4269,3.5581,3.6255,3.5959,3.5851,3.6368,3.7564,3.823,3.8401,3.8101,3.8034,3.8034,3.7998,3.7344,3.7249,3.7564,3.7643,3.7643,3.7698,3.8414,3.8707,3.8707,3.8707,3.8707,3.8707,3.8707,3.8707,3.8707,3.8707,3.875,3.8822,3.8921,3.7905,3.6626,3.6876,3.5852,3.4668,3.5019,3.5019,3.4982,3.5339,3.5289,3.5209,3.5417,3.5446,3.5479,3.5493,3.5493,3.5493,3.5493,3.4891,3.4372,3.4372,3.3641,3.3121,3.3321,3.3228,3.3242,3.342,3.2744,3.2558,3.3319,3.3398,3.3085,3.2343,3.2265,3.1944,3.1191,3.1152,3.1128,3.1061,3.0994,3.0975,3.0969,3.0956,3.0954,3.0935,3.082,3.0752,3.0752,3.0656,3.0598,2.8957,2.8994,2.8994,2.8994,2.8503,2.7871,2.7383,2.5732,0.0,0.0,2.0924,2.0027,1.8537,1.9649,2.1261,2.2716,2.3715,2.531,2.8184,2.8531,2.8927,0.0,3.0052,3.0225,3.111,3.2108,3.3115,3.4226,3.5414,3.6041,3.5902,3.6449,3.6905,3.7184,3.6541,3.6786,3.7983,3.7807,3.7844,3.8101,3.7756,3.7614,3.7614,3.7803,3.7935,3.8002,3.8345,3.8487,3.8505,3.8652,3.8707,3.8707,3.8707,3.8707,3.8707,3.8707,3.8707,3.8707,3.8707,3.8707,3.8719,3.8822,3.7821,3.6618,3.6652,3.5707,3.4604,3.4689,3.4811,3.4927,3.5001,3.4982,3.5001,3.5209,3.5242,3.5308,3.546,3.5493,3.5493,3.5493,3.5391,3.5276,3.5276,3.4545,3.4231,3.4956,3.3909,3.3297,3.4032,3.3579,3.3222,3.3378,3.3398,3.3339,3.3183,3.3163,3.3107,3.2957,3.2957,3.2947,3.2922,3.2916,3.2887,3.2826,3.2772,3.2744,3.2744,3.1969,3.1584,3.1584,3.0907,3.0598,2.8906,2.8994,2.8994,2.8994,2.8411,2.7413,2.5918,0.0,0.0,0.0,1.8572,1.7897,1.7524,1.8574,0.0,2.1594,2.2872,2.441,2.6586,2.7485,2.8311,2.9277,2.9595,3.0121,3.1023,3.2191,3.3291,3.4206,3.552,3.6301,3.6301,3.6678,3.6978,3.717,3.7039,3.7202,3.7791,3.7614,3.7505,3.7469,3.7283,3.7321,3.7505,3.7685,3.8034,3.8433,3.8627,3.8707,3.8707,3.8707,3.8707,3.8707,3.8707,3.8707,3.8707,3.8707,3.8707,3.8707,3.8707,3.8707,3.8707,3.875,3.7724,3.6509,3.6591,3.5535,3.4381,3.4539,3.4564,3.4588,3.4831,3.4831,3.4772,3.5001,3.5124,3.5226,3.5324,3.5432,3.5493,3.5493,3.5493,3.5493,3.5493,3.5161,3.5026,3.5449,3.4851,3.4505,3.4911,3.4746,3.4452,3.407,3.4462,3.4569,3.412,3.4081,3.3886,3.3437,3.3398,3.3406,3.3396,3.3379,3.3336,3.3291,3.3275,3.3244,3.3244,3.2811,3.2334,3.1837,3.1456,3.1033,2.8709,2.8905,2.8905,2.8905,2.8173,2.6849,2.4599,2.2445,0.0,1.7749,1.6659,1.6308,1.6886,1.7825,1.9037,0.0,2.2082,2.3448,2.5076,2.6492,2.7613,0.0,2.9196,0.0,3.1076,3.2369,3.3542,3.449,3.5645,3.6301,3.6301,3.6597,3.6781,3.6781,3.7094,3.7266,3.7395,3.7283,3.7132,3.69,3.6821,3.6939,3.7246,3.734,3.7756,3.8433,3.8433,3.8483,3.8546,3.8483,3.8433,3.8433,3.8433,3.8433,3.8433,3.8433,3.8433,3.8451,3.8546,3.8564,3.8596,3.8658,3.7776,3.6648,3.6592,3.5555,3.4389,3.4465,3.434,3.4274,3.463,3.4628,3.4561,3.4772,3.5001,3.5124,3.5124,3.5258,3.5369,3.5432,3.5432,3.5446,3.5493,3.5353,3.5276,3.5468,3.5386,3.5303,3.5303,3.5514,3.5391,3.462,3.5407,3.5708,3.5028,3.4976,3.4686,3.4003,3.3964,3.3964,3.3964,3.3902,3.3886,3.3886,3.3857,3.3863,3.3863,3.3676,3.3195,3.2466,3.2268,3.1803,2.85,2.8644,2.8644,2.8644,2.7477,2.6031,2.4877,0.0,1.9519,1.745,1.6454,1.5953,1.6022,1.6797,0.0,0.0,0.0,2.1955,2.4892,2.5837,2.6778,2.823,0.0,0.0,3.2559,3.3473,3.4576,3.599,3.6215,3.6301,3.6301,3.6343,3.6385,3.6385,3.6367,3.6597,3.6939,3.6597,3.6557,3.69,3.6516,3.6367,3.6409,3.6781,3.719,3.7614,3.7614,3.7809,3.8135,3.7756,3.7614,3.7614,3.7614,3.7614,3.7614,3.7614,3.7614,3.765,3.8034,3.8153,3.8219,3.8596,3.8162,3.7356,3.6619,3.59,3.5118,3.4371,3.4173,3.4197,3.4197,3.4203,3.4293,3.4561,3.4791,3.4927,3.4927,3.4926,3.5019,3.5193,3.5226,3.5293,3.5479,3.4834,3.4584,3.5391,3.4828,3.434,3.434,3.5087,3.528,3.4419,3.5281,3.588,3.5802,3.5857,3.5857,3.5776,3.5757,3.5757,3.5757,3.5762,3.5742,3.5742,3.5683,3.5662,3.5662,3.4878,3.4445,3.4328,3.3476,3.3031,2.7652,2.807,2.8334,2.8551,2.7259,2.5626,2.4334,2.1485,1.8567,1.6716,1.5365,1.4796,1.5726,1.6214,1.7366,0.0,0.0,0.0,2.4021,2.4994,2.6178,2.8161,2.9334,3.0938,3.3386,3.3904,3.4697,3.6197,3.6301,3.6301,3.6301,3.6301,3.6301,3.6301,3.6301,3.6367,3.6533,3.6367,3.6367,3.6533,3.6367,3.6409,3.6678,3.6821,3.7132,3.7505,3.7505,3.7578,3.7739,3.7578,3.7505,3.7505,3.7505,3.7505,3.7505,3.7505,3.7505,3.7542,3.7685,3.7913,3.8135,3.8303,3.8295,3.8033,3.6775,3.5874,3.5116,3.4264,3.4074,3.4074,3.4049,3.4099,3.4173,3.4269,3.4498,3.473,3.473,3.4812,3.4908,3.5001,3.5107,3.5226,3.5308,3.5129,3.5103,3.5449,3.5199,3.4988,3.4988,3.531,3.5412,3.5065,3.5485,3.5787,3.5787,3.5889,3.5938,3.5938,3.5981,3.5991,3.5991,3.5991,3.5991,3.5991,3.5966,3.5951,3.5951,3.5604,3.5156,3.4582,3.4215,3.3735,2.6505,2.7118,2.7451,2.7625,2.6545,2.5033,2.3486,2.072,1.8083,1.6542,1.5003,1.4434,1.5933,1.6226,1.707,0.0,0.0,2.1118,2.3168,2.4367,2.5678,2.7506,2.8592,3.03,3.3089,3.4134,3.5098,3.613,3.6276,3.6259,3.6216,3.6259,3.6301,3.6301,3.6301,3.6301,3.6301,3.6301,3.6301,3.6301,3.6301,3.6451,3.6701,3.6701,3.6939,3.7321,3.7208,3.719,3.7303,3.719,3.717,3.717,3.717,3.717,3.717,3.717,3.717,3.7152,3.7266,3.7505,3.7791,3.8034,3.8285,3.829,3.7085,3.6168,3.5386,3.4573,3.4175,3.3972,3.3998,3.4023,3.4049,3.4099,3.4269,3.4473,3.4473,3.4586,3.4732,3.4811,3.4927,3.5054,3.5193,3.5324,3.5432,3.5493,3.5493,3.5493,3.5493,3.5493,3.5493,3.5493,3.5574,3.5641,3.5678,3.5779,3.5872,3.5908,3.5942,3.5981,3.5991,3.5991,3.5991,3.5991,3.5991,3.5991,3.5991,3.5991,3.5652,3.5018,3.4999,3.463,2.5068,2.564,2.5743,2.5491,2.5012,2.4141,2.2417,2.0185,1.8223,1.7198,1.5814,1.5245,1.6725,1.7001,1.7501,1.9051,1.9912,0.0,2.2479,2.404,2.5281,0.0,2.7489,2.9265,3.1428,3.4281,3.6002,3.6019,3.6122,3.6122,3.6019,3.6174,3.6301,3.6301,3.6301,3.6301,3.6301,3.6301,3.6301,3.6301,3.6301,3.6301,3.6301,3.6301,3.6533,3.69,3.6492,3.6516,3.686,3.6492,3.6301,3.6301,3.6301,3.6301,3.6301,3.6301,3.6301,3.6385,3.6759,3.69,3.7055,3.7844,3.8101,3.8023,3.7607,3.6967,3.6233,3.5423,3.4576,3.3921,3.3972,3.3947,3.3947,3.4074,3.4099,3.4124,3.4197,3.4197,3.4293,3.4539,3.4583,3.473,3.5124,3.5209,3.5258,3.5479,3.5493,3.5493,3.5493,3.5493,3.5493,3.5493,3.5507,3.5522,3.5596,3.5669,3.5753,3.5883,3.5908,3.5934,3.5991,3.5991,3.5991,3.5991,3.5991,3.5991,3.5991,3.5991,3.5994,3.5974,3.5916,3.5876,2.2248,2.3315,2.42,2.3284,2.2814,2.2321,2.1392,1.9647,1.798,1.7119,1.6154,1.5794,1.6812,1.7001,1.7845,2.0453,2.1073,0.0,0.0,0.0,0.0,2.6691,2.9882,3.2295,3.2975,3.4839,3.6019,3.6019,3.6019,3.6019,3.6019,3.6062,3.6148,3.6251,3.6276,3.6301,3.6301,3.6301,3.6301,3.6301,3.6301,3.6301,3.6301,3.6301,3.6385,3.6492,3.6385,3.6367,3.6492,3.6343,3.6301,3.6301,3.6301,3.6301,3.6301,3.6301,3.6301,3.6343,3.6451,3.6678,3.6939,3.7208,3.765,3.799,3.7289,3.6742,3.6038,3.4642,3.4036,3.386,3.386,3.3868,3.3895,3.3947,3.4023,3.4099,3.4124,3.4173,3.4221,3.4316,3.4473,3.4626,3.4771,3.4889,3.5072,3.5258,3.5289,3.5339,3.5493,3.5493,3.5493,3.5493,3.5493,3.552,3.5522,3.5596,3.565,3.5688,3.5749,3.5814,3.5934,3.5934,3.5947,3.5991,3.5991,3.5991,3.5991,3.5991,3.5991,3.5994,3.5935,3.5898,2.007,2.122,2.2111,2.1546,2.1109,2.0645,1.9913,1.8672,1.7504,1.7007,1.6524,1.6439,1.7233,1.7387,1.8027,1.9958,2.0773,2.1566,0.0,0.0,0.0,2.7329,3.0609,3.2906,3.3179,3.4832,3.5844,3.5844,3.5888,3.5888,3.5844,3.5932,3.6036,3.6036,3.6191,3.6276,3.6276,3.6301,3.6301,3.6301,3.6301,3.6301,3.6301,3.6301,3.6301,3.6301,3.6301,3.6301,0.0,3.6301,3.6301,3.6301,3.6301,3.6301,3.6301,3.6301,3.6301,3.6301,3.6301,3.6451,3.6719,3.686,3.734,3.7716,3.6942,3.6272,3.5532,3.4174,3.3807,3.3807,3.3807,3.3815,3.3868,3.3921,3.3998,3.4074,3.4124,3.4173,3.4197,3.4197,3.434,3.4473,3.4583,3.471,3.487,3.5054,3.5141,3.5242,3.5369,3.5446,3.5493,3.5493,3.5493,3.5493,3.5493,3.5547,3.5581,3.5607,3.5631,3.5721,3.5889,3.5908,3.5934,3.5991,3.5991,3.5991,3.5991,3.5991,3.5991,3.5994,3.597,3.5934,0.0,1.923,1.9587,1.9901,1.9651,1.9063,1.8126,1.7377,0.0,1.6966,1.6963,1.7198,1.7954,1.809,1.8163,1.8383,1.9676,2.0855,2.155,2.3596,2.586,2.8049,3.0156,3.1732,3.2394,3.438,3.5622,3.5622,3.5728,3.5728,3.5622,3.5844,3.5888,3.5773,3.6036,3.6182,3.6182,3.6233,3.6301,3.6301,3.6301,3.6301,3.6301,3.6301,3.6301,3.6301,3.6301,3.6301,3.6301,3.6301,3.6301,3.6301,3.6301,3.6301,3.6301,3.6301,3.6301,3.6301,3.6301,3.6301,3.6385,3.6781,3.7117,3.7255,3.6524,3.5692,3.4842,3.4064,3.3817,3.3762,3.3788,3.3807,3.3815,3.3947,3.3998,3.4023,3.4148,3.4197,3.4197,3.4197,3.4197,3.4269,3.4517,3.4561,3.4647,3.485,3.5037,3.5176,3.5209,3.5354,3.5493,3.5493,3.5493,3.5493,3.5493,3.5493,3.5541,3.5585,3.5596,3.567,3.5872,3.5883,3.5929,3.5988,3.5991,3.5991,3.5991,3.5991,3.5991,3.5991,3.5991,3.5991,1.5393,0.0,1.7294,1.6235,1.6323,1.6755,0.0,1.6935,1.6969,0.0,0.0,0.0,1.8705,1.8842,1.9423,2.1191,2.2251,2.3106,2.3813,2.5834,2.8049,3.0217,3.1907,3.2991,3.316,3.4641,3.5622,3.5622,3.5622,3.5622,3.5622,3.5667,3.5667,3.5667,3.5817,3.5949,3.6036,3.6062,3.6062,3.6062,3.6062,3.6105,3.6208,3.6208,3.6233,3.6301,3.6301,3.6301,3.6301,3.6301,3.6301,3.6301,3.6301,3.6301,3.6301,3.6301,3.6301,3.6301,3.6301,3.6301,3.6385,3.6781,3.6552,3.6156,3.6256,3.5754,3.5022,3.448,3.3898,3.3465,3.3734,3.3807,3.3807,3.3842,3.3895,3.3947,3.4023,3.4099,3.4148,3.4197,3.4197,3.4221,3.4269,3.4293,3.4386,3.4626,3.471,3.4851,3.5157,3.5242,3.5339,3.5493,3.5493,3.5493,3.5493,3.5493,3.552,3.5509,3.5509,3.5565,3.566,3.5713,3.5807,3.5929,3.5978,3.5991,3.5991,3.5991,3.5991,3.5991,3.5991,3.5991,1.3922,1.5441,1.6775,1.626,1.6192,1.6427,1.7114,0.0,0.0,0.0,0.0,0.0,0.0,0.0,1.9658,2.1581,2.2406,2.3536,2.5645,2.7368,2.9076,3.07,3.1884,3.2705,3.3041,3.3901,3.4764,3.5543,3.5379,3.5316,3.5577,3.5622,3.5622,3.5622,3.5667,3.5756,3.5905,3.5975,3.6019,3.6019,3.6019,3.6019,3.6122,3.6122,3.6165,3.6233,3.6233,3.6276,3.6301,3.6301,3.6301,3.6301,3.6301,3.6301,3.6301,3.6301,3.6301,3.6301,3.6301,3.6301,3.6343,3.6557,3.6319,3.6028,3.6208,3.5568,3.4623,3.4357,3.3803,3.335,3.3522,3.368,3.3807,3.3842,3.3868,3.3921,3.3998,3.4023,3.4074,3.4148,3.4148,3.4173,3.4197,3.4197,3.4245,3.4386,3.4517,3.471,3.5019,3.5141,3.5273,3.5479,3.5493,3.5493,3.5493,3.5493,3.5493,3.5493,3.5493,3.5522,3.5607,3.5621,3.5741,3.5908,3.5938,3.5978,3.5991,3.5991,3.5991,3.5991,3.5991,3.5991,1.3667,1.535,1.7092,1.7322,1.7084,1.6961,1.7642,0.0,0.0,0.0,0.0,0.0,0.0,1.9309,0.0,0.0,0.0,2.3653,2.7098,2.839,2.9314,3.027,3.1037,3.1764,3.2519,3.2831,3.3661,3.522,3.4927,3.4927,3.5424,3.5424,3.5424,3.5577,3.5515,3.5577,3.5773,3.5888,3.5932,3.5932,3.5932,3.5932,3.5975,3.5975,3.6036,3.6165,3.6165,3.6251,3.6301,3.6301,3.6301,3.6301,3.6301,3.6301,3.6301,3.6301,3.6301,3.6301,3.6301,3.6301,3.6301,3.6301,3.6301,3.6301,3.6301,3.5266,3.4094,3.4023,3.3591,3.3154,3.3214,3.3465,3.3734,3.3788,3.3842,3.3895,3.3972,3.3972,3.3998,3.4074,3.4099,3.4124,3.4173,3.4197,3.4197,3.4197,3.4386,3.4626,3.4831,3.5037,3.5226,3.5432,3.5493,3.5493,3.5493,3.5493,3.5493,3.5493,3.5493,3.5522,3.5607,3.5607,3.5688,3.5908,3.5908,3.5934,3.5991,3.5991,3.5991,3.5991,3.5991,3.5991,1.4919,1.6445,1.7241,1.546,1.5886,1.6902,1.7642,0.0,0.0,0.0,0.0,0.0,0.0,2.1155,2.1973,0.0,2.4166,2.6105,2.8184,2.8648,2.9039,2.9827,3.0542,3.1242,3.1974,3.2594,3.3372,3.417,3.4185,3.4382,3.488,3.448,3.4673,3.5577,3.5178,3.5178,3.5622,3.5667,3.5667,3.5667,3.5667,3.5711,3.5817,3.5817,3.5905,3.6019,3.6165,3.6225,3.6208,3.6276,3.6301,3.6301,3.6301,3.6301,3.6301,3.6301,3.6301,3.6301,3.6301,3.6301,3.6301,3.6301,3.6301,3.6301,3.6301,3.5266,3.4098,3.4094,3.3298,3.2537,3.2795,3.3124,3.3379,3.3379,3.3606,3.3815,3.3895,3.3921,3.3947,3.3998,3.4074,3.4099,3.4124,3.4173,3.4197,3.4197,3.4245,3.434,3.4604,3.4831,3.5019,3.5226,3.5403,3.5493,3.5493,3.5493,3.5493,3.5493,3.5493,3.5522,3.5607,3.5607,3.5688,3.5908,3.5908,3.5934,3.5991,3.5991,3.5991,3.5991,3.5991,3.5991,1.4243,1.5764,1.6948,1.5933,1.7101,1.8691,1.9452,0.0,0.0,0.0,0.0,0.0,0.0,0.0,2.2396,2.3719,2.5811,2.7486,2.8276,2.8555,2.8855,2.9358,2.971,3.019,3.0894,3.1037,3.1706,3.3323,3.2867,3.3029,3.4284,3.3811,3.3828,3.4721,3.448,3.4625,3.5178,3.5178,3.5316,3.5622,3.5622,3.5622,3.5667,3.5667,3.5773,3.5905,3.6036,3.6122,3.6225,3.6259,3.6301,3.6301,3.6301,3.6301,3.6301,3.6301,3.6301,3.6301,3.6301,3.6301,3.6301,3.6301,3.6301,3.6232,3.5818,3.4938,3.399,3.3559,3.2889,3.2352,3.2504,3.2781,3.3032,3.3032,3.3154,3.3332,3.3522,3.3578,3.3662,3.3895,3.3998,3.4049,3.4099,3.4148,3.4197,3.4197,3.4197,3.4293,3.458,3.4668,3.487,3.5176,3.5273,3.5369,3.5493,3.5493,3.5493,3.5493,3.5493,3.5515,3.554,3.554,3.5615,3.5743,3.5772,3.5846,3.5942,3.5985,3.5991,3.5991,3.5991,3.5991,1.382,1.5276,1.6783,1.7139,0.0,2.0035,2.1194,0.0,0.0,0.0,0.0,0.0,0.0,2.1972,2.3096,2.4916,2.6701,2.7899,2.7936,2.8224,2.8522,2.8872,2.8967,2.9234,2.9926,2.9645,3.0226,3.2254,3.151,3.1684,3.3287,3.2737,3.2803,3.3761,3.3627,3.3957,3.4769,3.4769,3.5068,3.5622,3.5622,3.5622,3.5622,3.5622,3.5667,3.5773,3.5888,3.5993,3.6122,3.6191,3.6259,3.6276,3.6276,3.6301,3.6301,3.6301,3.6301,3.6301,3.6301,3.6301,3.6301,3.6301,3.6301,3.6197,3.5628,3.4818,3.3955,3.3352,3.2713,3.2179,3.2179,3.2437,3.2666,3.2666,3.2731,3.2858,3.3124,3.3243,3.3408,3.3689,3.3868,3.3998,3.4074,3.4124,3.4173,3.4197,3.4197,3.4269,3.4473,3.4561,3.471,3.5037,3.5141,3.5273,3.5493,3.5493,3.5493,3.5493,3.5493,3.5493,3.5493,3.5493,3.5534,3.5607,3.565,3.5745,3.5908,3.5947,3.5985,3.5991,3.5991,3.5991,1.5071,1.6072,1.7037,1.8386,1.886,0.0,2.1735,2.16,0.0,2.3252,0.0,0.0,0.0,2.4098,2.5188,2.6193,2.6532,2.6814,2.738,2.7489,2.7736,2.8367,2.8444,2.8722,2.9385,2.9412,2.9704,3.0531,3.0495,3.0752,3.1367,3.09,3.1369,3.3032,3.257,3.3124,3.4769,3.4769,3.5068,3.5622,3.5622,3.5622,3.5622,3.5622,3.5622,3.5622,3.5773,3.5817,3.5817,3.5975,3.6062,3.6225,3.6225,3.6251,3.6301,3.6301,3.6301,3.6301,3.6301,3.6301,3.6301,3.6301,3.6301,3.6284,3.6232,3.5232,3.4076,3.4007,3.2976,3.1837,3.1837,3.2091,3.2352,3.2352,3.2586,3.2795,3.2827,3.3093,3.3321,3.335,3.3634,3.3921,3.3998,3.4074,3.4124,3.4197,3.4197,3.4197,3.4221,3.445,3.4604,3.4626,3.4982,3.5273,3.5493,3.5493,3.546,3.5412,3.546,3.5493,3.5493,3.5493,3.5534,3.5607,3.5599,3.5697,3.5908,3.5894,3.5938,3.5991,3.5991,3.5991,1.4091,1.5445,1.6953,1.7963,1.891,0.0,0.0,2.2257,2.2592,2.3972,2.3869,0.0,0.0,0.0,2.5287,2.6014,2.6557,2.6999,2.735,2.7396,2.7642,2.8319,2.8411,2.8504,2.8765,2.8781,2.9073,2.975,2.9396,2.962,3.0658,3.0114,3.0293,3.1353,3.1181,3.175,3.3174,3.3519,3.3989,3.4625,3.4927,3.4927,3.4625,3.4975,3.5115,3.5131,3.5622,3.5817,3.5817,3.5932,3.6079,3.6208,3.6251,3.6276,3.6301,3.6301,3.6301,3.6301,3.6301,3.6301,3.6301,3.6301,3.6301,3.6128,3.5197,3.4525,3.3886,3.2938,3.2248,3.18,3.18,3.1893,3.1984,3.1984,3.2091,3.2249,3.2437,3.2603,3.2781,3.3232,3.3465,3.3643,3.3895,3.3998,3.4074,3.4124,3.4148,3.4148,3.4197,3.4293,3.4427,3.4583,3.4964,3.5273,3.5493,3.5493,3.546,3.5412,3.546,3.546,3.5379,3.5412,3.5422,3.5405,3.5488,3.559,3.565,3.5827,3.5919,3.5938,3.5981,3.5991,1.3735,1.5191,1.6885,0.0,0.0,0.0,2.231,2.2815,2.3362,2.4725,2.458,2.4278,2.451,0.0,2.5413,2.5575,2.6198,2.6812,2.7056,2.7257,2.7642,2.8319,2.8411,2.8411,2.8411,2.8411,2.8596,2.9058,2.8673,2.8812,2.9735,2.935,2.9396,3.0089,3.0104,3.0654,3.1871,3.2254,3.2642,3.3124,3.3519,3.3795,3.402,3.4347,3.4601,3.4816,3.547,3.5728,3.5711,3.5844,3.5932,3.6079,3.6233,3.6216,3.6216,3.6216,3.6216,3.6216,3.6216,3.6216,3.6276,3.6276,3.6259,3.6111,3.5094,3.4456,3.3869,3.2817,3.2179,3.18,3.18,3.18,3.18,3.18,3.18,3.1856,3.2091,3.2214,3.2454,3.2908,3.3124,3.3314,3.3689,3.3797,3.3902,3.4049,3.4099,3.4148,3.4173,3.4197,3.4293,3.4539,3.487,3.5141,3.532,3.5398,3.5412,3.5369,3.5412,3.5398,3.5296,3.533,3.535,3.5315,3.5386,3.5463,3.5492,3.5732,3.5859,3.5864,3.5951,3.601,1.4494,1.5578,0.0,0.0,0.0,0.0,2.3071,2.341,2.3944,2.5743,2.6104,2.5852,2.5075,2.5556,2.5852,2.5036,2.5462,2.6005,2.6377,2.698,2.7642,2.8319,2.8411,2.8411,2.8411,2.8411,2.8411,2.8411,2.8411,2.8411,2.8411,2.8411,2.8704,2.9381,2.9396,2.9956,3.116,3.1209,3.1209,3.116,3.1209,3.2171,3.3987,3.382,3.4121,3.48,3.5362,3.5605,3.5605,3.5622,3.5667,3.5817,3.6079,3.6122,3.6019,3.6019,3.6019,3.6019,3.6019,3.6079,3.6225,3.6225,3.6233,3.6284,3.6284,3.5249,3.4076,3.4059,3.2972,3.18,3.18,3.18,3.18,3.18,3.18,3.18,3.18,3.2055,3.2283,3.2283,3.2553,3.2921,3.3332,3.3458,3.3597,3.3947,3.4124,3.4173,3.4124,3.4173,3.4269,3.4473,3.4691,3.4851,3.498,3.5203,3.5285,3.5293,3.5304,3.53,3.53,3.53,3.53,3.53,3.53,3.5369,3.5495,3.5639,3.5732,3.5807,3.5942,3.6004,1.4494,1.5967,0.0,1.8386,0.0,0.0,0.0,2.4372,0.0,0.0,2.5974,2.6054,2.6309,2.632,2.632,2.6362,2.6295,2.6437,2.7041,2.7272,2.7642,2.8319,2.8411,2.8411,2.8411,2.8411,2.8411,2.8411,2.8411,2.8411,2.8411,2.8411,2.8488,2.8704,2.8704,2.9061,2.994,3.0303,3.0539,3.0654,3.0539,3.0824,3.1487,3.2176,3.2555,3.2847,3.4203,3.4827,3.4861,3.5508,3.5773,3.5817,3.5993,3.6036,3.6019,3.6019,3.6019,3.6019,3.6019,3.6019,3.6079,3.6079,3.5728,3.528,3.4765,3.4002,3.3145,3.2628,3.2145,3.18,3.18,3.18,3.18,3.18,3.18,3.18,3.18,3.1856,3.202,3.2249,3.2369,3.2619,3.3214,3.3332,3.3476,3.3868,3.3998,3.4099,3.4173,3.4197,3.4316,3.4604,3.4691,3.487,3.5168,3.527,3.5289,3.5308,3.5308,3.5273,3.5223,3.5273,3.5273,3.5223,3.5273,3.532,3.5364,3.5585,3.5708,3.5724,3.5914,3.5994,1.5643,0.0,0.0,1.9536,2.1617,2.3748,2.5067,0.0,0.0,0.0,2.6012,2.6275,2.6694,2.6676,2.6676,2.6764,2.6776,2.6934,2.7334,2.7579,2.7902,2.8365,2.8348,2.8299,2.8299,2.8299,2.8299,2.8266,2.8266,2.8266,2.8266,2.8299,2.8299,2.8299,2.8348,2.8596,2.9012,2.9323,2.9526,2.9612,2.9526,2.9541,2.9627,3.0719,3.1357,3.1694,3.2974,3.3656,3.3956,3.4757,3.52,3.5424,3.5543,3.5588,3.5543,3.5543,3.5543,3.5543,3.5756,3.5888,3.5881,3.5591,3.5266,3.4837,3.4099,3.3385,3.2758,3.2311,3.2004,3.18,3.18,3.18,3.18,3.18,3.18,3.18,3.18,3.18,3.1856,3.2055,3.2091,3.2283,3.2813,3.3032,3.3243,3.3578,3.3842,3.4049,3.4173,3.4197,3.4269,3.4476,3.4498,3.4588,3.4756,3.5088,3.5258,3.5258,3.5261,3.5226,3.5209,3.5226,3.5226,3.5209,3.5226,3.5261,3.5261,3.5526,3.5659,3.5679,3.5866,3.5966,1.7299,0.0,0.0,2.0889,2.2446,0.0,2.6151,2.6315,2.6049,2.599,0.0,2.6413,2.6497,2.6798,2.6945,2.6639,2.7088,2.7488,2.7488,2.79,2.8235,2.8348,2.825,2.8186,2.8186,2.8186,2.8137,2.802,2.802,2.802,2.802,2.8103,2.8186,2.8186,2.8299,2.8396,2.8396,2.8411,2.8411,2.8411,2.8411,2.8411,2.8427,2.9579,3.0513,3.1212,3.1676,3.227,3.2983,3.3614,3.4184,3.4638,3.4847,3.4816,3.4721,3.4721,3.4721,3.4816,3.5249,3.552,3.5491,3.4788,3.4644,3.4558,3.3874,3.322,3.2698,3.2698,3.2259,3.1783,3.18,3.18,3.18,3.18,3.18,3.18,3.18,3.18,3.18,3.18,3.18,3.1893,3.2249,3.2601,3.2952,3.322,3.3662,3.4023,3.4173,3.4197,3.4197,3.4197,3.4197,3.4148,3.3998,3.4734,3.5209,3.5209,3.5209,3.5209,3.5209,3.5209,3.5209,3.5209,3.5209,3.5209,3.5209,3.5457,3.5588,3.5591,3.5788,3.5929,1.6614,1.785,0.0,0.0,2.3613,2.5227,2.5678,2.5689,2.5772,2.6253,2.593,2.5889,2.6995,2.7273,2.7489,2.7888,2.8088,2.8132,2.8021,2.8143,2.8186,2.8118,2.8054,2.8054,2.8054,2.8054,2.8005,2.802,2.802,2.802,2.802,2.8005,2.8054,2.8054,2.8186,2.8235,2.8235,2.8348,2.8411,2.8411,2.8411,2.8411,2.8411,2.9077,2.9954,3.0981,3.1073,3.157,3.2284,3.2932,3.3306,3.3453,3.4007,3.4185,3.4185,3.4185,3.4185,3.4153,3.4107,3.4155,3.4084,3.3777,3.3396,3.3002,3.2832,3.2332,3.1794,3.1836,3.1754,3.1671,3.1746,3.18,3.18,3.18,3.18,3.18,3.18,3.18,3.18,3.18,3.18,3.1893,3.2249,3.2454,3.2813,3.355,3.3762,3.3895,3.4023,3.4124,3.4197,3.4197,3.4197,3.4099,3.3868,3.4675,3.5209,3.5209,3.5209,3.5209,3.5209,3.5209,3.5209,3.5209,3.5209,3.5209,3.5209,3.535,3.5495,3.5599,3.5704,3.5814,0.0,0.0,0.0,2.2615,0.0,2.5242,2.5926,2.5908,2.5914,2.6237,2.579,2.5641,2.6688,2.6903,2.7134,2.7716,2.7808,2.7883,2.8107,2.8039,2.7989,2.802,2.7955,2.7905,2.7905,2.7905,2.7905,2.779,2.779,2.779,2.779,2.7855,2.7905,2.7905,2.8039,2.8088,2.8088,2.8152,2.825,2.8299,2.8299,2.8348,2.8411,2.8653,2.9108,2.9721,2.9721,3.0117,3.0799,3.139,3.2031,3.2672,3.299,3.3326,3.3614,3.3614,3.3614,3.3604,3.3404,3.335,3.3264,3.2717,3.2345,3.2075,3.1941,3.1669,3.1406,3.1466,3.1542,3.1617,3.1709,3.1746,3.18,3.18,3.18,3.18,3.18,3.18,3.18,3.18,3.18,3.1873,3.202,3.2126,3.2537,3.3652,3.3807,3.3834,3.3895,3.3972,3.4049,3.4197,3.4099,3.3947,3.3815,3.4237,3.4715,3.5157,3.5209,3.5209,3.5209,3.5209,3.5209,3.5209,3.5209,3.5209,3.5209,3.5321,3.5432,3.5507,3.5631,3.5745,0.0,0.0,2.012,2.3613,2.4608,0.0,2.6303,2.635,2.6052,2.5908,2.556,2.5419,2.6114,2.6224,2.6381,2.6949,2.7009,2.7191,2.7746,2.7674,2.772,2.789,2.784,2.779,2.779,2.779,2.774,2.7625,2.7625,2.7625,2.7625,2.7725,2.779,2.779,2.7905,2.7955,2.7955,2.8005,2.8054,2.8186,2.8186,2.8284,2.8411,2.8411,2.8411,2.8411,2.8411,2.8719,2.9243,2.9812,3.073,3.1719,3.1954,3.2379,3.2919,3.2919,3.2919,3.2846,3.2593,3.2515,3.2353,3.1555,3.1302,3.1229,3.1039,3.1038,3.1162,3.1179,3.1372,3.1542,3.1504,3.1596,3.1688,3.1654,3.1671,3.1709,3.18,3.18,3.18,3.18,3.18,3.18,3.18,3.18,3.2179,3.3302,3.3634,3.3807,3.3807,3.3807,3.3895,3.4099,3.3921,3.3807,3.3807,3.3807,3.4136,3.4926,3.5124,3.5209,3.5209,3.5209,3.5209,3.5209,3.5209,3.5209,3.5209,3.5311,3.5378,3.5405,3.5591,3.5685,0.0,0.0,2.1404,0.0,2.4983,2.5562,0.0,0.0,2.5908,2.5198,2.5021,2.5186,2.5837,2.5629,2.5571,2.6214,2.626,2.635,2.6889,2.6931,2.7094,2.7615,2.7625,2.7625,2.7625,2.7625,2.7625,2.7625,2.7625,2.7625,2.7625,2.7625,2.7625,2.7625,2.774,2.784,2.784,2.7955,2.802,2.8005,2.8137,2.8284,2.8411,2.8411,2.8411,2.8411,2.8411,2.8458,2.8581,2.9265,2.9604,2.9882,3.1041,3.1535,3.1612,3.1612,3.1612,3.1533,3.0746,3.0482,3.045,3.0154,3.0027,3.0011,3.0,3.0267,3.0642,3.0666,3.1004,3.1257,3.0965,3.1078,3.1252,3.105,3.1184,3.1466,3.1763,3.18,3.18,3.18,3.18,3.18,3.18,3.18,3.1856,3.2055,3.3045,3.3807,3.3807,3.3807,3.3815,3.3842,3.3815,3.3807,3.3807,3.3807,3.3842,3.3979,3.4735,3.5209,3.5209,3.5209,3.5209,3.5209,3.5209,3.5209,3.5209,3.5207,3.5281,3.5405,3.5554,3.5641,1.6122,1.8562,2.1022,0.0,2.412,2.463,2.5614,2.5832,2.5762,2.5607,2.5389,2.5178,2.503,2.4791,2.4823,2.5452,2.5439,2.5515,2.6053,2.6459,2.6621,2.6482,2.6797,2.6871,2.6512,2.6811,2.7021,2.7021,2.7415,2.7625,2.7625,2.7625,2.7625,2.7625,2.7675,2.7675,2.7675,2.774,2.779,2.7905,2.8088,2.8235,2.8299,2.8348,2.8411,2.8411,2.8411,2.8411,2.8427,2.8719,2.9073,2.9473,3.0058,3.0505,3.0843,3.0843,3.0843,3.0705,2.9971,2.9728,2.9652,2.9496,2.9393,2.9438,2.9705,2.9924,3.0123,3.0123,3.0318,3.0468,3.0344,3.0444,3.0625,3.0747,3.0931,3.1223,3.1709,3.18,3.18,3.18,3.18,3.18,3.18,3.18,3.18,3.18,3.23,3.2952,3.3707,3.3807,3.3807,3.3807,3.3807,3.3807,3.3807,3.3807,3.3807,3.3807,3.4675,3.5124,3.4982,3.5124,3.5209,3.5209,3.5209,3.5209,3.5209,3.5209,3.5223,3.5296,3.5495,3.5609,0.0,0.0,1.9715,2.2181,2.297,2.3494,0.0,0.0,2.5427,2.576,2.5484,2.5029,2.4502,2.4276,2.4292,2.4694,2.4594,2.4702,2.527,2.5779,2.5974,2.5644,2.6033,2.6153,2.5659,2.6048,2.6408,2.6572,2.7036,2.7395,2.761,2.7625,2.7625,2.7625,2.7625,2.7625,2.7625,2.7625,2.7675,2.779,2.7989,2.8137,2.8186,2.8299,2.8348,2.8411,2.8411,2.8411,2.8411,2.8411,2.8704,2.9181,2.935,2.972,3.0166,3.0166,3.0166,3.0074,2.9396,2.9166,2.9123,2.8951,2.8904,2.9013,2.9319,2.9544,2.9617,2.9617,2.9821,2.9962,2.9745,2.9789,2.9962,3.0251,3.0567,3.0971,3.1654,3.18,3.18,3.18,3.18,3.18,3.18,3.18,3.18,3.18,3.18,3.2179,3.3166,3.3578,3.3807,3.3807,3.3807,3.3807,3.3807,3.3807,3.3807,3.3807,3.4572,3.4963,3.4811,3.5054,3.5209,3.5209,3.5209,3.5209,3.5209,3.5209,3.5209,3.5209,3.5432,3.5543,0.0,1.6084,0.0,2.0456,2.1765,0.0,0.0,2.4574,2.4652,2.4978,2.4642,2.4361,2.4729,2.4343,2.404,2.4028,2.3842,2.3894,2.4537,2.4672,2.4956,2.554,2.563,2.5644,2.5615,2.5644,2.5914,2.6542,2.6617,2.6916,2.7595,2.7625,2.7625,2.7625,2.7625,2.7625,2.7625,2.7625,2.7675,2.779,2.779,2.794,2.8186,2.8186,2.8299,2.8411,2.8411,2.8411,2.8411,2.8411,2.8427,2.8519,2.9166,2.9443,2.9458,2.9458,2.9458,2.9366,2.8688,2.8458,2.8458,2.846,2.8444,2.8444,2.8444,2.8779,2.9136,2.9136,2.9705,3.0113,2.9348,2.9257,2.9332,2.9287,2.9892,3.0764,3.1634,3.18,3.18,3.18,3.18,3.18,3.18,3.18,3.18,3.18,3.18,3.1837,3.1893,3.3014,3.3807,3.3807,3.3807,3.3807,3.3807,3.3807,3.3807,3.3807,3.426,3.4612,3.4772,3.5054,3.5209,3.5209,3.5209,3.5209,3.5209,3.5209,3.5209,3.519,3.5336,3.5405,0.0,0.0,0.0,1.8992,2.0194,2.1191,2.2676,2.3414,2.3894,2.4215,2.396,2.3583,2.3463,2.3677,2.3882,2.3882,2.3739,2.3684,2.3924,2.4358,2.4507,2.4343,2.4717,2.4807,2.4358,2.4717,2.5076,2.5315,2.5719,2.6063,2.6303,2.6318,2.6497,2.6931,2.6946,2.7141,2.7625,2.7625,2.7625,2.7675,2.774,2.789,2.8054,2.8137,2.8284,2.8411,2.8411,2.8411,2.8411,2.8411,2.8411,2.8427,2.8673,2.8765,2.8765,2.8765,2.8765,2.8735,2.8488,2.8411,2.8411,2.8411,2.8411,2.8411,2.8411,2.8541,2.8668,2.8668,2.8842,2.9013,2.87,2.87,2.8779,2.9104,2.9935,3.0723,3.1145,3.1524,3.18,3.18,3.18,3.18,3.18,3.18,3.18,3.18,3.18,3.18,3.18,3.2214,3.2519,3.2519,3.3302,3.3807,3.3807,3.3807,3.3807,3.3807,3.416,3.4439,3.4612,3.4851,3.5072,3.5209,3.5209,3.5209,3.5209,3.5209,3.5209,3.519,3.534,3.5405,1.4155,0.0,0.0,0.0,0.0,1.932,2.1614,2.2101,2.2396,2.3433,2.3226,2.2828,2.2796,2.297,2.3167,2.342,2.3546,2.3595,2.3595,2.3999,2.4118,2.3655,2.3999,2.4103,2.364,2.4014,2.4373,2.4567,2.5031,2.5375,2.56,2.5615,2.5914,2.6572,2.6587,2.6901,2.761,2.7625,2.7625,2.7625,2.7675,2.779,2.7955,2.8039,2.8137,2.825,2.8299,2.8348,2.8411,2.8411,2.8411,2.8411,2.8411,2.8411,2.8411,2.8411,2.8411,2.8411,2.8411,2.8411,2.8411,2.8411,2.8411,2.8411,2.8411,2.8411,2.8411,2.8411,2.8411,2.8411,2.8411,2.8411,2.8525,2.9058,2.9761,3.0402,3.0818,3.1393,3.18,3.18,3.18,3.18,3.18,3.18,3.18,3.18,3.18,3.18,3.18,3.18,3.18,3.18,3.2983,3.3807,3.3807,3.3807,3.3807,3.3807,3.4105,3.4325,3.4416,3.4632,3.487,3.5089,3.5089,3.5124,3.5209,3.5209,3.5209,3.5209,3.5281,3.5196,0.0,0.0,0.0,0.0,0.0,0.0,2.0989,2.0606,2.0141,2.2605,2.2411,2.2036,2.2802,2.2262,2.1914,2.2596,2.323,2.3565,2.3565,2.3595,2.3595,2.3595,2.3595,2.3595,2.3595,2.3595,2.3879,2.4507,2.4552,2.4821,2.551,2.557,2.5869,2.6512,2.6572,2.6901,2.758,2.761,2.7625,2.7625,2.7625,2.7675,2.779,2.779,2.7855,2.802,2.8137,2.8284,2.8411,2.8411,2.8411,2.8411,2.8411,2.8411,2.8411,2.8411,2.8411,2.8411,2.8411,2.8411,2.8411,2.8411,2.8411,2.8411,2.8411,2.8411,2.8411,2.8411,2.8411,2.8411,2.8411,2.8411,2.8525,2.9074,2.9345,2.9772,3.064,3.1355,3.18,3.18,3.18,3.18,3.18,3.18,3.18,3.18,3.18,3.18,3.18,3.18,3.18,3.18,3.2952,3.3734,3.378,3.3762,3.3807,3.3807,3.4105,3.425,3.4197,3.4394,3.4614,3.487,3.4889,3.4963,3.5133,3.519,3.5209,3.5209,3.519,3.4772,1.3052,0.0,0.0,0.0,0.0,0.0,1.8021,1.8202,1.8599,2.0792,2.0429,2.0081,2.1243,2.1393,2.1333,2.1293,2.2229,2.2936,2.2936,2.331,2.3595,2.3595,2.3595,2.3595,2.3595,2.3595,2.3684,2.3864,2.3879,2.3969,2.4148,2.4627,2.4986,2.5166,2.6093,2.6677,2.6856,2.7335,2.7625,2.7625,2.7625,2.7675,2.779,2.779,2.7855,2.802,2.8054,2.8152,2.8235,2.8348,2.8411,2.8411,2.8411,2.8411,2.8411,2.8411,2.8411,2.8411,2.8411,2.8411,2.8411,2.8411,2.8411,2.8411,2.8411,2.8411,2.8411,2.8411,2.8411,2.8411,2.8411,2.8411,2.8444,2.8573,2.9058,2.9524,2.9601,3.0747,3.18,3.18,3.18,3.18,3.18,3.18,3.18,3.18,3.18,3.18,3.18,3.18,3.18,3.18,3.2144,3.2619,3.3291,3.3368,3.3484,3.378,3.3895,3.4023,3.4197,3.425,3.418,3.3961,3.4586,3.4393,3.3379,3.4617,3.5209,3.519,3.4598,3.4228,0.0,0.0,0.0,0.0,0.0,0.0,1.7626,1.7453,1.7445,1.9679,1.9528,1.9276,2.0226,2.0353,2.0294,2.0302,2.1171,2.1949,2.2218,2.2577,2.2802,2.2802,2.3041,2.3206,2.3206,2.3445,2.3595,2.3595,2.3595,2.3595,2.3595,2.3984,2.4328,2.4567,2.5375,2.6033,2.6587,2.6976,2.7305,2.7625,2.7625,2.7625,2.774,2.774,2.774,2.784,2.7905,2.7955,2.8039,2.8201,2.8314,2.8411,2.8266,2.825,2.8299,2.825,2.825,2.8299,2.8299,2.8348,2.8411,2.8411,2.8411,2.8411,2.8411,2.8411,2.8411,2.8411,2.8411,2.8411,2.8411,2.8411,2.8411,2.8411,2.8732,2.8982,2.8842,3.036,3.18,3.18,3.18,3.18,3.18,3.18,3.18,3.18,3.18,3.18,3.18,3.18,3.18,3.18,3.18,3.2179,3.3129,3.325,3.3408,3.378,3.3807,3.3868,3.4023,3.4023,3.386,3.3468,3.3959,3.3733,3.2691,3.4388,3.5037,3.4674,3.3853,3.3261,0.0,0.0,0.0,0.0,1.569,0.0,1.8266,1.7363,1.6475,1.8677,1.886,1.8788,1.9276,1.9154,1.9063,1.9361,2.0025,2.0775,2.1485,2.165,2.1695,2.1695,2.2218,2.2604,2.2604,2.3056,2.3415,2.349,2.3565,2.3595,2.3595,2.3595,2.3879,2.4448,2.4552,2.5196,2.6363,2.6437,2.6811,2.7505,2.7505,2.755,2.7625,2.7625,2.7625,2.7625,2.774,2.779,2.779,2.7905,2.8103,2.8314,2.8103,2.8054,2.8137,2.8054,2.8054,2.8186,2.8186,2.825,2.8363,2.8363,2.8363,2.8396,2.8396,2.8411,2.8411,2.8411,2.8411,2.8411,2.8411,2.8411,2.8411,2.8411,2.8411,2.8411,2.8411,3.0064,3.1634,3.1763,3.18,3.18,3.18,3.18,3.18,3.18,3.18,3.18,3.18,3.18,3.18,3.18,3.18,3.2144,3.3037,3.3202,3.3379,3.3734,3.3688,3.3678,3.3678,3.3587,3.3358,3.2999,3.2949,3.2845,3.2691,3.4292,3.4655,3.3834,3.2974,3.2138,0.0,0.0,1.6889,1.6466,1.6464,0.0,1.5519,1.5168,1.5254,1.6107,1.5951,1.5984,1.7152,1.7793,1.8003,1.7578,1.8581,1.9763,2.0775,2.1365,2.1695,2.1695,2.1814,2.1889,2.1889,2.1994,2.2278,2.2858,2.3325,2.3595,2.3595,2.3595,2.3655,2.3789,2.4343,2.4701,2.5016,2.554,2.6138,2.6782,2.6782,2.7066,2.7625,2.7625,2.7625,2.7625,2.7625,2.7675,2.779,2.7725,2.784,2.8054,2.8005,2.802,2.8069,2.802,2.802,2.8054,2.8054,2.8054,2.8069,2.8069,2.8152,2.8235,2.8235,2.8299,2.8411,2.8411,2.8411,2.8411,2.8411,2.8411,2.8411,2.8411,2.8411,2.8411,2.8411,2.938,3.0593,3.1596,3.18,3.18,3.18,3.18,3.18,3.18,3.18,3.18,3.18,3.18,3.18,3.18,3.18,3.1984,3.2454,3.2749,3.3032,3.3379,3.3049,3.2834,3.2834,3.221,3.1605,3.1064,3.0735,3.1282,3.2691,3.3738,3.3796,3.2936,3.2114,3.1637,1.7011,1.707,1.7314,1.7164,1.7019,0.0,0.0,1.5759,1.5771,1.6699,1.6144,1.5861,1.7077,1.7332,1.7309,1.7204,1.8408,1.9379,1.9444,2.0173,2.0692,2.0692,2.1006,2.1201,2.1201,2.15,2.1829,2.2158,2.2473,2.2802,2.3116,2.3131,2.3281,2.3595,2.3939,2.4283,2.4582,2.491,2.545,2.6093,2.6093,2.6437,2.7081,2.7081,2.726,2.7625,2.7625,2.7625,2.7675,2.7625,2.7675,2.779,2.779,2.784,2.7905,2.784,2.784,2.7905,2.7905,2.7955,2.802,2.802,2.8054,2.8088,2.8186,2.8299,2.8411,2.8411,2.8411,2.8411,2.8411,2.8411,2.8411,2.8411,2.8411,2.8411,2.8411,2.8826,2.947,3.0617,3.1351,3.18,3.18,3.18,3.18,3.18,3.18,3.18,3.18,3.18,3.18,3.18,3.18,3.1929,3.2283,3.2619,3.276,3.2712,3.2657,3.243,3.2027,3.1604,3.112,3.0516,3.0527,3.0807,3.1305,3.2241,3.2497,3.2076,3.1236,3.0854,1.7653,1.7501,1.7639,1.8084,1.7646,1.7141,0.0,0.0,0.0,1.7335,1.6654,1.6151,1.7081,1.6815,1.6546,1.6808,1.8214,1.8983,1.8146,1.8961,1.9542,1.9316,2.0055,2.0527,2.0407,2.0993,2.1428,2.15,2.1515,2.1799,2.2458,2.2649,2.2906,2.34,2.3535,2.3864,2.4373,2.4388,2.4762,2.542,2.542,2.5839,2.6587,2.6587,2.6946,2.7625,2.7625,2.7625,2.7625,2.7625,2.7625,2.7625,2.7625,2.7675,2.774,2.7625,2.7675,2.774,2.774,2.784,2.7905,2.7905,2.7955,2.8005,2.8137,2.8299,2.8348,2.8411,2.8411,2.8411,2.8411,2.8411,2.8411,2.8411,2.8411,2.8411,2.8411,2.8411,2.8684,2.9681,3.0918,3.18,3.18,3.18,3.18,3.18,3.18,3.18,3.18,3.18,3.18,3.18,3.18,3.1893,3.2179,3.2586,3.255,3.2047,3.2246,3.2008,3.1201,3.1017,3.0733,3.0275,3.064,3.0519,2.9888,3.0715,3.1168,3.1236,3.0529,3.0204,1.9325,1.9381,1.9215,1.8406,1.8594,1.8316,1.5722,0.0,1.5909,1.4869,0.0,1.4804,1.5163,0.0,0.0,1.4955,1.6654,1.7883,1.7535,1.8625,1.9052,1.7966,1.9258,1.9997,1.9351,1.9901,2.043,2.0782,2.075,2.1034,2.1769,2.2368,2.2753,2.2787,2.331,2.364,2.3714,2.3714,2.4059,2.4686,2.4686,2.539,2.6587,2.6587,2.6946,2.7625,2.7625,2.7625,2.7625,2.7625,2.7625,2.7625,2.7625,2.7625,2.7625,2.7625,2.7625,2.7625,2.7625,2.7625,2.7625,2.7625,2.774,2.789,2.8137,2.8186,2.8235,2.8348,2.8411,2.8411,2.8411,2.8411,2.8411,2.8411,2.8411,2.8411,2.8411,2.8411,2.8684,2.9681,3.0918,3.18,3.18,3.18,3.18,3.18,3.18,3.18,3.18,3.18,3.18,3.18,3.18,3.1837,3.1856,3.2419,3.2474,3.1706,3.1565,3.1182,3.0375,2.9659,2.9333,2.9442,2.9504,2.9645,2.9888,3.0016,3.0171,3.0338,3.0242,3.0204,1.9325,1.9199,1.8854,1.8318,1.8078,1.7605,1.6234,1.6072,1.6157,1.596,0.0,0.0,0.0,0.0,0.0,0.0,1.5967,1.6586,1.5921,1.7022,1.8091,1.8573,1.8768,1.8921,1.9078,1.9339,1.9764,2.036,1.9822,1.993,2.1066,2.1395,2.1889,2.2694,2.2936,2.3236,2.3595,2.3595,2.3744,2.4029,2.4029,2.4732,2.6019,2.6019,2.6587,2.7575,2.7255,2.71,2.7049,2.6707,2.6759,2.71,2.71,2.7306,2.7625,2.7625,2.7625,2.7625,2.7625,2.7625,2.7625,2.7625,2.7675,2.784,2.794,2.8088,2.8186,2.8284,2.8348,2.8411,2.8411,2.8411,2.8411,2.8411,2.8411,2.8411,2.8411,2.8411,2.8684,2.9681,3.0316,3.0918,3.1671,3.18,3.18,3.18,3.18,3.18,3.18,3.18,3.18,3.18,3.18,3.18,3.18,3.2249,3.2072,3.0986,3.034,2.9861,2.9531,2.9177,2.9044,2.9115,2.9249,2.9395,2.9551,2.9787,2.9937,3.0034,3.0142,3.0204,1.8898,1.8707,1.8408,1.8021,1.7485,1.6924,1.6437,1.6248,1.6347,1.6937,1.646,0.0,0.0,0.0,1.5431,1.5314,0.0,1.6142,1.5445,1.6055,1.6987,1.8127,1.8038,1.8177,1.8982,1.8778,1.8975,1.9802,1.8895,1.8912,2.0363,2.0617,2.1231,2.2368,2.2619,2.2981,2.3595,2.3595,2.3595,2.3595,2.3595,2.4208,2.5345,2.5345,2.6063,2.7305,2.6667,2.6509,2.6669,2.6068,2.6176,2.6683,2.6683,2.6997,2.7357,2.7524,2.7625,2.7625,2.7625,2.7625,2.7625,2.7625,2.7675,2.774,2.779,2.794,2.8088,2.8186,2.8284,2.8348,2.8411,2.8411,2.8411,2.8411,2.8411,2.8411,2.8411,2.8411,2.8763,2.9913,3.0316,3.0716,3.1634,3.18,3.18,3.18,3.18,3.18,3.18,3.18,3.18,3.18,3.18,3.18,3.18,3.1934,3.15,3.032,2.9388,2.8929,2.8994,2.8994,2.8994,2.8994,2.9138,2.923,2.9293,2.9589,2.9751,2.9822,3.0079,3.0204,1.8383,1.85,1.8295,1.7444,1.7214,1.688,1.5632,1.5777,1.631,1.6635,1.744,1.8192,1.8465,1.8227,1.7552,0.0,1.6605,0.0,0.0,1.6451,1.5855,1.5387,1.6795,1.8091,1.8837,1.8037,1.7883,1.8964,1.81,1.8189,1.9645,2.0348,2.1021,2.171,2.2338,2.2981,2.3595,2.3595,2.3595,2.3595,2.3595,2.3969,2.4612,2.4612,2.5375,2.6617,2.5979,2.6075,2.6669,2.6068,2.6176,2.6683,2.6683,2.6736,2.6788,2.7357,2.7625,2.7625,2.7625,2.7625,2.7625,2.7625,2.7625,2.7625,2.774,2.779,2.789,2.8137,2.8186,2.8235,2.8348,2.8411,2.8411,2.8411,2.8411,2.8411,2.8411,2.8411,2.8873,3.046,3.1295,3.1746,3.18,3.18,3.18,3.18,3.18,3.18,3.18,3.18,3.18,3.18,3.18,3.18,3.18,3.1463,3.0831,2.9863,2.9072,2.8718,2.8994,2.8994,2.8994,2.8994,2.9017,2.9093,2.9293,2.9314,2.9415,2.9626,3.0019,3.0204,1.7988,1.7828,1.7598,1.745,1.6844,1.6243,1.597,1.6053,1.6245,1.6339,1.6996,1.7635,1.7894,1.7652,1.7139,0.0,0.0,1.6532,0.0,1.446,1.4645,1.5436,1.6648,1.7551,1.7864,1.765,1.7739,1.8374,1.79,1.8019,1.8986,1.9675,2.0348,2.1021,2.168,2.2338,2.2981,2.3385,2.3595,2.3595,2.3595,2.3969,2.4582,2.4582,2.4921,2.5477,2.5271,2.5089,2.494,2.4759,2.5048,2.5591,2.5591,2.6028,2.6774,2.7357,2.7357,2.7049,2.7458,2.7625,2.7625,2.7625,2.7625,2.7625,2.7625,2.774,2.784,2.8005,2.8137,2.8235,2.8348,2.8411,2.8411,2.8411,2.8411,2.8411,2.8411,2.8411,2.8573,2.909,3.0608,3.18,3.18,3.18,3.18,3.18,3.18,3.18,3.18,3.18,3.18,3.18,3.18,3.18,3.18,3.1394,3.0786,2.9993,2.9547,2.9145,2.8737,2.8905,2.8994,2.8994,2.8994,2.9021,2.9093,2.9249,2.9334,2.9415,2.9681,2.9853,1.7557,1.7393,1.722,1.7287,1.676,1.6259,1.6326,1.6489,1.6646,1.6646,1.7417,1.8042,1.7914,1.7885,1.7578,0.0,0.0,0.0,0.0,1.3968,1.464,1.5112,1.5957,1.6753,1.743,1.6915,1.6866,1.7654,1.7387,1.7662,1.8657,1.9331,2.0004,2.0692,2.1126,2.1769,2.2709,2.3071,2.3385,2.3595,2.3595,2.3834,2.4224,2.4075,2.4217,2.4515,2.4334,2.42,2.4123,2.4081,2.4447,2.5005,2.5005,2.5439,2.619,2.6982,2.7152,2.71,2.7473,2.7625,2.7625,2.7625,2.7625,2.7625,2.7625,2.7675,2.774,2.7905,2.8054,2.8152,2.8299,2.8348,2.8411,2.8411,2.8411,2.8411,2.8411,2.8525,2.87,2.8904,3.026,3.1449,3.1709,3.1709,3.1746,3.18,3.18,3.18,3.18,3.18,3.18,3.18,3.18,3.1679,3.142,3.1133,3.0555,2.9636,2.9554,2.926,2.8637,2.8858,2.8994,2.8994,2.8994,2.8994,2.8994,2.9138,2.9185,2.9144,2.9357,2.9551]},{"header":{"parameterUnit":"m.s-1","parameterCategory":1,"la1":30.6,"la2":29.2853,"lo1":-89.7004,"lo2":-87.6739,"dy":0.0162,"dx":0.0183,"nx":112,"ny":82,"refTime":"2025-08-04T12:00:00:Z","depth":0,"parameterNumber":3,"parameterNumberName":"V-component_of_WINDS"},"data":[0.0,0.0,0.0,0.0,0.0,0.0,0.0,0.0,0.0,0.0,0.0,0.0,0.0,0.0,0.0,0.0,0.0,0.0,0.0,0.0,0.0,0.0,0.0,0.0,0.0,0.0,0.0,0.0,0.0,0.0,0.0,0.0,0.0,0.0,0.0,0.0,0.0,0.0,0.0,0.0,0.0,0.0,0.0,0.0,0.0,0.0,0.0,0.0,0.0,0.0,0.0,0.0,0.0,0.0,0.0,0.0,0.0,0.0,0.0,0.0,0.0,0.0,0.0,0.0,0.0,0.0,0.0,0.0,0.0,0.0,0.0,0.0,0.0,0.0,0.0,0.0,0.0,0.0,0.0,0.0,0.0,0.0,0.0,0.0,0.0,0.0,0.0,0.0,0.0,0.0,0.808,0.9281,1.0861,1.1914,1.2295,1.1855,1.093,0.9297,0.0,0.0,0.0,0.0,0.0,0.0,0.0,0.0,0.0,0.0,0.0,0.0,0.0,0.0,0.0,0.0,0.0,0.0,0.0,0.0,0.0,0.0,0.0,0.0,0.0,0.0,0.0,0.0,0.0,0.0,0.0,0.0,0.0,0.0,0.0,0.0,0.0,0.0,0.0,0.0,0.0,0.0,0.0,0.0,0.0,0.0,0.0,0.0,0.0,0.0,0.0,0.0,0.0,0.0,0.0,0.0,0.0,0.0,0.0,0.0,0.0,0.0,0.0,0.0,0.0,0.0,0.0,0.0,0.0,0.0,0.0,0.0,0.0,0.0,0.0,0.0,0.0,0.0,0.0,0.0,0.0,0.0,0.0,0.0,0.0,0.0,0.0,0.0,0.0,0.0,0.0,0.0,0.0,0.0,0.0,0.0,0.0,0.0,0.0,0.0,0.0,0.0,0.0,0.0,0.8209,1.0928,1.2116,1.2705,1.2773,1.2077,1.1185,1.0185,0.0,0.0,0.0,0.0,0.0,0.0,0.0,0.0,0.0,0.0,0.0,0.0,0.0,0.0,0.0,0.0,0.0,0.0,0.0,0.0,0.0,0.0,0.0,0.0,0.0,0.0,0.0,0.0,0.0,0.0,0.0,0.0,0.0,0.0,0.0,0.0,0.0,0.0,0.0,0.0,0.0,0.0,0.0,0.0,0.0,0.0,0.0,0.0,0.0,0.0,0.0,0.0,0.0,0.0,0.0,0.0,0.0,0.0,0.0,0.0,0.0,0.0,0.0,0.0,0.0,0.0,0.0,0.0,0.0,0.0,0.0,0.0,0.0,0.0,0.0,0.0,0.0,0.0,0.0,0.0,0.0,0.0,0.0,0.0,0.0,0.0,0.0,0.0,0.0,0.0,0.0,0.0,0.0,0.0,0.0,0.0,0.0,0.0,0.0,0.0,0.0,0.0,0.0,0.7738,0.9049,1.1012,1.2213,1.2881,1.2881,1.2116,1.1234,1.0371,0.8958,0.0,0.0,0.0,0.0,0.0,0.0,0.0,0.0,0.0,0.0,0.0,0.0,0.0,0.0,0.0,0.0,0.0,0.0,0.0,0.0,0.0,0.0,0.0,0.0,0.0,0.0,0.0,0.0,0.0,0.0,0.0,0.0,0.0,0.0,0.0,0.0,0.0,0.0,0.0,0.0,0.0,0.0,0.0,0.0,0.0,0.0,0.0,0.0,0.0,0.0,0.0,0.0,0.0,0.0,0.0,0.0,0.0,0.0,0.0,0.0,0.0,0.0,0.0,0.0,0.0,0.0,0.0,0.0,0.0,0.0,0.0,0.0,0.0,0.0,0.0,0.0,0.0,0.0,0.0,0.0,0.0,0.0,0.0,0.0,0.0,0.0,0.0,0.0,0.0,0.0,0.0,0.0,0.0,0.0,0.0,0.0,0.0,0.0,0.0,0.0,0.0,0.0,0.8525,0.983,1.0809,1.1978,1.2783,1.2881,1.2018,1.1126,1.0371,0.8584,0.0,0.0,0.0,0.0,0.0,0.0,0.0,0.0,0.0,0.0,0.0,0.0,0.0,0.0,0.0,0.0,0.0,0.0,0.0,0.0,0.0,0.0,0.0,0.0,0.0,0.0,0.0,0.0,0.0,0.0,0.0,0.0,0.0,0.0,0.0,0.0,0.0,0.0,0.0,0.0,0.0,0.0,0.0,0.0,0.0,0.0,0.0,0.0,0.0,0.0,0.0,0.0,0.0,0.0,0.0,0.0,0.0,0.0,0.0,0.0,0.0,0.0,0.0,0.0,0.0,0.0,0.0,0.0,0.0,0.0,0.0,0.0,0.0,0.0,0.0,0.0,0.0,0.0,0.0,0.0,0.0,0.0,0.0,0.0,0.0,0.0,0.0,0.0,0.0,0.0,0.0,0.0,0.0,0.0,0.0,0.0,0.0,0.0,0.0,0.0,0.0,0.0,0.8574,1.0267,1.0847,1.1638,1.2382,1.2881,1.1699,1.0762,1.0312,0.8311,0.0,0.0,0.0,0.0,0.0,0.0,0.0,0.0,0.0,0.0,0.0,0.0,0.0,0.0,0.0,0.0,0.0,0.0,0.0,0.0,0.0,0.0,0.0,0.0,0.0,0.0,0.0,0.0,0.0,0.0,0.0,0.0,0.0,0.0,0.0,0.0,0.0,0.0,0.0,0.0,0.0,0.0,0.0,0.0,0.0,0.0,0.0,0.0,0.0,0.0,0.0,0.0,0.0,0.0,0.0,0.0,0.0,0.0,0.0,0.0,0.0,0.0,0.0,0.0,0.0,0.0,0.0,0.0,0.0,0.0,0.0,0.0,0.0,0.0,0.0,0.0,0.0,0.0,0.0,0.0,0.0,0.0,0.0,0.0,0.0,0.0,0.0,0.0,0.0,0.0,0.0,0.0,0.0,0.0,0.0,0.0,0.0,0.0,0.0,0.0,0.0,0.0,0.7895,0.9396,1.0225,1.1398,1.2175,1.2382,1.1734,1.1025,1.0332,0.0,0.0,0.0,0.0,0.0,0.0,0.0,0.0,0.0,0.0,0.0,0.0,0.0,0.0,0.0,0.0,0.0,0.0,0.0,0.0,0.0,0.0,0.0,0.0,0.0,0.0,0.0,0.0,0.0,0.0,0.0,0.0,0.0,0.0,0.0,0.0,0.0,0.0,0.0,0.0,0.0,0.0,0.0,0.0,0.0,0.0,0.0,0.0,0.0,0.0,0.0,0.0,0.0,0.0,0.0,0.0,0.0,0.0,0.0,0.0,0.0,0.0,0.0,0.0,0.0,0.0,0.0,0.0,0.0,0.0,0.0,0.0,0.0,0.0,0.0,0.0,0.0,0.0,0.0,0.0,0.0,0.0,0.0,0.0,0.0,0.0,0.0,0.0,0.0,0.0,0.0,0.0,0.0,0.0,0.0,0.0,0.0,0.0,0.0,0.0,0.0,0.0,0.5893,0.739,0.8832,0.9899,1.0946,1.1619,1.1819,1.1379,1.0727,0.9887,0.0,0.0,0.0,0.0,0.0,0.0,0.0,0.0,0.0,0.0,0.0,0.0,0.0,0.0,0.0,0.0,0.0,0.0,0.0,0.0,0.0,0.0,0.0,0.0,0.0,0.0,0.0,0.0,0.0,0.0,0.0,0.0,0.0,0.0,0.0,0.0,0.0,0.0,0.0,0.0,0.0,0.0,0.0,0.0,0.0,0.0,0.0,0.0,0.0,0.0,0.0,0.0,0.0,0.0,0.0,0.0,0.0,0.0,0.0,0.0,0.0,0.0,0.0,0.0,0.0,0.0,0.0,0.0,0.0,0.0,0.0,0.0,0.0,0.0,0.0,0.0,0.0,0.0,0.0,0.0,0.0,0.0,0.0,0.0,0.0,0.0,0.0,0.0,0.0,0.0,0.0,0.0,0.0,0.0,0.0,0.0,0.0,0.0,0.0,0.0,0.0,0.0,0.5923,0.7294,0.8637,0.9858,1.0248,1.06,1.1158,1.0533,0.9731,0.0,0.0,0.0,0.0,0.0,0.0,0.0,0.0,0.0,0.0,0.0,0.0,0.0,0.0,0.0,0.0,0.0,0.0,0.0,0.0,0.0,0.0,0.0,0.0,0.0,0.0,0.0,0.0,0.0,0.0,0.0,0.0,0.0,0.0,0.0,0.0,0.0,0.0,0.0,0.0,0.0,0.0,0.0,0.0,0.0,0.0,0.0,0.0,0.0,0.0,0.0,0.0,0.0,0.0,0.0,0.0,0.0,0.0,0.0,0.0,0.0,0.0,0.0,0.0,0.0,0.0,0.0,0.0,0.0,0.0,0.0,0.0,0.0,0.0,0.0,0.0,0.0,0.0,0.0,0.0,0.0,0.0,0.0,0.0,0.0,0.0,0.0,0.0,0.0,0.0,0.0,0.0,0.0,0.0,0.0,0.0,0.0,0.0,0.0,0.0,0.0,0.0,0.0,0.5672,0.7164,0.8483,0.9227,0.9982,1.0454,1.06,1.0322,0.9804,0.9147,0.0,0.0,0.0,0.0,0.0,0.0,0.0,0.0,0.0,0.0,0.0,0.0,0.0,0.0,0.0,0.0,0.0,0.0,0.0,0.0,0.0,0.0,0.0,0.0,0.0,0.0,0.0,0.0,0.0,0.0,0.0,0.0,0.0,0.0,0.0,0.0,0.0,0.0,0.0,0.0,0.0,0.0,0.0,0.0,0.0,0.0,0.0,0.0,0.0,0.0,0.0,0.0,0.0,0.0,0.0,0.0,0.0,0.0,0.0,0.0,0.0,0.0,0.0,0.0,0.0,0.0,0.0,0.0,0.0,0.0,0.0,0.0,0.0,0.0,0.0,0.0,0.0,0.0,0.0,0.0,0.0,0.0,0.0,0.0,0.0,0.0,0.0,0.0,0.0,0.0,0.0,0.0,0.0,0.0,0.0,0.0,0.0,0.0,0.0,0.0,0.0,0.0,0.5757,0.6993,0.8136,0.8992,0.9629,1.0035,1.0087,0.9995,0.9525,0.8573,0.0,0.0,0.0,0.0,0.0,0.0,0.0,0.0,0.0,0.0,0.0,0.0,0.0,0.0,0.0,0.0,0.0,0.0,0.0,0.0,0.0,0.0,0.0,0.0,0.0,0.0,0.0,0.0,0.0,0.0,0.0,0.0,0.0,0.0,0.0,0.0,0.0,0.0,0.0,0.0,0.0,0.0,0.0,0.0,0.0,0.0,0.0,0.0,0.0,0.0,0.0,0.0,0.0,0.0,0.0,0.0,0.0,0.0,0.0,0.0,0.0,0.0,0.0,0.0,0.0,0.0,0.0,0.0,0.0,0.0,0.0,0.0,0.0,0.0,0.0,0.0,0.0,0.0,0.0,0.0,0.0,0.0,0.0,0.0,0.0,0.0,0.0,0.0,0.0,0.0,0.0,0.0,0.0,0.0,0.0,0.0,0.0,0.0,0.0,0.0,0.0,0.0,0.5985,0.6753,0.7702,0.8992,0.9309,0.9465,0.9614,0.969,0.9105,0.7709,0.0,0.0,0.0,0.0,0.0,0.0,0.0,0.0,0.0,0.0,0.0,0.0,0.0,0.0,0.0,0.0,0.0,0.0,0.0,0.0,0.0,0.0,0.0,0.0,0.0,0.0,0.0,0.0,0.0,0.0,0.0,0.0,0.0,0.0,0.0,0.0,0.0,0.0,0.0,0.0,0.0,0.0,0.0,0.0,0.0,0.0,0.0,0.0,0.0,0.0,0.0,0.0,0.0,0.0,0.0,0.0,0.0,0.0,0.0,0.0,0.1697,0.1611,0.0,0.0,0.0,0.0,0.0,0.0,0.0,0.0,0.0,0.0,0.0,0.0,0.0,0.0,0.0,0.0,0.0,0.0,0.0,0.0,0.0,0.0,0.0,0.0,0.0,0.0,0.0,0.0,0.0,0.0,0.0,0.0,0.0,0.0,0.0,0.0,0.0,0.0,0.0,0.0,0.5545,0.6651,0.7647,0.8317,0.9099,0.9562,0.9614,0.9818,0.954,0.8579,0.7787,0.0,0.0,0.0,0.0,0.0,0.0,0.0,0.0,0.0,0.0,0.0,0.0,0.0,0.0,0.0,0.0,0.0,0.0,0.0,0.0,0.0,0.0,0.0,0.0,0.0,0.0,0.0,0.0,0.0,0.0,0.0,0.0,0.0,0.0,0.0,0.0,0.0,0.0,0.0,0.0,0.0,0.0,0.0,0.0,0.0,0.0,0.0,0.0,0.0,0.0,0.0,0.0,0.0,0.0,0.0,0.0,0.0,0.0,0.0,0.1703,0.1897,0.0,0.0,0.0,0.0,0.0,0.0,0.0,0.0,0.0,0.0,0.0,0.0,0.0,0.0,0.0,0.0,0.0,0.0,0.0,0.0,0.0,0.0,0.0,0.0,0.0,0.0,0.0,0.0,0.0,0.0,0.0,0.0,0.0,0.0,0.0,0.0,0.0,0.0,0.0,0.0,0.5616,0.6568,0.7389,0.8,0.8626,0.9152,0.9458,0.968,0.9534,0.8877,0.8016,0.0,0.0,0.0,0.0,0.0,0.0,0.0,0.0,0.0,0.0,0.0,0.0,0.0,0.0,0.0,0.0,0.0,0.0,0.0,0.0,0.0,0.0,0.0,0.0,0.0,0.0,0.0,0.0,0.0,0.0,0.0,0.0,0.0,0.0,0.0,0.0,0.0,0.0,0.0,0.0,0.0,0.0,0.0,0.0,0.0,0.0,0.0,0.0,0.0,0.0,0.0,0.0,0.0,-0.009,0.0092,0.0333,0.0333,0.0346,0.0521,0.1423,0.191,0.2165,0.2029,0.0,0.0,0.0,0.0,0.0,0.0,0.0,0.0,0.0,0.0,0.0,0.0,0.0,0.0,0.0,0.0,0.0,0.0,0.0,0.0,0.0,0.0,0.3989,0.383,0.399,0.3997,0.3242,0.0,0.0,0.0,0.0,0.0,0.0,0.0,0.0,0.0,0.0,0.0,0.5755,0.6459,0.7178,0.7741,0.8203,0.8679,0.9204,0.9474,0.9397,0.8857,0.8108,0.7502,0.0,0.0,0.0,0.0,0.0,0.0,0.0,0.0,0.0,0.0,0.0,0.0,0.0,0.0,0.0,0.0,0.0,0.0,0.0,0.0,0.0,0.0,0.0,0.0,0.0,0.0,0.0,0.0,0.0,0.0,0.0,0.0,0.0335,0.0357,0.0,0.0,0.0,0.0,0.0,0.0,0.0,0.0,0.0,0.0,0.0,0.0,0.0,-0.0732,-0.0793,-0.0801,-0.0789,-0.0814,-0.0806,-0.0533,-0.0059,-0.0059,0.0238,0.078,0.0889,0.0,0.1669,0.2142,0.0,0.0,0.0,0.0,0.0,0.0,0.0,0.0,0.0,0.0,0.0,0.0,0.0,0.0,0.0,0.0,0.0,0.0,0.0,0.0,0.0,0.0,0.3621,0.351,0.3582,0.3627,0.3397,0.3442,0.3537,0.3475,0.3253,0.3029,0.0,0.0,0.0,0.0,0.0,0.0,0.5545,0.6466,0.7189,0.7545,0.815,0.8626,0.8679,0.9266,0.9286,0.8574,0.8301,0.788,0.7366,0.6879,0.0,0.0,0.0,0.0,0.0,0.0,0.0,0.0,0.0,0.0,0.0,0.0,0.0,0.0,0.0,0.0,0.0,0.0,0.0,0.0,0.0,0.0,0.0,0.0,0.0,0.0,0.0,0.0,0.0,0.023,0.0223,-0.0034,-0.0105,-0.0278,0.0,0.0,0.0,0.0,0.0,0.0,0.0,0.0,0.0,-0.082,-0.0791,-0.0829,-0.089,-0.0916,-0.0935,-0.0949,-0.0975,-0.0864,-0.0617,-0.0617,-0.0435,-0.019,0.0124,0.0425,0.0651,0.1237,0.1617,0.187,0.0,0.0,0.0,0.0,0.2397,0.238,0.2689,0.2693,0.264,0.264,0.0,0.0,0.0,0.0,0.0,0.0,0.0,0.2944,0.3074,0.331,0.3485,0.3498,0.3545,0.3569,0.3515,0.3545,0.3514,0.3288,0.3337,0.3315,0.3152,0.3481,0.0,0.0,0.0,0.501,0.4992,0.5659,0.627,0.6745,0.7122,0.7599,0.8243,0.8672,0.8806,0.86,0.838,0.8204,0.8033,0.7357,0.7025,0.0,0.0,0.0,0.0,0.0,0.0,0.0,0.0,0.0,0.0,0.0,0.0,0.0,0.0,0.0,0.0,0.0,0.0,0.0,0.0,0.0,0.0,0.0,0.0,0.0,0.0,0.0,0.0,0.0097,0.0036,-0.0301,-0.036,-0.0446,0.0,0.0,0.0,0.0,0.0,0.0,-0.0761,-0.0748,-0.0903,-0.1215,-0.1192,-0.1294,-0.1542,-0.1553,-0.1559,-0.1559,-0.1572,-0.1577,-0.1577,-0.1577,-0.1468,-0.1238,-0.0827,-0.051,-0.0324,0.0427,0.0997,0.137,0.125,0.1467,0.1954,0.2062,0.2069,0.2051,0.2324,0.2329,0.2231,0.2176,0.2054,0.1975,0.1871,0.0,0.0,0.0,0.0,0.259,0.2837,0.3152,0.3456,0.3602,0.3623,0.3623,0.3623,0.3599,0.349,0.3195,0.3427,0.3523,0.3272,0.3591,0.0,0.3621,0.4207,0.4669,0.4515,0.4979,0.5496,0.5932,0.6253,0.6735,0.7593,0.7984,0.822,0.826,0.8176,0.8207,0.8401,0.7773,0.7595,0.7912,0.0,0.0,0.0,0.0,0.0,0.0,0.0,0.0,0.0,0.0,0.0,0.0,0.0,0.0,0.0,0.0,0.0,0.0,0.0,0.0,0.0,0.0,0.0,0.0,0.0,0.0,0.0,0.0,0.0,-0.0125,-0.0496,0.0,0.0,0.0,0.0,-0.0713,-0.0768,-0.083,-0.0892,-0.0872,-0.1259,-0.2016,-0.2023,-0.2334,-0.3015,-0.3034,-0.3075,-0.3075,-0.3097,-0.307,-0.307,-0.307,-0.2739,-0.2075,-0.2006,-0.1606,-0.0935,0.0315,0.0798,0.0857,0.0855,0.0853,0.0852,0.0916,0.0916,0.0854,0.0922,0.0922,0.0918,0.0917,0.0837,0.0815,0.0871,0.0928,0.0,0.0,0.1606,0.2012,0.2079,0.282,0.3564,0.3569,0.3569,0.3569,0.3569,0.3607,0.3611,0.3585,0.3468,0.3387,0.3368,0.0,0.3745,0.329,0.4223,0.48,0.4379,0.4896,0.5336,0.5332,0.5982,0.6411,0.6465,0.7128,0.7515,0.7348,0.7592,0.7864,0.8118,0.8259,0.8383,0.8471,0.7671,0.0,0.0,0.0,0.0,0.0,0.0,0.0,0.0,0.0,0.0,0.0,0.0,0.0,0.0,0.0,0.0,0.0,0.0,0.0,0.0,0.0,0.0,0.0,0.0,0.0,0.0,0.0,0.0,-0.0565,-0.0796,0.0,-0.0763,-0.0787,-0.0808,-0.0817,-0.0856,-0.1121,-0.1638,-0.166,-0.2005,-0.278,-0.2784,-0.2937,-0.3186,-0.3218,-0.3169,-0.3169,-0.3201,-0.3215,-0.3215,-0.3215,-0.3082,-0.2815,-0.2815,-0.2414,-0.1676,-0.1247,-0.0526,0.0267,0.0257,0.0513,0.0847,0.0847,0.0837,0.0892,0.0926,0.0916,0.0884,0.0805,0.0794,0.0787,0.0787,0.0787,0.0848,0.0908,0.1099,0.1417,0.1725,0.2157,0.253,0.2467,0.2467,0.2467,0.2467,0.2446,0.2464,0.2441,0.3042,0.3504,0.3531,0.3649,0.364,0.3349,0.3759,0.4063,0.3896,0.4045,0.4349,0.4736,0.5007,0.5496,0.6204,0.6534,0.681,0.7144,0.7177,0.7324,0.7631,0.7517,0.7745,0.843,0.7789,0.723,0.0,0.0,0.0,0.0,0.0,0.0,0.0,0.0,0.0,0.0,0.0,0.0,0.0,0.0,0.0,0.0,0.0,0.0,0.0,0.0,0.0,0.0,0.0,0.0,0.0,-0.0923,-0.0957,-0.0918,-0.1179,-0.1366,-0.1227,-0.1483,-0.164,-0.1619,-0.1654,-0.1878,-0.2433,-0.2499,-0.2786,-0.3577,-0.3582,-0.368,-0.3951,-0.3951,-0.3951,-0.3951,-0.3951,-0.3951,-0.3951,-0.3951,-0.3818,-0.3551,-0.3551,-0.3149,-0.248,-0.248,-0.1909,-0.1044,-0.0599,-0.0198,0.0202,0.0202,0.0199,0.0263,0.0276,0.0272,0.0196,0.0194,0.0128,0.019,0.019,0.019,0.019,0.019,0.0254,0.0381,0.0699,0.1016,0.1335,0.1208,0.1208,0.1208,0.1208,0.1514,0.1805,0.1829,0.2466,0.2992,0.3002,0.3312,0.3555,0.3477,0.3531,0.3585,0.3585,0.3585,0.3749,0.4135,0.4353,0.4791,0.5555,0.5991,0.6372,0.6756,0.6934,0.7115,0.7344,0.7205,0.751,0.8332,0.771,0.7191,0.6801,0.0,0.0,0.0,0.0,0.0,0.0,0.0,0.0,0.0,0.0,0.0,0.0,0.0,0.0,0.0,0.0,0.0,0.0,0.0,0.0,0.0,0.0,0.0,-0.123,-0.1132,-0.1077,-0.117,-0.1699,-0.2061,-0.2061,-0.2664,-0.3083,-0.3083,-0.3085,-0.3126,-0.3213,-0.3217,-0.3586,-0.4295,-0.4361,-0.4694,-0.5369,-0.5428,-0.5428,-0.5428,-0.5428,-0.5428,-0.5428,-0.5428,-0.5024,-0.4353,-0.4353,-0.3885,-0.3215,-0.3215,-0.3269,-0.3132,-0.1696,-0.1144,-0.1144,-0.1144,-0.1144,-0.1081,-0.111,-0.11,-0.108,-0.111,-0.11,-0.1077,-0.1076,-0.1076,-0.1077,-0.1076,-0.1078,-0.1079,-0.1079,-0.0539,-0.0,-0.0,-0.0067,-0.0,-0.0,0.0924,0.1748,0.1747,0.1724,0.175,0.1748,0.2747,0.3532,0.3585,0.3585,0.0,0.3585,0.3585,0.3585,0.3585,0.4132,0.4463,0.4519,0.55,0.6154,0.6154,0.6864,0.7234,0.7158,0.7421,0.7752,0.816,0.7471,0.6714,0.5821,0.0,0.0,0.0,0.0,0.0,0.0,0.0,0.0,0.0,0.0,0.0,0.0,0.0,0.0,0.0,0.0,0.0,0.0,0.0,0.0,0.0,-0.2012,-0.2067,-0.1874,-0.2067,-0.2311,-0.2501,-0.2901,-0.3036,-0.2796,-0.2995,-0.3172,-0.3172,-0.3172,-0.3447,-0.4092,-0.4165,-0.4491,-0.539,-0.53,-0.532,-0.5528,-0.5416,-0.5428,-0.5428,-0.5428,-0.5428,-0.5428,-0.5428,-0.5292,-0.5093,-0.5093,-0.4688,-0.4018,-0.4018,-0.3701,-0.3185,-0.2757,-0.2309,-0.1867,-0.1867,-0.1592,-0.1107,-0.1093,-0.1082,-0.1077,-0.1085,-0.1097,-0.1104,-0.1082,-0.1091,-0.1104,-0.1082,-0.1076,-0.101,-0.0741,-0.0539,-0.0404,-0.0742,-0.0809,-0.0742,-0.0404,-0.0134,0.0132,0.013,0.0319,0.0495,0.0468,0.1506,0.2588,0.3485,0.3585,0.3585,0.3585,0.3585,0.3585,0.3585,0.3749,0.4024,0.4463,0.4791,0.5117,0.5496,0.6067,0.6344,0.6314,0.6743,0.7058,0.7328,0.7468,0.7215,0.0,0.0,0.0,0.0,0.0,0.0,0.0,0.0,0.0,0.0,0.0,0.0,0.0,0.0,0.0,0.0,0.0,0.0,0.0,0.0,0.0,0.0,-0.2867,-0.3066,-0.3161,-0.3113,-0.3131,-0.3334,-0.3714,-0.3901,-0.3634,-0.395,-0.4137,-0.4188,-0.4188,-0.4483,-0.5032,-0.5038,-0.5287,-0.58,-0.5722,-0.5677,-0.5677,-0.5589,-0.5515,-0.5457,-0.5518,-0.5515,-0.546,-0.5518,-0.5511,-0.5457,-0.5457,-0.5251,-0.4836,-0.4779,-0.4584,-0.4217,0.0,0.0,0.0,0.0,-0.172,-0.1102,-0.1096,-0.1087,-0.1078,-0.1091,-0.1098,-0.1099,-0.1081,-0.1088,-0.1101,-0.1096,-0.1086,-0.1013,-0.082,-0.0612,-0.0539,-0.0809,-0.0944,-0.1012,-0.0809,-0.0742,-0.0738,-0.0726,-0.0592,0.0,-0.0062,0.1017,0.2219,0.3444,0.3618,0.3585,0.3585,0.3585,0.3585,0.3585,0.3585,0.3749,0.4079,0.4353,0.0,0.0,0.0,0.5772,0.6,0.658,0.0,0.0,0.0,0.0,0.0,0.7124,0.0,0.0,0.7607,0.7929,0.0,0.0,0.0,0.0,0.0,0.0,0.0,0.0,0.0,0.0,0.0,0.0,0.0,0.0,0.0,0.0,-0.3711,-0.4032,-0.4759,-0.4315,-0.3868,-0.3893,-0.4379,-0.4625,-0.4408,-0.504,-0.5511,-0.5648,-0.5672,-0.5748,-0.5892,-0.5971,0.0,0.0,0.0,-0.6111,-0.6111,-0.6093,-0.6019,-0.596,-0.6022,-0.6015,-0.596,-0.6093,-0.6012,-0.5818,-0.5818,-0.5752,-0.5603,-0.5467,-0.5613,-0.5631,-0.3994,-0.3351,-0.3284,-0.248,-0.1879,-0.1349,-0.1313,0.0,0.0,-0.1314,-0.1374,-0.1349,-0.1211,-0.1212,-0.1222,-0.1113,-0.1103,-0.1089,-0.1114,-0.0827,-0.0541,-0.054,-0.0809,-0.1079,-0.1079,-0.1079,-0.1079,-0.1079,-0.1079,-0.087,-0.0261,0.0927,0.2194,0.3426,0.3621,0.3599,0.3585,0.3585,0.3585,0.3585,0.3585,0.0,0.3585,0.4079,0.4408,0.4408,0.4897,0.5425,0.5883,0.669,0.6915,0.652,0.7079,0.7218,0.6807,0.7598,0.781,0.7515,0.7194,0.758,0.0,0.0,0.0,0.0,0.0,0.0,0.0,0.0,0.0,0.0,0.0,0.0,0.0,0.0,0.0,-0.4214,-0.4462,-0.4845,-0.5805,-0.579,-0.5564,-0.5248,-0.5499,-0.5522,-0.5223,-0.5535,-0.5827,-0.5859,-0.6117,-0.6331,-0.6423,-0.7078,-0.7512,-0.7664,-0.8038,-0.8243,-0.8243,-0.7932,-0.7831,-0.7934,-0.7831,0.0,-0.8209,-0.8037,-0.7615,-0.695,-0.695,-0.6533,-0.5755,-0.5728,-0.5731,-0.5703,-0.4739,-0.4356,-0.4223,-0.3349,-0.2882,-0.2817,-0.2765,-0.276,-0.2818,-0.2765,-0.2804,-0.2763,-0.2095,-0.1977,0.0,-0.1259,-0.1117,-0.1114,-0.1119,-0.1047,-0.0969,-0.1017,-0.1012,-0.1079,-0.1077,-0.1076,-0.1076,-0.1076,-0.1078,-0.1077,-0.0938,0.0389,0.1869,0.3389,0.3574,0.3579,0.3596,0.3585,0.3585,0.3585,0.3585,0.3585,0.3585,0.3694,0.3749,0.3749,0.4353,0.4886,0.5391,0.6051,0.6273,0.6054,0.6853,0.7229,0.6968,0.7373,0.7629,0.7675,0.8424,0.8707,0.0,0.0,0.0,0.0,0.0,0.0,0.0,0.0,0.0,0.0,0.0,-0.3373,-0.343,0.0,-0.4419,-0.5113,-0.5344,-0.5628,-0.612,-0.6289,-0.6213,-0.5955,-0.5963,-0.5918,-0.5599,-0.5884,-0.6066,-0.6079,-0.6736,-0.7224,-0.7334,-0.816,-0.8656,-0.8689,-0.8965,-0.9055,-0.9055,-0.8729,-0.8617,-0.8652,-0.8549,-0.8544,-0.8652,-0.8621,-0.8321,-0.7933,-0.7933,-0.7645,-0.7146,-0.6929,-0.6493,-0.6062,-0.579,-0.5261,-0.4648,-0.4036,-0.3659,-0.3424,-0.3424,-0.3424,-0.3424,-0.3424,-0.3424,-0.3283,-0.3004,-0.2865,-0.274,-0.2453,-0.2377,-0.2433,-0.2391,-0.2068,-0.1744,-0.1723,-0.1428,-0.1077,-0.1076,-0.1076,-0.1076,-0.1076,-0.1077,-0.1078,-0.1079,-0.0466,0.0649,0.2234,0.2616,0.2932,0.3597,0.3706,0.3682,0.3675,0.3727,0.3645,0.3588,0.3585,0.3585,0.3585,0.4187,0.4625,0.4897,0.5445,0.5837,0.6062,0.6592,0.6972,0.7128,0.7304,0.7521,0.7723,0.809,0.8285,0.0,0.0,0.0,0.0,0.0,0.0,0.0,0.0,-0.3868,-0.3993,-0.405,-0.4154,-0.4615,-0.4873,-0.5247,-0.5848,-0.6179,-0.6346,-0.6442,-0.6647,-0.6741,-0.6666,-0.6474,-0.6344,-0.6112,-0.6506,-0.6796,-0.6884,-0.7747,-0.8356,-0.8452,-0.9221,-0.9674,-0.9674,-0.975,-0.9825,-0.9825,-0.9599,-0.951,-0.9395,-0.929,-0.928,-0.9254,-0.9295,-0.92,-0.8881,-0.8665,-0.8615,-0.8718,-0.8125,-0.7402,-0.6728,-0.6702,-0.6033,-0.5093,-0.4862,-0.4493,-0.4143,-0.4143,-0.4143,-0.4143,-0.4143,-0.4011,-0.3886,-0.3898,-0.3795,-0.3624,-0.3721,-0.3717,-0.3679,-0.3674,-0.3147,-0.2619,-0.2594,-0.2064,-0.1488,-0.1345,-0.1276,-0.1276,-0.1143,-0.1076,-0.1076,-0.1078,-0.1079,-0.0601,0.0841,0.1452,0.2233,0.3643,0.3827,0.3848,0.3862,0.3851,0.3743,0.3626,0.3615,0.3607,0.3585,0.4079,0.4298,0.4298,0.4842,0.5391,0.5882,0.6091,0.6475,0.7095,0.7095,0.7274,0.7692,0.7486,0.7572,-0.3655,-0.3957,-0.4164,-0.4296,-0.4351,-0.4574,0.0,0.0,-0.5027,-0.4896,-0.5273,-0.5478,-0.503,-0.5292,-0.5662,-0.6087,-0.6505,-0.6953,-0.733,-0.7892,-0.8231,-0.8231,-0.7572,-0.7131,-0.7197,-0.8058,-0.876,-0.901,-0.9437,-0.9712,-0.9664,-1.0426,-1.0887,-1.0887,-1.1403,-1.1706,-1.1706,-1.1484,-1.1465,-1.1656,-1.1465,-1.1539,-1.1877,-1.1687,-1.1156,-1.0226,-0.9336,-0.9148,-0.9519,-0.8463,-0.7992,-0.7865,-0.7009,-0.6607,-0.6331,-0.605,-0.5789,-0.5584,-0.5584,-0.5584,-0.5584,-0.5584,-0.5574,-0.5418,-0.4781,-0.4557,-0.4429,-0.3887,-0.3684,-0.368,-0.3689,-0.3601,-0.3475,-0.3321,-0.3205,-0.2902,-0.2158,-0.2013,-0.1812,-0.121,-0.1076,-0.1076,-0.1076,-0.1078,-0.0801,0.0,0.0836,0.1969,0.3663,0.3899,0.3952,0.4055,0.3925,0.3813,0.3804,0.3793,0.3749,0.3591,0.3638,0.3694,0.3694,0.4298,0.4625,0.468,0.5171,0.5714,0.6317,0.6317,0.6803,0.7689,0.7796,0.7842,-0.4884,-0.4781,-0.4525,-0.4851,-0.504,-0.5247,-0.5543,-0.564,-0.5647,-0.5551,-0.572,-0.5914,-0.6088,-0.6237,-0.6523,-0.7122,-0.7452,-0.7737,-0.7897,-0.8231,-0.849,-0.849,-0.8549,-0.8493,-0.8314,-0.8783,-0.9204,-0.9495,-1.0215,-1.0582,-1.0582,-1.1329,-1.1781,-1.1781,-1.2003,-1.215,-1.215,-1.2003,-1.1929,-1.2003,-1.1781,-1.1781,-1.1929,-1.1706,-1.1496,-1.1276,-1.0971,-1.0793,-1.0634,-1.0122,-0.9357,-0.8412,-0.8035,-0.789,-0.771,-0.6611,-0.6138,-0.6067,-0.6067,-0.6067,-0.6067,-0.6067,-0.6006,-0.5879,-0.5663,-0.5554,-0.5442,-0.5275,-0.5237,-0.5237,-0.5237,-0.4874,-0.4422,-0.4332,-0.3857,-0.3273,-0.296,-0.2781,-0.2681,-0.2348,-0.2347,-0.2214,-0.1745,-0.168,-0.1474,-0.073,0.0066,0.079,0.156,0.2338,0.323,0.413,0.4055,0.3989,0.3994,0.3923,0.3838,0.3792,0.3786,0.3786,0.3786,0.4021,0.4274,0.4539,0.4843,0.5247,0.5772,0.5878,0.6147,0.6641,0.7173,0.747,-0.5707,-0.5363,-0.4938,-0.5273,-0.5592,-0.5758,-0.5758,-0.6082,-0.6339,-0.6282,-0.6383,-0.6663,-0.7103,-0.7154,-0.7321,-0.7922,-0.8236,-0.8425,-0.8495,-0.8812,-0.9069,-0.9069,-0.9524,-0.9729,-0.9621,-0.9753,-0.9965,-1.0306,-1.1031,-1.1409,-1.1409,-1.2003,-1.2265,-1.2184,-1.2258,-1.2265,-1.2184,-1.2117,-1.2077,-1.2077,-1.1929,-1.1855,-1.1855,-1.1632,-1.1797,-1.2145,-1.2145,-1.2037,-1.178,-1.1462,-1.0661,-0.956,-0.9329,-0.9262,-0.9118,-0.7897,-0.72,-0.6834,-0.6443,-0.6288,-0.6312,-0.6352,-0.6183,-0.6115,-0.6227,-0.6183,-0.6115,-0.623,-0.6338,-0.6338,-0.6338,-0.5867,-0.5321,-0.5283,-0.4692,-0.405,-0.3783,-0.3644,-0.3518,-0.3222,-0.3215,-0.2948,-0.2213,-0.208,-0.188,-0.1213,-0.0674,-0.0202,-0.0,0.0874,0.1935,0.3008,0.3391,0.3718,0.4128,0.4055,0.3974,0.3875,0.3872,0.3872,0.3872,0.3872,0.4074,0.4398,0.4489,0.4787,0.5327,0.5381,0.5586,0.5945,0.6554,0.6946,-0.5839,-0.5717,-0.5706,-0.56,-0.5868,-0.6191,-0.6191,-0.6843,-0.7377,-0.7186,-0.7707,-0.8096,-0.7977,-0.7777,-0.7772,-0.7982,-0.8549,-0.9058,-0.9268,-0.9977,-1.0561,-1.0561,-1.0555,-1.0788,-1.1295,-1.1354,-1.16,-1.2184,-1.2231,-1.2224,-1.2224,-1.2298,-1.2171,-1.1891,-1.2151,-1.2171,-1.1884,-1.2158,-1.2298,-1.2298,-1.2305,-1.2305,-1.2305,-1.2077,-1.2241,-1.2732,-1.2214,-1.2424,-1.3094,-1.193,-1.1648,-1.1798,-1.1061,-1.0579,-1.0428,-1.0412,-0.9519,-0.8171,-0.6745,-0.6349,-0.6444,-0.6305,-0.6257,-0.6254,-0.6335,-0.6257,-0.6254,-0.6335,-0.6338,-0.6338,-0.6338,-0.6257,-0.6217,-0.5989,-0.5949,-0.5641,-0.4661,-0.4466,-0.4222,-0.3368,-0.3215,-0.2948,-0.2213,-0.208,-0.188,-0.1213,-0.1079,-0.0809,-0.0067,0.0067,0.0067,0.0134,0.1339,0.2716,0.4201,0.4321,0.4201,0.3944,0.3872,0.3872,0.3872,0.3872,0.3933,0.3931,0.3933,0.4235,0.4833,0.4837,0.5218,0.6002,0.6249,0.6468,-0.6844,-0.63,-0.5843,-0.6504,-0.6789,-0.6989,-0.757,-0.7981,-0.8102,-0.7912,-0.7914,-0.8059,-0.8332,-0.8067,-0.807,-0.893,-0.927,-0.9581,-0.9888,-1.0464,-1.0775,-1.0645,-1.0728,-1.1002,-1.139,-1.1423,-1.159,-1.1984,-1.2191,-1.2218,-1.2024,-1.2198,-1.2258,-1.2158,-1.2251,-1.2351,-1.2526,-1.262,-1.2699,-1.2906,-1.2906,-1.2722,-1.2467,-1.2523,-1.2576,-1.2599,-1.2705,-1.2941,-1.322,-1.2981,-1.2581,-1.2155,-1.1727,-1.1787,-1.1801,-1.0882,-1.0712,-1.0737,-0.9161,-0.8667,-0.8528,-0.7632,-0.7344,-0.7246,-0.6521,-0.6338,-0.6338,-0.6338,-0.6338,-0.6338,-0.6338,-0.6338,-0.6247,-0.6196,-0.6105,-0.5925,-0.5533,-0.5367,-0.5155,-0.4831,-0.4748,-0.442,-0.3685,-0.3551,-0.3015,-0.1343,-0.0875,-0.0607,-0.0337,-0.0135,-0.0067,-0.0337,0.0269,0.1204,0.2389,0.3586,0.4232,0.4181,0.4178,0.4178,0.4178,0.4178,0.414,0.4058,0.4137,0.4201,0.4304,0.4455,0.4584,0.4888,0.5401,0.5752,-0.7898,-0.7321,-0.6699,-0.7471,-0.7691,-0.779,-0.8388,-0.8678,-0.879,-0.8388,-0.843,-0.86,-0.8708,-0.855,-0.8646,-0.9467,-0.9701,-0.9959,-1.0399,-1.0745,-1.0922,-1.0735,-1.0882,-1.1109,-1.1396,-1.1423,-1.155,-1.1844,-1.2138,-1.2178,-1.1884,-1.2245,-1.2365,-1.2151,-1.2245,-1.2392,-1.2585,-1.2768,-1.2906,-1.3213,-1.3213,-1.3034,-1.2771,-1.2799,-1.2746,-1.2599,-1.2959,-1.3106,-1.3233,-1.3527,-1.3372,-1.2939,-1.2839,-1.2908,-1.3093,-1.2147,-1.2308,-1.2608,-1.0521,-0.9846,-0.9712,-0.8779,-0.8431,-0.8115,-0.7144,-0.6843,-0.6644,-0.6416,-0.6338,-0.6338,-0.6338,-0.6338,-0.6338,-0.6338,-0.6183,-0.6098,-0.604,-0.5881,-0.5732,-0.5677,-0.5586,-0.5294,-0.4495,-0.4113,-0.3349,-0.1675,-0.1209,-0.101,-0.0741,-0.0539,-0.0404,-0.0472,-0.0404,0.0067,0.121,0.2353,0.3228,0.3825,0.3825,0.3961,0.43,0.43,0.4265,0.4186,0.4259,0.4262,0.4183,0.4262,0.43,0.43,0.4758,0.502,-0.8981,-0.8696,-0.8256,-0.8495,-0.8554,-0.8554,-0.8619,-0.9058,-0.9364,-0.8742,-0.9285,-0.9667,0.0,0.0,-0.9252,-0.9544,-0.973,-1.006,-1.0647,-1.0877,-1.1015,0.0,0.0,0.0,0.0,-1.1491,-1.1619,-1.1915,-1.2224,-1.2278,-1.2067,-1.2601,-1.2655,-1.2002,-1.2198,-1.2351,-1.2351,-1.2659,-1.2959,-1.3253,-1.3253,-1.3247,-1.322,-1.2926,-1.2862,-1.2849,-1.2862,-1.2959,-1.3253,-1.3547,-1.3834,-1.4088,-1.4088,-1.4088,-1.4088,-1.4088,-1.4088,-1.3743,-1.0964,-1.0048,-1.0109,-0.9722,-0.9431,-0.902,-0.8224,-0.7778,-0.733,-0.6567,-0.6338,-0.6338,-0.6338,-0.6338,-0.6338,-0.6338,-0.6338,-0.622,-0.6074,-0.6034,-0.5986,-0.584,-0.5806,-0.5542,-0.4708,-0.3835,-0.3029,-0.2357,-0.2153,-0.1884,-0.1213,-0.1079,-0.0944,-0.0539,-0.0877,-0.0606,0.0538,0.0605,0.1276,0.2813,0.2947,0.3353,0.4233,0.43,0.43,0.43,0.43,0.43,0.43,0.43,0.43,0.43,0.43,0.43,-0.9035,-0.8765,-0.8537,-0.9116,-0.9262,-0.939,-0.9913,-1.0007,-0.9775,-0.932,-0.9162,-0.8943,-0.8442,-0.8377,-0.8592,-0.921,-0.9479,0.0,-1.0817,-1.1115,0.0,-1.1316,0.0,-1.1885,-1.1416,-1.2429,-1.3029,-1.288,-1.336,-1.3866,-1.4514,-1.4236,-1.3899,-1.3577,-1.3202,-1.2979,-1.2979,-1.3487,-1.3788,-1.3861,-1.3861,-1.3748,-1.3534,-1.3447,-1.33,-1.3106,-1.332,-1.346,-1.3554,-1.3854,-1.4015,-1.4088,-1.4088,-1.4088,-1.4088,-1.4088,-1.4088,-1.3977,-1.3052,-1.2626,-1.2385,-1.1283,-1.0632,-1.0093,-0.9132,-0.8164,-0.7484,-0.7253,-0.6795,-0.6338,-0.6338,-0.6338,-0.6338,-0.6338,-0.6338,-0.6251,-0.621,-0.6112,-0.6017,-0.5979,-0.5878,-0.5718,-0.5535,-0.4856,-0.4265,-0.405,-0.3079,-0.1993,-0.1214,-0.1078,-0.1078,-0.0942,-0.101,-0.0944,-0.0674,-0.0674,0.0135,0.1813,0.1949,0.2686,0.4233,0.43,0.43,0.43,0.43,0.43,0.43,0.43,0.43,0.43,0.43,0.43,-0.9667,-0.9605,-0.9524,-0.9907,-0.9977,-1.004,-1.0166,-1.022,-0.9993,-0.9254,-0.899,-0.8772,-0.8315,-0.822,-0.8408,0.0,0.0,0.0,-1.1072,-1.1511,-1.1766,0.0,-1.2417,0.0,-1.2152,-1.3207,-1.4142,-1.4569,-1.4758,-1.5008,-1.5372,-1.5311,-1.4962,-1.4332,-1.3959,-1.3657,-1.34,-1.3854,-1.425,-1.4664,-1.4664,-1.4566,-1.4392,-1.426,-1.3871,-1.3407,-1.3492,-1.3559,-1.3667,-1.3968,-1.4088,-1.4088,-1.4088,-1.4088,-1.4088,-1.4088,-1.4088,-1.4088,-1.3913,-1.3737,-1.3366,-1.2439,-1.1811,-1.1163,-1.0136,-0.9247,-0.8394,-0.771,-0.7407,-0.7176,-0.649,-0.6567,-0.6721,-0.6416,-0.6338,-0.6338,-0.6338,-0.6193,-0.6132,-0.6132,-0.6006,-0.5901,-0.5901,-0.5479,-0.5075,-0.4784,-0.3656,-0.2619,-0.1744,-0.1311,-0.1102,-0.1114,-0.1117,-0.1112,-0.1099,-0.1097,-0.0477,0.0942,0.1008,0.1679,0.3086,0.3489,0.3756,0.3756,0.4097,0.43,0.43,0.43,0.43,0.43,0.43,0.43,-1.0488,-1.0624,-1.0624,-1.0624,-1.0598,-1.043,-0.9971,-1.0043,-0.9916,-0.9048,-0.8938,-0.8856,-0.8385,-0.8345,-0.8464,-0.8795,0.0,-1.0086,-1.1327,-1.1787,-1.2315,-1.2971,-1.3172,-1.3188,-1.3171,-1.4085,-1.5134,-1.6409,-1.633,-1.6193,-1.5889,-1.6309,-1.5953,-1.4803,-1.4758,-1.4417,-1.3858,-1.4198,-1.4741,-1.5394,-1.556,-1.556,-1.5545,-1.5183,-1.4579,-1.3858,-1.3701,-1.3701,-1.3721,-1.3981,-1.4088,-1.4088,-1.4088,-1.4088,-1.4088,-1.4088,-1.4088,-1.4088,-1.4088,-1.3913,-1.3652,-1.3307,-1.2775,-1.2166,-1.1186,-1.045,-0.9614,-0.8246,-0.8246,-0.8399,-0.6949,-0.7099,-0.7484,-0.6644,-0.649,-0.6416,-0.6338,-0.6338,-0.6338,-0.6338,-0.6152,-0.6061,-0.6061,-0.5932,-0.5617,-0.498,-0.4227,-0.3421,-0.2777,-0.1788,-0.1137,-0.1164,-0.1166,-0.1155,-0.1129,-0.1127,-0.0767,0.0068,0.0136,0.0543,0.1424,0.2235,0.271,0.2778,0.3664,0.4144,0.4141,0.4263,0.4322,0.4322,0.4308,0.43,-1.0611,-1.0624,-1.0624,-1.0624,-1.0374,-1.0282,-1.058,-1.0136,0.0,0.0,-0.899,-0.8604,-0.7964,-0.7989,-0.8322,-0.8891,-0.9341,-1.0034,-1.1316,-1.1964,-1.2578,0.0,-1.3934,-1.4255,-1.4014,-1.5747,-1.6964,-1.6971,-1.8044,-1.8662,-1.859,-1.8073,-1.7307,-1.6362,-1.6078,-1.571,-1.5058,-1.5854,-1.5966,-1.5394,-1.6124,-1.6453,-1.6453,-1.5659,-1.5231,-1.5065,-1.4337,-1.4008,-1.4015,-1.4068,-1.4088,-1.4088,-1.4088,-1.4088,-1.4088,-1.4088,-1.4088,-1.4088,-1.4088,-1.4088,-1.3997,-1.3652,-1.3023,-1.2252,-1.2086,-1.1002,-0.9841,-0.9539,-0.9084,-0.8627,-0.8322,-0.8399,-0.8322,-0.7484,-0.733,-0.7103,-0.6412,-0.6338,-0.6338,-0.6338,-0.624,-0.622,-0.622,-0.6091,-0.5959,-0.6007,-0.5143,-0.4458,-0.4405,-0.2495,-0.116,-0.1166,-0.1166,-0.1164,-0.1159,-0.1158,-0.1084,-0.0863,-0.0863,-0.0359,0.0718,0.0934,0.122,0.172,0.2795,0.3297,0.3297,0.4067,0.4439,0.4439,0.4344,0.43,-1.0521,-1.0624,-1.0624,-1.0624,-1.0341,-1.0113,-1.0144,0.0,0.0,0.0,-0.8513,-0.8251,-0.8079,-0.8125,0.0,-0.9111,-0.965,-1.0424,-1.1837,-1.2598,-1.3277,-1.42,-1.4836,-1.5182,-1.5299,-1.6668,-1.7515,-1.7617,-1.8688,-1.9301,-1.9301,-1.8487,-1.7836,-1.7432,-1.6782,-1.6369,-1.6041,-1.6453,-1.6698,-1.678,-1.7188,-1.7107,-1.6698,-1.6288,-1.556,-1.4657,-1.425,-1.4088,-1.4088,-1.4088,-1.4088,-1.4088,-1.4088,-1.4088,-1.4088,-1.4088,-1.4088,-1.4088,-1.4088,-1.4088,-1.4088,-1.3913,-1.3359,-1.2571,-1.2332,-1.1546,-1.0594,-1.0067,-0.9911,-0.9755,-0.8927,-0.9008,-0.9155,-0.8322,-0.7787,-0.7407,-0.7026,-0.6567,-0.6338,-0.6338,-0.6338,-0.6338,-0.6338,-0.62,-0.6176,-0.6251,-0.5442,-0.4849,-0.4906,-0.3499,-0.2334,-0.186,-0.1429,-0.1207,-0.1191,-0.119,-0.1183,-0.1168,-0.1166,-0.0875,-0.0364,0.0146,0.0509,0.0799,0.1744,0.2252,0.2252,0.3015,0.347,0.3698,0.4072,0.4292,-1.0662,-1.0807,-1.0807,-1.0807,-1.0534,-1.0172,-0.9814,-0.9354,0.0,-0.8609,-0.8215,-0.8042,-0.8373,-0.8312,-0.8526,0.0,-0.9947,-1.081,-1.2298,-1.3136,-1.3994,0.0,-1.5524,0.0,-1.6523,-1.7211,-1.7834,-1.8339,-1.8953,-1.9301,-1.9301,-1.8647,-1.8238,-1.8238,-1.7594,-1.718,-1.6944,-1.7188,-1.7513,-1.7997,-1.8158,-1.7917,-1.7269,-1.7017,-1.6124,-1.4657,-1.4657,-1.458,-1.4412,-1.458,-1.4657,-1.4657,-1.4657,-1.4657,-1.4657,-1.4657,-1.4657,-1.4664,-1.4412,-1.4419,-1.4334,-1.4166,-1.3563,-1.2888,-1.251,-1.1983,-1.134,-1.0455,-1.0663,-1.0807,-0.9604,-0.9685,-0.9992,-0.9155,-0.8322,-0.7787,-0.7787,-0.7253,-0.6795,-0.6567,-0.6567,-0.649,-0.6338,-0.6234,-0.622,-0.6254,-0.5684,-0.5197,-0.5197,-0.4518,-0.372,-0.2953,-0.2088,-0.1559,-0.1453,-0.1298,-0.1211,-0.1187,-0.1186,-0.1186,-0.1186,-0.0518,-0.0148,-0.0148,0.0813,0.1257,0.1257,0.1912,0.2394,0.2698,0.3534,0.3975,-1.1155,-1.1428,-1.1428,-1.1428,-1.1032,-1.0649,-1.0624,0.0,-0.8741,-0.8988,-0.8703,-0.8438,-0.8474,-0.842,0.0,0.0,0.0,-1.0767,-1.2275,-1.3307,-1.4163,-1.501,0.0,0.0,-1.7312,-1.7798,-1.8385,-1.9136,-1.9256,-1.9301,-1.9301,-1.9222,-1.9143,-1.9143,-1.9134,-1.8647,-1.7917,-1.8647,-1.8727,-1.7997,-1.8807,-1.9134,-1.9054,-1.8238,-1.7342,-1.6453,-1.6453,-1.6049,-1.5311,-1.6124,-1.6453,-1.6453,-1.6453,-1.6453,-1.6453,-1.6453,-1.6453,-1.637,-1.556,-1.5318,-1.5151,-1.4334,-1.3701,-1.3228,-1.2968,-1.2361,-1.175,-1.1334,-1.1186,-1.1111,-1.1111,-1.1031,-1.0812,-0.9992,-0.916,-0.8627,-0.8627,-0.8546,-0.8246,-0.7561,-0.7407,-0.718,-0.6416,-0.6142,-0.6098,-0.624,-0.6063,-0.5901,-0.5901,-0.5322,-0.4801,-0.4608,-0.3242,-0.2352,-0.2347,-0.1722,-0.1252,-0.1327,-0.1327,-0.1327,-0.1327,-0.1171,-0.117,-0.117,-0.0156,0.0389,0.0389,0.1294,0.1805,0.1799,0.2561,0.2963,-1.1172,-1.1699,-1.2027,-1.1608,-1.1361,-1.101,-1.0455,-0.951,-0.8707,-0.8748,-0.8213,-0.7867,-0.8406,-0.8486,-0.8896,0.0,0.0,0.0,-1.2438,-1.315,-1.3919,-1.4974,-1.5597,-1.645,-1.7752,-1.8027,-1.8449,-1.9246,-1.9301,-1.9301,-1.9301,-1.9301,-1.9301,-1.9301,-1.9301,-1.9134,-1.8816,-1.9134,-1.9134,-1.8816,-1.9134,-1.9054,-1.8487,-1.8158,-1.7513,-1.6698,-1.6698,-1.6535,-1.6214,-1.6535,-1.6698,-1.6698,-1.6698,-1.6698,-1.6698,-1.6698,-1.6698,-1.6617,-1.6288,-1.5801,-1.5311,-1.4992,-1.4413,-1.3655,-1.3113,-1.2616,-1.2177,-1.1714,-1.1484,-1.1484,-1.1558,-1.1409,-1.1186,-1.0887,-1.0137,-0.9387,-0.9387,-0.9003,-0.8623,-0.8322,-0.7863,-0.7407,-0.7103,-0.659,-0.619,-0.6251,-0.6207,-0.6169,-0.6169,-0.5909,-0.5767,-0.5711,-0.4278,-0.3288,-0.3288,-0.251,-0.2041,-0.2041,-0.1571,-0.1335,-0.1335,-0.1335,-0.1335,-0.1335,-0.0863,-0.0628,-0.0628,-0.0311,0.0153,0.0755,0.127,0.1916,-1.1387,-1.1791,-1.215,-1.1797,-1.1542,-1.1146,-1.0395,-0.9497,-0.8771,-0.8703,-0.7977,-0.7634,-0.8516,-0.8673,-0.9124,0.0,0.0,-1.1288,-1.2383,-1.2956,-1.3653,-1.4625,-1.5203,-1.6111,-1.7687,-1.8341,-1.8859,-1.9413,-1.939,-1.9381,-1.946,-1.9381,-1.9301,-1.9301,-1.9301,-1.9301,-1.9301,-1.9301,-1.9301,-1.9301,-1.9301,-1.8975,-1.8399,-1.8399,-1.7917,-1.7107,-1.735,-1.7342,-1.7098,-1.7342,-1.7432,-1.7432,-1.7432,-1.7432,-1.7432,-1.7432,-1.7432,-1.7423,-1.718,-1.6698,-1.6041,-1.556,-1.4985,-1.4316,-1.3406,-1.2897,-1.2531,-1.2074,-1.1851,-1.1781,-1.1706,-1.1632,-1.1558,-1.1409,-1.0887,-1.0293,-1.0293,-0.9836,-0.9306,-0.9084,-0.8627,-0.8093,-0.7561,-0.7026,-0.6567,-0.6338,-0.6338,-0.6338,-0.6338,-0.6338,-0.6338,-0.6338,-0.5237,-0.4455,-0.4144,-0.3366,-0.2744,-0.2511,-0.1962,-0.1571,-0.1335,-0.1335,-0.1335,-0.1335,-0.1335,-0.1335,-0.1335,-0.1335,-0.0934,-0.0306,0.0229,0.1134,-1.1957,-1.1888,-1.1664,-1.2159,-1.1663,-1.0938,-1.0573,-0.9628,-0.8839,-0.9049,-0.8408,-0.8063,-0.894,-0.9087,-0.9354,-1.0183,-1.0643,0.0,-1.2015,-1.2782,-1.3442,0.0,-1.4616,-1.5643,-1.7064,-1.8807,-1.9854,-1.9863,-1.9715,-1.9715,-1.9863,-1.9539,-1.9301,-1.9301,-1.9301,-1.9301,-1.9301,-1.9301,-1.9301,-1.9301,-1.9301,-1.9301,-1.9301,-1.9301,-1.8816,-1.7997,-1.8895,-1.8807,-1.8078,-1.8895,-1.9301,-1.9301,-1.9301,-1.9301,-1.9301,-1.9301,-1.9301,-1.9143,-1.8327,-1.7997,-1.7674,-1.5966,-1.5394,-1.517,-1.3967,-1.3272,-1.2831,-1.2544,-1.2244,-1.1929,-1.1781,-1.1855,-1.1855,-1.1484,-1.1409,-1.1335,-1.1111,-1.1111,-1.0812,-1.0067,-0.9916,-0.9387,-0.7787,-0.7484,-0.7253,-0.6416,-0.6338,-0.6338,-0.6338,-0.6338,-0.6338,-0.6338,-0.6261,-0.5944,-0.5082,-0.4222,-0.3443,-0.2588,-0.2511,-0.2119,-0.1335,-0.1335,-0.1335,-0.1335,-0.1335,-0.1335,-0.1335,-0.1335,-0.1257,-0.1256,-0.0392,0.047,-1.0791,-1.1498,-1.2132,-1.1294,-1.1189,-1.1129,-1.0318,-0.9795,-0.9409,-0.9198,-0.8725,-0.8486,-0.8986,-0.9087,-0.9538,-1.0875,-1.1205,0.0,0.0,0.0,0.0,-1.4492,-1.6309,-1.7718,-1.8184,-1.9212,-1.9863,-1.9863,-1.9863,-1.9863,-1.9863,-1.9784,-1.9627,-1.9478,-1.939,-1.9301,-1.9301,-1.9301,-1.9301,-1.9301,-1.9301,-1.9301,-1.9301,-1.9301,-1.9143,-1.8895,-1.9143,-1.9134,-1.8895,-1.9222,-1.9301,-1.9301,-1.9301,-1.9301,-1.9301,-1.9301,-1.9301,-1.9222,-1.8975,-1.8487,-1.7917,-1.735,-1.637,-1.5253,-1.4689,-1.3829,-1.3028,-1.2523,-1.2304,-1.2157,-1.2157,-1.2077,-1.2003,-1.1855,-1.1632,-1.1409,-1.1335,-1.1186,-1.1037,-1.0738,-1.0293,-0.9765,-0.9236,-0.8699,-0.8016,-0.7253,-0.7099,-0.6949,-0.6338,-0.6338,-0.6338,-0.6338,-0.6338,-0.6183,-0.5944,-0.5082,-0.4535,-0.4224,-0.3679,-0.2976,-0.2119,-0.2119,-0.1884,-0.1335,-0.1335,-0.1335,-0.1335,-0.1335,-0.1335,-0.1257,-0.0392,0.0157,-1.0171,-1.0754,-1.1327,-1.0801,-1.0756,-1.0633,-1.0092,-0.9772,-0.9553,-0.9282,-0.9065,-0.9019,-0.9357,-0.9441,-0.9737,-1.0724,-1.1104,-1.1527,0.0,0.0,0.0,-1.4993,-1.7054,-1.8428,-1.8581,-1.9507,-2.0177,-2.0177,-2.0098,-2.0098,-2.0177,-2.002,-1.9872,-1.9872,-1.9548,-1.939,-1.939,-1.9301,-1.9301,-1.9301,-1.9301,-1.9301,-1.9301,-1.9301,-1.9301,-1.9301,-1.9301,-1.9301,0.0,-1.9301,-1.9301,-1.9301,-1.9301,-1.9301,-1.9301,-1.9301,-1.9301,-1.9301,-1.9301,-1.8975,-1.8407,-1.8078,-1.7017,-1.5816,-1.5491,-1.4288,-1.2933,-1.2438,-1.2305,-1.2305,-1.2305,-1.2224,-1.2077,-1.1929,-1.1706,-1.1484,-1.1335,-1.1186,-1.1111,-1.1111,-1.0663,-1.0293,-0.9916,-0.9463,-0.8856,-0.8093,-0.771,-0.733,-0.6795,-0.649,-0.6338,-0.6338,-0.6338,-0.6338,-0.6338,-0.5789,-0.5318,-0.5004,-0.4533,-0.3754,-0.251,-0.2511,-0.2119,-0.1335,-0.1335,-0.1335,-0.1335,-0.1335,-0.1335,-0.1257,-0.0706,-0.047,0.0,-0.9798,-0.9606,-1.0581,-1.0175,-0.9609,-0.9841,-0.9583,0.0,-0.9356,-0.9403,-0.9582,-0.9952,-1.0028,-1.0016,-0.9981,-1.0628,-1.1323,-1.1762,-1.2945,-1.4261,-1.5628,-1.7062,-1.8045,-1.8421,-1.9749,-2.0566,-2.0566,-2.042,-2.042,-2.0566,-2.0177,-2.0098,-2.0342,-1.9872,-1.9645,-1.9645,-1.9469,-1.9301,-1.9301,-1.9301,-1.9301,-1.9301,-1.9301,-1.9301,-1.9301,-1.9301,-1.9301,-1.9301,-1.9301,-1.9301,-1.9301,-1.9301,-1.9301,-1.9301,-1.9301,-1.9301,-1.9301,-1.9301,-1.9301,-1.9143,-1.8238,-1.7407,-1.6684,-1.6357,-1.4784,-1.294,-1.2567,-1.2392,-1.2372,-1.2298,-1.2305,-1.2224,-1.1855,-1.1706,-1.1632,-1.126,-1.1111,-1.1111,-1.1111,-1.1111,-1.0887,-1.0143,-0.9992,-0.969,-0.8932,-0.8169,-0.7638,-0.7484,-0.6872,-0.6338,-0.6338,-0.6338,-0.6338,-0.6338,-0.6338,-0.5948,-0.516,-0.5082,-0.438,-0.2744,-0.2588,-0.2198,-0.1414,-0.1335,-0.1335,-0.1335,-0.1335,-0.1335,-0.1335,-0.1335,-0.1335,-0.8488,0.0,-0.9244,-0.8861,-0.8863,-0.905,0.0,-0.9533,-0.9552,0.0,0.0,0.0,-1.0368,-1.0444,-1.0766,-1.1686,-1.2271,-1.2742,-1.32,-1.4468,-1.5869,-1.7271,-1.8329,-1.8951,-1.9049,-2.0,-2.0566,-2.0566,-2.0566,-2.0566,-2.0566,-2.0489,-2.0489,-2.0489,-2.0264,-2.0029,-1.9872,-1.9784,-1.9784,-1.9784,-1.9784,-1.9706,-1.9557,-1.9557,-1.9469,-1.9301,-1.9301,-1.9301,-1.9301,-1.9301,-1.9301,-1.9301,-1.9301,-1.9301,-1.9301,-1.9301,-1.9301,-1.9301,-1.9301,-1.9301,-1.9143,-1.8238,-1.7729,-1.7246,-1.6523,-1.5732,-1.4866,-1.3931,-1.3438,-1.3098,-1.2445,-1.2305,-1.2305,-1.215,-1.2003,-1.1855,-1.1632,-1.1409,-1.126,-1.1111,-1.1111,-1.1037,-1.0887,-1.0812,-1.0513,-0.9765,-0.9463,-0.8851,-0.7633,-0.733,-0.6949,-0.6338,-0.6338,-0.6338,-0.6338,-0.6338,-0.6183,-0.6022,-0.6022,-0.5553,-0.4457,-0.3832,-0.3054,-0.2198,-0.1649,-0.1335,-0.1335,-0.1335,-0.1335,-0.1335,-0.1335,-0.1335,-0.7877,-0.8603,-0.9298,-0.9059,-0.9021,-0.92,-0.9732,0.0,0.0,0.0,0.0,0.0,0.0,0.0,-1.1065,-1.2148,-1.2871,-1.3726,-1.4956,-1.5801,-1.6787,-1.8265,-1.9063,-1.9554,-1.9755,-2.0673,-2.1095,-2.0624,-2.0944,-2.1011,-2.0644,-2.0566,-2.0566,-2.0566,-2.0489,-2.0333,-2.0108,-1.9942,-1.9863,-1.9863,-1.9863,-1.9863,-1.9715,-1.9715,-1.9636,-1.9469,-1.9469,-1.939,-1.9301,-1.9301,-1.9301,-1.9301,-1.9301,-1.9301,-1.9301,-1.9301,-1.9301,-1.9301,-1.9301,-1.9301,-1.9222,-1.8727,-1.8505,-1.8258,-1.7856,-1.7252,-1.6514,-1.5028,-1.4088,-1.339,-1.2952,-1.2592,-1.2305,-1.215,-1.2077,-1.1929,-1.1706,-1.1632,-1.1484,-1.126,-1.126,-1.1186,-1.1111,-1.1111,-1.0962,-1.0513,-1.0143,-0.9463,-0.8246,-0.771,-0.7176,-0.6416,-0.6338,-0.6338,-0.6338,-0.6338,-0.6338,-0.6338,-0.6338,-0.5944,-0.5004,-0.4611,-0.3756,-0.2511,-0.2041,-0.1649,-0.1335,-0.1335,-0.1335,-0.1335,-0.1335,-0.1335,-0.7851,-0.8685,-0.9572,-0.98,-0.9666,-0.9645,-1.0186,0.0,0.0,0.0,0.0,0.0,0.0,-1.1204,0.0,0.0,0.0,-1.478,-1.6933,-1.7143,-1.7614,-1.9007,-1.9583,-2.0042,-2.0419,-2.1525,-2.186,-2.1058,-2.1614,-2.1614,-2.0867,-2.0867,-2.0867,-2.0644,-2.0712,-2.0644,-2.0342,-2.0098,-2.002,-2.002,-2.002,-2.002,-1.9942,-1.9942,-1.9872,-1.9636,-1.9636,-1.9478,-1.9301,-1.9301,-1.9301,-1.9301,-1.9301,-1.9301,-1.9301,-1.9301,-1.9301,-1.9301,-1.9301,-1.9301,-1.9301,-1.9301,-1.9301,-1.9301,-1.9301,-1.8751,-1.7748,-1.6137,-1.478,-1.3818,-1.3673,-1.3098,-1.2445,-1.2298,-1.215,-1.2003,-1.1781,-1.1781,-1.1706,-1.1484,-1.1409,-1.1335,-1.1186,-1.1111,-1.1111,-1.1111,-1.0513,-0.9765,-0.9008,-0.8169,-0.7407,-0.6567,-0.6338,-0.6338,-0.6338,-0.6338,-0.6338,-0.6338,-0.6338,-0.5944,-0.5004,-0.5004,-0.4224,-0.2511,-0.2511,-0.2119,-0.1335,-0.1335,-0.1335,-0.1335,-0.1335,-0.1335,-0.8613,-0.9447,-0.9904,-0.8926,-0.9125,-0.9709,-1.0186,0.0,0.0,0.0,0.0,0.0,0.0,-1.2649,-1.2878,0.0,-1.5101,-1.6711,-1.8743,-1.8962,-1.9221,-1.9836,-2.0312,-2.0777,-2.1263,-2.1882,-2.2299,-2.2616,-2.2734,-2.2435,-2.169,-2.2285,-2.1983,-2.0644,-2.1242,-2.1242,-2.0566,-2.0489,-2.0489,-2.0489,-2.0489,-2.0411,-2.0264,-2.0264,-2.0108,-1.9863,-1.9636,-1.9566,-1.9557,-1.939,-1.9301,-1.9301,-1.9301,-1.9301,-1.9301,-1.9301,-1.9301,-1.9301,-1.9301,-1.9301,-1.9301,-1.9301,-1.9301,-1.9301,-1.9301,-1.8751,-1.8035,-1.7748,-1.6602,-1.5259,-1.4601,-1.389,-1.3317,-1.3317,-1.2732,-1.2224,-1.2003,-1.1929,-1.1855,-1.1706,-1.1484,-1.1409,-1.1335,-1.1186,-1.1111,-1.1111,-1.0962,-1.0663,-0.9841,-0.9008,-0.8246,-0.7407,-0.6721,-0.6338,-0.6338,-0.6338,-0.6338,-0.6338,-0.6338,-0.5944,-0.5004,-0.5004,-0.4224,-0.2511,-0.2511,-0.2119,-0.1335,-0.1335,-0.1335,-0.1335,-0.1335,-0.1335,-0.8182,-0.9102,-0.9785,-0.9199,-0.9873,-1.0791,-1.123,0.0,0.0,0.0,0.0,0.0,0.0,0.0,-1.4063,-1.6074,-1.6842,-1.785,-1.9616,-1.9625,-1.9739,-2.0557,-2.0803,-2.1139,-2.1632,-2.2241,-2.2616,-2.2582,-2.2695,-2.27,-2.2478,-2.2485,-2.239,-2.1907,-2.2285,-2.2059,-2.1242,-2.1242,-2.1011,-2.0566,-2.0566,-2.0566,-2.0489,-2.0489,-2.0342,-2.0108,-1.9872,-1.9715,-1.9566,-1.9381,-1.9301,-1.9301,-1.9301,-1.9301,-1.9301,-1.9301,-1.9301,-1.9301,-1.9301,-1.9301,-1.9301,-1.9301,-1.9301,-1.9265,-1.9045,-1.8577,-1.8073,-1.7844,-1.6848,-1.5692,-1.533,-1.4681,-1.4106,-1.4106,-1.3818,-1.3382,-1.2952,-1.2806,-1.2586,-1.2003,-1.1706,-1.1558,-1.1409,-1.126,-1.1111,-1.1111,-1.1111,-1.0812,-0.9997,-0.9614,-0.8856,-0.7638,-0.7176,-0.6795,-0.6338,-0.6338,-0.6338,-0.6338,-0.6338,-0.6103,-0.5709,-0.5709,-0.5085,-0.3915,-0.3444,-0.2821,-0.1962,-0.1492,-0.1335,-0.1335,-0.1335,-0.1335,-0.7939,-0.8775,-0.9641,-0.9845,0.0,-1.1626,-1.2236,0.0,0.0,0.0,0.0,0.0,0.0,-1.393,-1.5071,-1.7773,-1.801,-1.8466,-2.0297,-2.0132,-2.0251,-2.1267,-2.1336,-2.1533,-2.2043,-2.2645,-2.2881,-2.2585,-2.2788,-2.2914,-2.2877,-2.2711,-2.265,-2.2772,-2.3003,-2.2689,-2.1832,-2.1832,-2.1385,-2.0566,-2.0566,-2.0566,-2.0566,-2.0566,-2.0489,-2.0342,-2.0098,-1.9951,-1.9715,-1.9548,-1.9381,-1.939,-1.939,-1.9301,-1.9301,-1.9301,-1.9301,-1.9301,-1.9301,-1.9301,-1.9301,-1.9301,-1.9301,-1.9246,-1.8944,-1.8513,-1.8054,-1.7734,-1.6848,-1.6044,-1.6044,-1.5471,-1.4887,-1.4887,-1.4744,-1.4458,-1.389,-1.36,-1.3244,-1.2512,-1.2077,-1.1706,-1.1484,-1.1335,-1.1186,-1.1111,-1.1111,-1.0887,-1.0293,-0.9992,-0.9463,-0.8169,-0.771,-0.7176,-0.6338,-0.6338,-0.6338,-0.6338,-0.6338,-0.6338,-0.6338,-0.6338,-0.5867,-0.5004,-0.4377,-0.3521,-0.2511,-0.1884,-0.1492,-0.1335,-0.1335,-0.1335,-0.8701,-0.9233,-0.9787,-1.0615,-1.0889,0.0,-1.2549,-1.2471,0.0,-1.4389,0.0,0.0,0.0,-1.55,-1.597,-1.775,-1.798,-1.8776,-2.1009,-2.1284,-2.1475,-2.2063,-2.2123,-2.2339,-2.2855,-2.2979,-2.3207,-2.364,-2.3718,-2.3384,-2.2685,-2.3285,-2.3212,-2.228,-2.3018,-2.2872,-2.1832,-2.1832,-2.1385,-2.0566,-2.0566,-2.0566,-2.0566,-2.0566,-2.0566,-2.0566,-2.0342,-2.0264,-2.0264,-1.9942,-1.9784,-1.9566,-1.9566,-1.9478,-1.9301,-1.9301,-1.9301,-1.9301,-1.9301,-1.9301,-1.9301,-1.9301,-1.9301,-1.9292,-1.9265,-1.8733,-1.8119,-1.8082,-1.7442,-1.6839,-1.6839,-1.6263,-1.5692,-1.5692,-1.5108,-1.4601,-1.453,-1.3962,-1.3462,-1.339,-1.2659,-1.1929,-1.1706,-1.1484,-1.1335,-1.1111,-1.1111,-1.1111,-1.1037,-1.0368,-0.9841,-0.9765,-0.8399,-0.7176,-0.6338,-0.6338,-0.6412,-0.6563,-0.6412,-0.6338,-0.6338,-0.6338,-0.5867,-0.5004,-0.4924,-0.4146,-0.2511,-0.2431,-0.2041,-0.1335,-0.1335,-0.1335,-0.8094,-0.8873,-0.9738,-1.0371,-1.0918,0.0,0.0,-1.3242,-1.3709,-1.4333,-1.506,0.0,0.0,0.0,-1.7379,-1.8385,-1.8768,-1.9526,-2.1176,-2.1404,-2.1596,-2.2125,-2.2197,-2.227,-2.2474,-2.2486,-2.2714,-2.3244,-2.2967,-2.2934,-2.3313,-2.3317,-2.3245,-2.32,-2.3497,-2.3387,-2.28,-2.2291,-2.2073,-2.2059,-2.1614,-2.1614,-2.2059,-2.1538,-2.1308,-2.1318,-2.0566,-2.0264,-2.0264,-2.002,-1.9794,-1.9557,-1.9478,-1.939,-1.9301,-1.9301,-1.9301,-1.9301,-1.9301,-1.9301,-1.9301,-1.9301,-1.9301,-1.921,-1.8715,-1.8357,-1.8018,-1.7513,-1.7147,-1.6908,-1.6908,-1.6691,-1.6473,-1.6473,-1.6263,-1.5903,-1.5471,-1.5117,-1.4681,-1.368,-1.3098,-1.2579,-1.2003,-1.1706,-1.1484,-1.1335,-1.126,-1.126,-1.1111,-1.0812,-1.0443,-0.9916,-0.8475,-0.7176,-0.6338,-0.6338,-0.6412,-0.6563,-0.6412,-0.6412,-0.6637,-0.6563,-0.6405,-0.6163,-0.5541,-0.4844,-0.4219,-0.3056,-0.2354,-0.2041,-0.1571,-0.1335,-0.793,-0.8727,-0.9699,0.0,0.0,0.0,-1.2881,-1.3641,-1.4246,-1.471,-1.5434,-1.6222,-1.6924,0.0,-1.7712,-1.8496,-1.9034,-1.975,-2.0949,-2.1296,-2.1596,-2.2125,-2.2197,-2.2197,-2.2197,-2.2197,-2.2342,-2.2702,-2.2402,-2.251,-2.3232,-2.2931,-2.2967,-2.3508,-2.352,-2.3416,-2.3155,-2.2585,-2.2539,-2.2872,-2.2291,-2.2368,-2.2947,-2.1987,-2.1621,-2.1756,-2.0789,-2.042,-2.0411,-2.0177,-2.002,-1.9794,-1.9469,-1.946,-1.946,-1.946,-1.946,-1.946,-1.946,-1.946,-1.939,-1.939,-1.9381,-1.9201,-1.866,-1.832,-1.8009,-1.7449,-1.711,-1.6908,-1.6908,-1.6908,-1.6908,-1.6908,-1.6908,-1.676,-1.6263,-1.5974,-1.548,-1.4394,-1.389,-1.3375,-1.2512,-1.2218,-1.1922,-1.1558,-1.1409,-1.126,-1.1186,-1.1111,-1.0812,-1.0067,-0.8775,-0.771,-0.6945,-0.6641,-0.6563,-0.6795,-0.6563,-0.6641,-0.6861,-0.6788,-0.6791,-0.6865,-0.616,-0.5696,-0.5384,-0.3834,-0.2901,-0.2586,-0.1805,-0.1336,-0.8411,-0.8994,0.0,0.0,0.0,0.0,-1.332,-1.3516,-1.4034,-1.593,-1.6312,-1.6708,-1.7886,-1.7157,-1.6708,-1.7941,-1.8585,-1.933,-2.0423,-2.1079,-2.1596,-2.2125,-2.2197,-2.2197,-2.2197,-2.2197,-2.2197,-2.2197,-2.2197,-2.2197,-2.2197,-2.2197,-2.2426,-2.2955,-2.2967,-2.2882,-2.2639,-2.2571,-2.2571,-2.2639,-2.2571,-2.2736,-2.2925,-2.165,-2.1321,-2.1745,-2.0934,-2.0557,-2.0557,-2.0566,-2.0489,-2.0264,-1.9794,-1.9715,-1.9863,-1.9863,-1.9863,-1.9863,-1.9863,-1.9794,-1.9566,-1.9566,-1.9469,-1.9292,-1.9292,-1.8742,-1.8119,-1.8109,-1.7532,-1.6908,-1.6908,-1.6908,-1.6908,-1.6908,-1.6908,-1.6908,-1.6908,-1.6333,-1.5833,-1.5833,-1.518,-1.4314,-1.3382,-1.3011,-1.2645,-1.1855,-1.1335,-1.1186,-1.1335,-1.1186,-1.0887,-1.0293,-0.9458,-0.877,-0.8156,-0.7322,-0.7019,-0.718,-0.7022,-0.6942,-0.6942,-0.6942,-0.6942,-0.6942,-0.6942,-0.6475,-0.5622,-0.4771,-0.3834,-0.2818,-0.1962,-0.1493,-0.8411,-0.9219,0.0,-1.0615,0.0,0.0,0.0,-1.45,0.0,0.0,-1.8103,-1.8328,-1.9114,-1.9298,-1.9298,-1.9241,-1.9725,-2.0377,-2.1032,-2.1308,-2.1596,-2.2125,-2.2197,-2.2197,-2.2197,-2.2197,-2.2197,-2.2197,-2.2197,-2.2197,-2.2197,-2.2197,-2.2258,-2.2426,-2.2426,-2.2603,-2.287,-2.2321,-2.2495,-2.3416,-2.2495,-2.2601,-2.3512,-2.2011,-2.1446,-2.1535,-2.0551,-2.0107,-2.0127,-2.0294,-2.0342,-2.0264,-1.9951,-1.9872,-1.9863,-1.9863,-1.9863,-1.9863,-1.9863,-1.9863,-1.9794,-1.9794,-1.95,-1.9056,-1.8778,-1.8175,-1.7623,-1.7348,-1.7092,-1.6908,-1.6908,-1.6908,-1.6908,-1.6908,-1.6908,-1.6908,-1.6908,-1.676,-1.6403,-1.5903,-1.5613,-1.5037,-1.3673,-1.3382,-1.3018,-1.2077,-1.1706,-1.1409,-1.1186,-1.1111,-1.0738,-0.9841,-0.9458,-0.8775,-0.7395,-0.7096,-0.7099,-0.7103,-0.7103,-0.7176,-0.7326,-0.7176,-0.7176,-0.7326,-0.7176,-0.6945,-0.6714,-0.516,-0.4226,-0.3912,-0.2433,-0.1729,-0.9077,0.0,0.0,-1.1279,-1.248,-1.3711,-1.4473,0.0,0.0,0.0,-1.8726,-1.8828,-1.9843,-2.0193,-2.0193,-2.0077,-2.0546,-2.1043,-2.1356,-2.1644,-2.1898,-2.2161,-2.2247,-2.2309,-2.2309,-2.2309,-2.2309,-2.2383,-2.2383,-2.2383,-2.2383,-2.2309,-2.2309,-2.2309,-2.2247,-2.2342,-2.2666,-2.2197,-2.235,-2.3135,-2.235,-2.2362,-2.3147,-2.2115,-2.1753,-2.1885,-2.0906,-2.0624,-2.0808,-2.0576,-2.0631,-2.0867,-2.0624,-2.0547,-2.0624,-2.0624,-2.0624,-2.0624,-2.0333,-2.0098,-1.9991,-1.983,-1.9448,-1.9013,-1.8611,-1.8126,-1.7602,-1.7361,-1.7107,-1.6908,-1.6908,-1.6908,-1.6908,-1.6908,-1.6908,-1.6908,-1.6908,-1.6908,-1.676,-1.6333,-1.6263,-1.5833,-1.4609,-1.4106,-1.36,-1.2806,-1.215,-1.1558,-1.1186,-1.1111,-1.0887,-1.0212,-1.0137,-0.9755,-0.8908,-0.7859,-0.7253,-0.7253,-0.7334,-0.7407,-0.7484,-0.7407,-0.7407,-0.7484,-0.7407,-0.7334,-0.7334,-0.5547,-0.4616,-0.446,-0.2823,-0.1885,-1.0038,0.0,0.0,-1.2061,-1.2959,0.0,-1.5251,-1.5968,-1.6835,-1.8453,0.0,-1.8667,-2.0332,-2.0194,-2.0029,-2.0626,-2.1163,-2.1476,-2.1476,-2.1995,-2.2359,-2.2247,-2.2371,-2.242,-2.242,-2.242,-2.2482,-2.269,-2.269,-2.269,-2.269,-2.2555,-2.242,-2.242,-2.2309,-2.2185,-2.2185,-2.2197,-2.2197,-2.2197,-2.2197,-2.2197,-2.2209,-2.1888,-2.1966,-2.2366,-2.1669,-2.1664,-2.2038,-2.1209,-2.1257,-2.1855,-2.1669,-2.1756,-2.1907,-2.1907,-2.1907,-2.1756,-2.0971,-2.0508,-2.0285,-1.9782,-1.9402,-1.9156,-1.8777,-1.8225,-1.7754,-1.7754,-1.7333,-1.6899,-1.6908,-1.6908,-1.6908,-1.6908,-1.6908,-1.6908,-1.6908,-1.6908,-1.6908,-1.6908,-1.6908,-1.6691,-1.5903,-1.5029,-1.4243,-1.376,-1.2586,-1.1632,-1.1186,-1.1111,-1.1111,-1.1111,-1.1111,-1.126,-1.1706,-0.9145,-0.7484,-0.7484,-0.7484,-0.7484,-0.7484,-0.7484,-0.7484,-0.7484,-0.7484,-0.7484,-0.7484,-0.5854,-0.5002,-0.4686,-0.3052,-0.2198,-0.9738,-1.041,0.0,0.0,-1.3633,-1.4934,-1.6437,-1.6922,-1.722,-1.8043,-1.8839,-1.9776,-2.0996,-2.1117,-2.1188,-2.1789,-2.1945,-2.2078,-2.2189,-2.2286,-2.242,-2.2567,-2.2616,-2.2616,-2.2616,-2.2616,-2.2678,-2.269,-2.269,-2.269,-2.269,-2.2678,-2.2616,-2.2616,-2.242,-2.2359,-2.2359,-2.2247,-2.2197,-2.2197,-2.2197,-2.2197,-2.2197,-2.1516,-2.1169,-2.1094,-2.0959,-2.1094,-2.1572,-2.1797,-2.194,-2.2142,-2.2509,-2.2734,-2.2734,-2.2734,-2.2734,-2.2606,-2.1416,-2.0931,-2.0785,-1.9698,-1.8991,-1.8577,-1.8481,-1.8014,-1.7533,-1.7376,-1.7241,-1.7107,-1.6968,-1.6908,-1.6908,-1.6908,-1.6908,-1.6908,-1.6908,-1.6908,-1.6908,-1.6908,-1.6908,-1.6691,-1.5903,-1.548,-1.4609,-1.2879,-1.2372,-1.2003,-1.1632,-1.1335,-1.1111,-1.1111,-1.1111,-1.1409,-1.2077,-0.9291,-0.7484,-0.7484,-0.7484,-0.7484,-0.7484,-0.7484,-0.7484,-0.7484,-0.7484,-0.7484,-0.7484,-0.6472,-0.5622,-0.4924,-0.391,-0.2976,0.0,0.0,0.0,-1.3057,0.0,-1.4794,-1.6043,-1.6585,-1.6828,-1.712,-1.8566,-2.0033,-2.0851,-2.1019,-2.1199,-2.185,-2.1922,-2.208,-2.2457,-2.2604,-2.2665,-2.269,-2.2739,-2.28,-2.28,-2.28,-2.28,-2.2909,-2.2909,-2.2909,-2.2909,-2.286,-2.28,-2.28,-2.2604,-2.2543,-2.2543,-2.2494,-2.2371,-2.2309,-2.2309,-2.2247,-2.2197,-2.1788,-2.1539,-2.1396,-2.1396,-2.1681,-2.2172,-2.2082,-2.2324,-2.2771,-2.31,-2.3335,-2.3537,-2.3537,-2.3537,-2.3312,-2.211,-2.1658,-2.1396,-1.9951,-1.9243,-1.8894,-1.8348,-1.7918,-1.7588,-1.7442,-1.7304,-1.7166,-1.7038,-1.6968,-1.6908,-1.6908,-1.6908,-1.6908,-1.6908,-1.6908,-1.6908,-1.6908,-1.6908,-1.6769,-1.6403,-1.6193,-1.5259,-1.2666,-1.2305,-1.2231,-1.2003,-1.1781,-1.1558,-1.1111,-1.1409,-1.1855,-1.2224,-1.0795,-0.914,-0.7633,-0.7484,-0.7484,-0.7484,-0.7484,-0.7484,-0.7484,-0.7484,-0.7484,-0.7484,-0.6626,-0.6009,-0.5544,-0.4375,-0.3521,0.0,0.0,-1.1675,-1.3633,-1.4136,0.0,-1.5339,-1.5911,-1.6358,-1.6585,-1.8148,-1.9682,-2.022,-2.0397,-2.0704,-2.134,-2.1484,-2.1726,-2.2469,-2.2712,-2.2749,-2.2787,-2.2848,-2.2909,-2.2909,-2.2909,-2.2969,-2.3078,-2.3078,-2.3078,-2.3078,-2.2957,-2.2909,-2.2909,-2.28,-2.2739,-2.2739,-2.2678,-2.2616,-2.242,-2.242,-2.2297,-2.2197,-2.2197,-2.2197,-2.2197,-2.2197,-2.2438,-2.2847,-2.2262,-2.2532,-2.3364,-2.3537,-2.385,-2.4137,-2.4137,-2.4137,-2.3973,-2.2611,-2.2138,-2.1925,-2.0297,-1.975,-1.9609,-1.865,-1.8192,-1.7901,-1.791,-1.7569,-1.7304,-1.7373,-1.7245,-1.7116,-1.7097,-1.7107,-1.7038,-1.6908,-1.6908,-1.6908,-1.6908,-1.6908,-1.6908,-1.6908,-1.6908,-1.6044,-1.3455,-1.2659,-1.2305,-1.2305,-1.2305,-1.2003,-1.1409,-1.1929,-1.2305,-1.2305,-1.2305,-1.1174,-0.8466,-0.7787,-0.7484,-0.7484,-0.7484,-0.7484,-0.7484,-0.7484,-0.7484,-0.7484,-0.6784,-0.6318,-0.6163,-0.4686,-0.3908,0.0,0.0,-1.242,0.0,-1.4424,-1.4982,0.0,0.0,-1.6585,-1.7644,-1.8096,-1.8467,-1.9031,-1.9666,-2.0249,-2.0852,-2.0982,-2.1338,-2.2067,-2.2201,-2.2434,-2.2967,-2.3078,-2.3078,-2.3078,-2.3078,-2.3078,-2.3078,-2.3078,-2.3078,-2.3078,-2.3078,-2.3078,-2.3078,-2.2969,-2.2848,-2.2848,-2.2739,-2.269,-2.2678,-2.2482,-2.2297,-2.2197,-2.2197,-2.2197,-2.2197,-2.2197,-2.2234,-2.233,-2.2659,-2.2922,-2.3137,-2.4034,-2.4417,-2.4477,-2.4477,-2.4477,-2.4196,-2.2544,-2.1944,-2.172,-2.0435,-2.0063,-2.0053,-1.9857,-1.9375,-1.8777,-1.87,-1.8172,-1.7774,-1.824,-1.8124,-1.7862,-1.8017,-1.7823,-1.7442,-1.6978,-1.6908,-1.6908,-1.6908,-1.6908,-1.6908,-1.6908,-1.6908,-1.676,-1.6333,-1.4027,-1.2305,-1.2305,-1.2305,-1.2224,-1.215,-1.2224,-1.2305,-1.2305,-1.2305,-1.215,-1.17,-0.9064,-0.7484,-0.7484,-0.7484,-0.7484,-0.7484,-0.7484,-0.7484,-0.7484,-0.7403,-0.6938,-0.6163,-0.5234,-0.4455,-0.9687,-1.0934,-1.226,0.0,-1.3926,-1.4292,-1.5239,-1.5445,-1.5787,-1.6869,-1.7368,-1.7877,-1.8776,-1.9282,-1.9745,-2.0336,-2.06,-2.094,-2.1668,-2.2006,-2.2239,-2.2221,-2.2485,-2.2548,-2.2246,-2.2498,-2.2673,-2.2673,-2.2902,-2.3078,-2.3078,-2.3078,-2.3078,-2.3078,-2.3017,-2.3017,-2.3017,-2.2969,-2.2909,-2.28,-2.2543,-2.2359,-2.2309,-2.2247,-2.2197,-2.2197,-2.2197,-2.2197,-2.2209,-2.2438,-2.2714,-2.3027,-2.3484,-2.3833,-2.4097,-2.4097,-2.4097,-2.3989,-2.2894,-2.2504,-2.2345,-2.1039,-2.0677,-2.0613,-2.0226,-1.9901,-1.9562,-1.9562,-1.9222,-1.8946,-1.9145,-1.9023,-1.8767,-1.8566,-1.822,-1.7755,-1.7038,-1.6908,-1.6908,-1.6908,-1.6908,-1.6908,-1.6908,-1.6908,-1.6908,-1.6908,-1.5754,-1.4243,-1.2519,-1.2305,-1.2305,-1.2305,-1.2305,-1.2305,-1.2305,-1.2305,-1.2305,-1.2305,-0.9291,-0.7787,-0.8399,-0.7787,-0.7484,-0.7484,-0.7484,-0.7484,-0.7484,-0.7484,-0.7326,-0.6861,-0.5622,-0.4846,0.0,0.0,-1.1555,-1.2871,-1.3262,-1.3564,0.0,0.0,-1.4903,-1.5941,-1.6629,-1.7444,-1.8632,-1.9052,-1.9409,-1.9907,-2.0184,-2.0544,-2.1204,-2.1631,-2.1794,-2.1518,-2.1845,-2.1945,-2.1531,-2.1857,-2.2159,-2.2297,-2.2686,-2.2987,-2.3065,-2.3078,-2.3078,-2.3078,-2.3078,-2.3078,-2.3078,-2.3078,-2.3017,-2.2909,-2.2665,-2.2482,-2.242,-2.2309,-2.2247,-2.2197,-2.2197,-2.2197,-2.2197,-2.2197,-2.2426,-2.2799,-2.2931,-2.322,-2.3568,-2.3568,-2.3568,-2.3496,-2.2967,-2.2787,-2.2651,-2.1717,-2.1388,-2.1273,-2.0816,-2.0495,-2.0355,-2.0355,-2.002,-1.9738,-2.0063,-1.9998,-1.9738,-1.9365,-1.8824,-1.8152,-1.7097,-1.6908,-1.6908,-1.6908,-1.6908,-1.6908,-1.6908,-1.6908,-1.6908,-1.6908,-1.6908,-1.6044,-1.3738,-1.2806,-1.2305,-1.2305,-1.2305,-1.2305,-1.2305,-1.2305,-1.2305,-1.2305,-0.9669,-0.8394,-0.9084,-0.8093,-0.7484,-0.7484,-0.7484,-0.7484,-0.7484,-0.7484,-0.7484,-0.7484,-0.6009,-0.5312,0.0,-0.9712,0.0,-1.199,-1.2693,0.0,0.0,-1.4116,-1.4449,-1.5533,-1.631,-1.7137,-1.8132,-1.8934,-1.938,-1.9457,-1.9654,-2.0049,-2.068,-2.0794,-2.0941,-2.143,-2.1506,-2.1518,-2.1493,-2.1518,-2.1744,-2.2272,-2.2334,-2.2585,-2.3053,-2.3078,-2.3078,-2.3078,-2.3078,-2.3078,-2.3078,-2.3078,-2.3017,-2.2909,-2.2909,-2.2726,-2.242,-2.242,-2.2309,-2.2197,-2.2197,-2.2197,-2.2197,-2.2197,-2.2209,-2.2282,-2.2787,-2.3003,-2.3015,-2.3015,-2.3015,-2.2943,-2.2414,-2.2234,-2.2234,-2.2135,-2.2123,-2.2123,-2.2123,-2.1588,-2.1071,-2.1071,-2.0226,-1.9649,-2.0741,-2.0869,-2.073,-2.0794,-1.9879,-1.8576,-1.7176,-1.6908,-1.6908,-1.6908,-1.6908,-1.6908,-1.6908,-1.6908,-1.6908,-1.6908,-1.6908,-1.6839,-1.6691,-1.4099,-1.2305,-1.2305,-1.2305,-1.2305,-1.2305,-1.2305,-1.2305,-1.2305,-1.072,-0.9599,-0.9155,-0.8093,-0.7484,-0.7484,-0.7484,-0.7484,-0.7484,-0.7484,-0.7484,-0.748,-0.6549,-0.6163,0.0,0.0,0.0,-1.1243,-1.1895,-1.2358,-1.3224,-1.3586,-1.4004,-1.5058,-1.5784,-1.6513,-1.7282,-1.8582,-1.9512,-1.9512,-1.9656,-1.9874,-2.0075,-2.0439,-2.0655,-2.0426,-2.074,-2.0815,-2.0439,-2.074,-2.1041,-2.1242,-2.1581,-2.187,-2.2071,-2.2083,-2.2234,-2.2598,-2.2611,-2.2774,-2.3078,-2.3078,-2.3078,-2.3017,-2.2969,-2.2787,-2.2616,-2.2482,-2.2297,-2.2197,-2.2197,-2.2197,-2.2197,-2.2197,-2.2197,-2.2209,-2.2402,-2.2474,-2.2474,-2.2474,-2.2474,-2.245,-2.2258,-2.2197,-2.2197,-2.2197,-2.2197,-2.2197,-2.2197,-2.1999,-2.18,-2.18,-2.1537,-2.1273,-2.1726,-2.1726,-2.1588,-2.1049,-1.9814,-1.8643,-1.7891,-1.7295,-1.6908,-1.6908,-1.6908,-1.6908,-1.6908,-1.6908,-1.6908,-1.6908,-1.6908,-1.6908,-1.6908,-1.5974,-1.5251,-1.5251,-1.3455,-1.2305,-1.2305,-1.2305,-1.2305,-1.2305,-1.1099,-1.0201,-0.9599,-0.877,-0.8016,-0.7484,-0.7484,-0.7484,-0.7484,-0.7484,-0.7484,-0.748,-0.663,-0.6163,-0.8674,0.0,0.0,0.0,0.0,-1.1608,-1.2795,-1.3084,-1.339,-1.443,-1.53,-1.6058,-1.6639,-1.8027,-1.9183,-1.9306,-1.9583,-1.9798,-1.9798,-2.0137,-2.0238,-1.9849,-2.0137,-2.0225,-1.9836,-2.015,-2.0451,-2.0706,-2.1004,-2.1292,-2.1481,-2.1493,-2.1744,-2.2297,-2.2309,-2.2573,-2.3065,-2.3078,-2.3078,-2.3078,-2.3017,-2.2909,-2.2739,-2.2604,-2.2482,-2.2371,-2.2309,-2.2247,-2.2197,-2.2197,-2.2197,-2.2197,-2.2197,-2.2197,-2.2197,-2.2197,-2.2197,-2.2197,-2.2197,-2.2197,-2.2197,-2.2197,-2.2197,-2.2197,-2.2197,-2.2197,-2.2197,-2.2197,-2.2197,-2.2197,-2.2197,-2.2197,-2.1987,-2.1112,-2.0074,-1.909,-1.8335,-1.7491,-1.6908,-1.6908,-1.6908,-1.6908,-1.6908,-1.6908,-1.6908,-1.6908,-1.6908,-1.6908,-1.6908,-1.6908,-1.6908,-1.6908,-1.4171,-1.2305,-1.2305,-1.2305,-1.2305,-1.2305,-1.1329,-1.0576,-1.0276,-0.9523,-0.8694,-0.794,-0.794,-0.7787,-0.7484,-0.7484,-0.7484,-0.7484,-0.6938,-0.6444,0.0,0.0,0.0,0.0,0.0,0.0,-1.2736,-1.2689,-1.2586,-1.365,-1.4833,-1.5791,-1.6264,-1.7315,-1.8307,-1.8709,-1.9321,-1.9773,-1.9773,-1.9798,-1.9798,-1.9798,-1.9798,-1.9798,-1.9798,-1.9798,-2.0037,-2.0655,-2.0693,-2.092,-2.1405,-2.1455,-2.1707,-2.2246,-2.2297,-2.2573,-2.304,-2.3065,-2.3078,-2.3078,-2.3078,-2.3017,-2.2909,-2.2909,-2.286,-2.269,-2.2482,-2.2297,-2.2197,-2.2197,-2.2197,-2.2197,-2.2197,-2.2197,-2.2197,-2.2197,-2.2197,-2.2197,-2.2197,-2.2197,-2.2197,-2.2197,-2.2197,-2.2197,-2.2197,-2.2197,-2.2197,-2.2197,-2.2197,-2.2197,-2.2197,-2.2197,-2.1987,-2.1123,-2.0643,-1.9987,-1.8593,-1.756,-1.6908,-1.6908,-1.6908,-1.6908,-1.6908,-1.6908,-1.6908,-1.6908,-1.6908,-1.6908,-1.6908,-1.6908,-1.6908,-1.6908,-1.4243,-1.2445,-1.2378,-1.2372,-1.2305,-1.2305,-1.1329,-1.0881,-1.1111,-1.0351,-0.9518,-0.8694,-0.8699,-0.8313,-0.7468,-0.748,-0.7484,-0.7484,-0.748,-0.6995,-0.8156,0.0,0.0,0.0,0.0,0.0,-1.1481,-1.1596,-1.1735,-1.3055,-1.3651,-1.4192,-1.5153,-1.6267,-1.7198,-1.7709,-1.857,-1.9246,-1.9246,-1.956,-1.9798,-1.9798,-1.9798,-1.9798,-1.9798,-1.9798,-1.9874,-2.0024,-2.0037,-2.0112,-2.0263,-2.0665,-2.0966,-2.1117,-2.1895,-2.2385,-2.2535,-2.2937,-2.3078,-2.3078,-2.3078,-2.3017,-2.2909,-2.2909,-2.286,-2.269,-2.2616,-2.2494,-2.2359,-2.2247,-2.2197,-2.2197,-2.2197,-2.2197,-2.2197,-2.2197,-2.2197,-2.2197,-2.2197,-2.2197,-2.2197,-2.2197,-2.2197,-2.2197,-2.2197,-2.2197,-2.2197,-2.2197,-2.2197,-2.2197,-2.2197,-2.2197,-2.2123,-2.1925,-2.1112,-2.0386,-2.0344,-1.8566,-1.6908,-1.6908,-1.6908,-1.6908,-1.6908,-1.6908,-1.6908,-1.6908,-1.6908,-1.6908,-1.6908,-1.6908,-1.6908,-1.6908,-1.6114,-1.5037,-1.3535,-1.3397,-1.3105,-1.2378,-1.2003,-1.1632,-1.1111,-1.0881,-1.0043,-0.8546,-0.8623,-0.8178,-0.7171,-0.7358,-0.7484,-0.748,-0.7354,-0.7119,0.0,0.0,0.0,0.0,0.0,0.0,-1.1337,-1.128,-1.1221,-1.2477,-1.2925,-1.3435,-1.4494,-1.5407,-1.6215,-1.6885,-1.7765,-1.8417,-1.8643,-1.8945,-1.9133,-1.9133,-1.9334,-1.9472,-1.9472,-1.9673,-1.9798,-1.9798,-1.9798,-1.9798,-1.9798,-2.0125,-2.0413,-2.0706,-2.1292,-2.1845,-2.2309,-2.2636,-2.2912,-2.3078,-2.3078,-2.3078,-2.2969,-2.2969,-2.2969,-2.2848,-2.28,-2.2739,-2.2604,-2.2432,-2.2321,-2.2197,-2.2383,-2.2371,-2.2309,-2.2371,-2.2371,-2.2309,-2.2309,-2.2247,-2.2197,-2.2197,-2.2197,-2.2197,-2.2197,-2.2197,-2.2197,-2.2197,-2.2197,-2.2197,-2.2197,-2.2197,-2.2197,-2.2197,-2.1651,-2.125,-2.1537,-1.9156,-1.6908,-1.6908,-1.6908,-1.6908,-1.6908,-1.6908,-1.6908,-1.6908,-1.6908,-1.6908,-1.6908,-1.6908,-1.6908,-1.6908,-1.6908,-1.6044,-1.3977,-1.3688,-1.3244,-1.2378,-1.2305,-1.2077,-1.1632,-1.1632,-1.0757,-0.8968,-0.902,-0.8411,-0.7023,-0.7309,-0.7447,-0.737,-0.7196,-0.707,0.0,0.0,0.0,0.0,-1.0336,0.0,-1.1749,-1.1383,-1.0956,-1.2013,-1.2483,-1.2973,-1.3941,-1.4499,-1.5096,-1.6031,-1.6729,-1.7355,-1.8028,-1.8166,-1.8204,-1.8204,-1.8643,-1.8883,-1.8883,-1.9346,-1.9648,-1.971,-1.9773,-1.9798,-1.9798,-1.9798,-2.0037,-2.0605,-2.0693,-2.1142,-2.2121,-2.2184,-2.2498,-2.2977,-2.2977,-2.3015,-2.3078,-2.3078,-2.3078,-2.3078,-2.2969,-2.2909,-2.2909,-2.28,-2.2555,-2.2321,-2.2555,-2.2616,-2.2482,-2.2616,-2.2616,-2.242,-2.242,-2.2371,-2.2259,-2.2259,-2.2259,-2.2185,-2.2185,-2.2197,-2.2197,-2.2197,-2.2197,-2.2197,-2.2197,-2.2197,-2.2197,-2.2197,-2.2197,-2.2197,-2.2197,-1.9617,-1.7176,-1.6978,-1.6908,-1.6908,-1.6908,-1.6908,-1.6908,-1.6908,-1.6908,-1.6908,-1.6908,-1.6908,-1.6908,-1.6908,-1.6908,-1.6114,-1.4194,-1.3753,-1.3317,-1.2445,-1.2345,-1.2258,-1.2258,-1.2225,-1.1405,-0.9697,-0.9448,-0.8571,-0.7023,-0.7289,-0.7366,-0.7192,-0.7009,-0.6904,0.0,0.0,-1.1771,-1.0899,-1.0794,0.0,-1.107,-1.072,-1.0632,-1.1489,-1.1169,-1.1088,-1.2178,-1.2692,-1.32,-1.4108,-1.498,-1.6003,-1.7355,-1.7928,-1.8204,-1.8204,-1.8304,-1.8367,-1.8367,-1.8455,-1.8694,-1.9096,-1.9572,-1.9798,-1.9798,-1.9798,-1.9849,-1.9962,-2.0426,-2.0819,-2.0991,-2.143,-2.1933,-2.2472,-2.2472,-2.2711,-2.3078,-2.3078,-2.3078,-2.3078,-2.3078,-2.3017,-2.2909,-2.2957,-2.2848,-2.2616,-2.2678,-2.269,-2.2629,-2.269,-2.269,-2.2616,-2.2616,-2.2616,-2.2629,-2.2629,-2.2494,-2.2359,-2.2359,-2.2309,-2.2197,-2.2197,-2.2197,-2.2197,-2.2197,-2.2197,-2.2197,-2.2197,-2.2197,-2.2197,-2.2197,-2.0764,-1.8931,-1.7245,-1.6908,-1.6908,-1.6908,-1.6908,-1.6908,-1.6908,-1.6908,-1.6908,-1.6908,-1.6908,-1.6908,-1.6908,-1.6908,-1.6473,-1.548,-1.4752,-1.4106,-1.3317,-1.2439,-1.1951,-1.1951,-1.1724,-1.1037,-0.9944,-0.8596,-0.7582,-0.7023,-0.7171,-0.7183,-0.7001,-0.6826,-0.6725,-1.2994,-1.2981,-1.3047,-1.2528,-1.2028,0.0,0.0,-1.1035,-1.0638,-1.153,-1.0992,-1.0749,-1.2013,-1.2193,-1.2461,-1.332,-1.4253,-1.5073,-1.5745,-1.6704,-1.7363,-1.7363,-1.7626,-1.779,-1.779,-1.8041,-1.8317,-1.8593,-1.8857,-1.9133,-1.9397,-1.9409,-1.9535,-1.9798,-2.0087,-2.0376,-2.0718,-2.0995,-2.1355,-2.1895,-2.1895,-2.2184,-2.2723,-2.2723,-2.2874,-2.3078,-2.3078,-2.3078,-2.3017,-2.3078,-2.3017,-2.2909,-2.2909,-2.2848,-2.28,-2.2848,-2.2848,-2.28,-2.28,-2.2739,-2.269,-2.269,-2.2616,-2.2543,-2.242,-2.2309,-2.2197,-2.2197,-2.2197,-2.2197,-2.2197,-2.2197,-2.2197,-2.2197,-2.2197,-2.2197,-2.2197,-2.1624,-2.0635,-1.8854,-1.7647,-1.6908,-1.6908,-1.6908,-1.6908,-1.6908,-1.6908,-1.6908,-1.6908,-1.6908,-1.6908,-1.6908,-1.6908,-1.6621,-1.5833,-1.5037,-1.4244,-1.33,-1.2372,-1.1804,-1.1657,-1.1503,-1.0944,-0.9989,-0.8394,-0.7467,-0.7227,-0.7074,-0.6907,-0.6818,-0.6639,-0.6558,-1.4295,-1.4172,-1.4157,-1.4192,-1.3418,-1.2626,0.0,0.0,0.0,-1.1638,-1.1075,-1.0843,-1.1905,-1.1774,-1.1748,-1.2551,-1.3539,-1.4175,-1.4113,-1.5286,-1.6181,-1.6208,-1.6754,-1.7072,-1.6973,-1.746,-1.7822,-1.8041,-1.8053,-1.8292,-1.8844,-1.892,-1.9221,-1.9635,-1.9748,-2.0024,-2.0542,-2.0555,-2.0778,-2.133,-2.133,-2.1681,-2.2309,-2.2309,-2.2611,-2.3078,-2.3078,-2.3078,-2.3078,-2.3078,-2.3078,-2.3078,-2.3078,-2.3017,-2.2969,-2.3078,-2.3017,-2.2969,-2.2969,-2.2848,-2.28,-2.28,-2.2739,-2.2678,-2.2482,-2.2309,-2.2247,-2.2197,-2.2197,-2.2197,-2.2197,-2.2197,-2.2197,-2.2197,-2.2197,-2.2197,-2.2197,-2.2197,-2.1812,-2.0399,-1.8395,-1.6908,-1.6908,-1.6908,-1.6908,-1.6908,-1.6908,-1.6908,-1.6908,-1.6908,-1.6908,-1.6908,-1.6908,-1.6691,-1.6044,-1.5108,-1.4238,-1.3274,-1.2298,-1.165,-1.1356,-1.1289,-1.0808,-0.991,-0.8714,-0.7893,-0.7521,-0.7091,-0.6767,-0.6639,-0.6489,-0.642,-1.6288,-1.6191,-1.584,-1.451,-1.4397,-1.4181,-1.2675,0.0,-1.2152,-1.1358,0.0,-1.0559,-1.0421,0.0,0.0,-1.0717,-1.1934,-1.2934,-1.3273,-1.4227,-1.4952,-1.5142,-1.5664,-1.5835,-1.5393,-1.583,-1.6544,-1.7438,-1.7566,-1.7806,-1.8267,-1.8769,-1.9008,-1.912,-1.956,-1.9836,-1.9899,-1.9899,-2.0188,-2.0806,-2.0806,-2.1305,-2.2309,-2.2309,-2.2611,-2.3078,-2.3078,-2.3078,-2.3078,-2.3078,-2.3078,-2.3078,-2.3078,-2.3078,-2.3078,-2.3078,-2.3078,-2.3078,-2.3078,-2.3078,-2.3078,-2.3078,-2.2969,-2.2787,-2.2482,-2.242,-2.2359,-2.2247,-2.2197,-2.2197,-2.2197,-2.2197,-2.2197,-2.2197,-2.2197,-2.2197,-2.2197,-2.2197,-2.1812,-2.0399,-1.8395,-1.6908,-1.6908,-1.6908,-1.6908,-1.6908,-1.6908,-1.6908,-1.6908,-1.6908,-1.6908,-1.6908,-1.6908,-1.6839,-1.676,-1.5463,-1.4458,-1.4117,-1.2434,-1.1349,-1.1056,-1.0795,-1.0315,-0.9566,-0.9373,-0.8711,-0.7521,-0.7414,-0.7104,-0.6448,-0.6428,-0.642,-1.6947,-1.706,-1.6977,-1.5783,-1.5372,-1.4904,-1.3622,-1.2957,-1.2567,-1.247,0.0,0.0,0.0,0.0,0.0,0.0,-1.0871,-1.1453,-1.1514,-1.2424,-1.3509,-1.4708,-1.4996,-1.5118,-1.5108,-1.5314,-1.5721,-1.6414,-1.6485,-1.6872,-1.7677,-1.7953,-1.8367,-1.8958,-1.9246,-1.9497,-1.9798,-1.9798,-1.9924,-2.0162,-2.0162,-2.0752,-2.1832,-2.1832,-2.2309,-2.3138,-2.3484,-2.3662,-2.3721,-2.4047,-2.3989,-2.3662,-2.3662,-2.3424,-2.3078,-2.3078,-2.3078,-2.3078,-2.3078,-2.3078,-2.3078,-2.3078,-2.3017,-2.2848,-2.2726,-2.2543,-2.242,-2.2297,-2.2247,-2.2197,-2.2197,-2.2197,-2.2197,-2.2197,-2.2197,-2.2197,-2.2197,-2.2197,-2.1812,-2.0399,-1.9407,-1.8395,-1.7107,-1.6908,-1.6908,-1.6908,-1.6908,-1.6908,-1.6908,-1.6908,-1.6908,-1.6908,-1.6908,-1.6908,-1.6908,-1.5903,-1.487,-1.3958,-1.2028,-1.0868,-1.0748,-1.0692,-1.0428,-1.0168,-0.9716,-0.9198,-0.8683,-0.7912,-0.7326,-0.7003,-0.6613,-0.642,-1.7393,-1.7598,-1.7545,-1.6441,-1.5812,-1.5238,-1.4226,-1.3574,-1.3238,-1.3533,-1.3034,0.0,0.0,0.0,-1.0855,-1.0232,0.0,-1.0786,-1.0665,-1.119,-1.2173,-1.3721,-1.3966,-1.4201,-1.4565,-1.4605,-1.4892,-1.561,-1.5645,-1.6081,-1.7087,-1.73,-1.7815,-1.8769,-1.8895,-1.9284,-1.9798,-1.9798,-1.9798,-1.9798,-1.9798,-2.0313,-2.1267,-2.1267,-2.187,-2.2912,-2.3593,-2.3974,-2.4118,-2.4738,-2.4624,-2.4131,-2.4131,-2.378,-2.3365,-2.3198,-2.3078,-2.3078,-2.3078,-2.3078,-2.3078,-2.3078,-2.3017,-2.2969,-2.2909,-2.2726,-2.2543,-2.242,-2.2297,-2.2247,-2.2197,-2.2197,-2.2197,-2.2197,-2.2197,-2.2197,-2.2197,-2.2197,-2.1675,-1.9987,-1.9407,-1.8731,-1.7176,-1.6908,-1.6908,-1.6908,-1.6908,-1.6908,-1.6908,-1.6908,-1.6908,-1.6908,-1.6908,-1.6908,-1.6908,-1.6096,-1.494,-1.3341,-1.1725,-1.0744,-1.0624,-1.0624,-1.0624,-1.0624,-1.0104,-0.9709,-0.9518,-0.8554,-0.7972,-0.7782,-0.6806,-0.642,-1.7908,-1.7787,-1.7437,-1.5915,-1.55,-1.5199,-1.4075,-1.4206,-1.443,-1.4145,-1.4123,-1.4022,-1.3726,-1.2822,-1.1839,0.0,-1.1148,0.0,0.0,-1.1096,-1.1102,-1.1807,-1.2371,-1.2845,-1.3313,-1.3286,-1.3847,-1.522,-1.5255,-1.5604,-1.6484,-1.7074,-1.7639,-1.8216,-1.8744,-1.9284,-1.9798,-1.9798,-1.9798,-1.9798,-1.9798,-2.0112,-2.0743,-2.0743,-2.1292,-2.2334,-2.2985,-2.3581,-2.4118,-2.4738,-2.4624,-2.4131,-2.4131,-2.4073,-2.4015,-2.3365,-2.3078,-2.3078,-2.3078,-2.3078,-2.3078,-2.3078,-2.3078,-2.3078,-2.2969,-2.2909,-2.2787,-2.2482,-2.242,-2.2359,-2.2247,-2.2197,-2.2197,-2.2197,-2.2197,-2.2197,-2.2197,-2.2197,-2.1463,-1.9034,-1.7706,-1.6968,-1.6908,-1.6908,-1.6908,-1.6908,-1.6908,-1.6908,-1.6908,-1.6908,-1.6908,-1.6908,-1.6908,-1.6908,-1.6908,-1.5859,-1.4295,-1.2217,-1.1672,-1.124,-1.0624,-1.0624,-1.0624,-1.0624,-1.0561,-1.0231,-0.9518,-0.9454,-0.9134,-0.8425,-0.7068,-0.642,-1.8305,-1.8461,-1.8303,-1.6851,-1.6409,-1.5962,-1.4633,-1.4454,-1.4563,-1.4456,-1.4774,-1.4929,-1.4555,-1.373,-1.2857,0.0,0.0,-1.1256,0.0,-1.0267,-1.0446,-1.1318,-1.1603,-1.2119,-1.3159,-1.312,-1.3489,-1.455,-1.4887,-1.5322,-1.5932,-1.6509,-1.7074,-1.7639,-1.8191,-1.8744,-1.9284,-1.9623,-1.9798,-1.9798,-1.9798,-2.0112,-2.0718,-2.0718,-2.1285,-2.2343,-2.336,-2.4123,-2.4723,-2.5751,-2.5825,-2.5258,-2.5258,-2.4808,-2.4002,-2.3365,-2.3365,-2.3721,-2.3245,-2.3078,-2.3078,-2.3078,-2.3078,-2.3078,-2.3078,-2.2969,-2.2848,-2.2678,-2.2482,-2.2359,-2.2247,-2.2197,-2.2197,-2.2197,-2.2197,-2.2197,-2.2197,-2.2197,-2.1925,-2.1135,-1.8757,-1.6908,-1.6908,-1.6908,-1.6908,-1.6908,-1.6908,-1.6908,-1.6908,-1.6908,-1.6908,-1.6908,-1.6908,-1.6908,-1.6908,-1.591,-1.4849,-1.3827,-1.2618,-1.1701,-1.1247,-1.0807,-1.0624,-1.0624,-1.0624,-1.0491,-1.0231,-0.9716,-0.939,-0.9134,-0.8231,-0.7582,-1.8745,-1.8898,-1.8792,-1.7515,-1.713,-1.669,-1.5425,-1.5309,-1.5455,-1.5455,-1.5683,-1.5892,-1.5919,-1.4874,-1.392,0.0,0.0,0.0,0.0,-1.0478,-1.0883,-1.1132,-1.133,-1.1895,-1.2957,-1.2862,-1.3118,-1.4043,-1.4525,-1.5018,-1.5655,-1.622,-1.6785,-1.7363,-1.7727,-1.8267,-1.897,-1.9359,-1.9623,-1.9798,-1.9798,-1.9999,-2.0416,-2.0562,-2.1144,-2.2073,-2.3499,-2.4413,-2.498,-2.628,-2.6447,-2.5893,-2.5893,-2.5439,-2.4637,-2.3767,-2.3603,-2.3662,-2.3258,-2.3078,-2.3078,-2.3078,-2.3078,-2.3078,-2.3078,-2.3017,-2.2969,-2.28,-2.2616,-2.2494,-2.2309,-2.2247,-2.2197,-2.2197,-2.2197,-2.2197,-2.2197,-2.1987,-2.1726,-2.1388,-1.9278,-1.7432,-1.7038,-1.7038,-1.6968,-1.6908,-1.6908,-1.6908,-1.6908,-1.6908,-1.6908,-1.6908,-1.6908,-1.6844,-1.6707,-1.6034,-1.5318,-1.4534,-1.3236,-1.2195,-1.1498,-1.0933,-1.0624,-1.0624,-1.0624,-1.0624,-1.0624,-1.0104,-0.9907,-0.9964,-0.9256,-0.8613]}]]